     2              OBSERVATION DATA    GPS                 RINEX VERSION / TYPE
teqc 2000Feb29 20020409 20:38:50UTC                         PGM / RUN BY / DATE
                                                            COMMENT
L2: 1 -> 1; 150 -> 5; 250 -> 9                              COMMENT
L2: 1 -> 1; 150 -> 5; 250 -> 9                              COMMENT
L2: 1 -> 1; 150 -> 5; 250 -> 9                              COMMENT
L2: 1 -> 1; 150 -> 5; 250 -> 9                              COMMENT
L2: 1 -> 1; 150 -> 5; 250 -> 9                              COMMENT
Original Marker Name: GUAD                                  COMMENT
Campaign Name: Northern Baja                                COMMENT
4-Character Station Name: GUAD                              COMMENT
6-Character Antenna Code: DMRCHT                            COMMENT
Vertical Measurement Point: BCR                             COMMENT
Vertical Offset to Rinex Ref. Point: 0.0348                 COMMENT
Radial Measurement Point: ECF                               COMMENT
Radial Offset to Rinex Ref. Point: 0.1897                   COMMENT
Antenna Height from Field Measurement: 1.2417 m             COMMENT
Additional Antenna Identification Info.:                    COMMENT
Turborogue and Ashtech Choke Ring                           COMMENT
Original XYZ: -2648802.8204 -4921570.3565 3062816.2401      COMMENT
New XYZ position is based on association with SCEC monument COMMENT
D5S5Z3N7+0011. Position of that monument is believed to be  COMMENT
valid to within 1 m horizontally; vertical accuracy         COMMENT
should be no worse than 3-times this value.                 COMMENT
                                                            COMMENT
Revised Rinex header created by UCSD GPS archive for        COMMENT
GSAC on 27-Jun-2003 (2003:178) 15:32:07 GMT                 COMMENT
For assistance contact dagnew@ucsd.edu                      COMMENT
or anderson@python.ucsd.edu                                 COMMENT
                                                            COMMENT
CENTENAL                                                    MARKER NAME
JGG CICESE (ENSENADA)                                       OBSERVER / AGENCY
319 ASHTECH Z-XII3 CC00                                     REC # / TYPE / VERS
12738 DORNE-MARGOL. TYPE T                                  ANT # / TYPE
 -2648786.5996 -4921527.4371  3062786.3360                  APPROX POSITION XYZ
        1.1923        0.0000        0.0000                  ANTENNA: DELTA H/E/N
     1     1     0                                          WAVELENGTH FACT L1/2
     7    C1    L1    L2    P1    P2    S1    S2            # / TYPES OF OBSERV
     0                                                      INTERVAL
  2002     3    21     0     0   30.000000                  TIME OF FIRST OBS
  2002     3    21    23    59   30.000000                  TIME OF LAST OBS
                                                            END OF HEADER
 02  3 21  0  0 30.0000000  0  9G21G23G17G26G22G15G29G18G 6
  22891392.061   -12251749.46849  -9534616.96646  22891390.560    22891407.764
       227.000         175.000
  21657226.277   -17922917.01649 -13953440.55247  21657225.625    21657237.296
       238.000         199.000
  21068716.425   -21374282.76849 -16639460.18647  21068715.672    21068727.331
       240.000         205.000
  21942314.647   -15950227.32549 -12415223.00246  21942315.031    21942327.648
       230.000         185.000
  23693509.802    -6016001.82849  -4663096.06245  23693508.695    23693526.800
       214.000         157.000
  21252619.929   -23008425.63649 -17919180.99447  21252619.008    21252630.733
       240.000         199.000
  22687967.359   -11266558.66849  -8766683.58846  22687966.298    22687983.643
       223.000         169.000
  20623398.956   -25062665.18149 -19512772.95748  20623398.408    20623408.352
       242.000         213.000
  20756003.683   -26341709.74749 -20520537.72547  20756003.748    20756014.925
       241.000         208.000
 02  3 21  0  1  0.0000000  0  9G21G23G17G26G22G15G29G18G 6
  22879042.540   -12316646.18449  -9585185.59946  22879041.989    22879058.151
       226.000         175.000
  21669571.625   -17858041.91749 -13902888.57347  21669571.228    21669582.417
       239.000         199.000
  21066008.315   -21388513.53449 -16650549.06547  21066007.526    21066019.352
       241.000         205.000
  21945517.485   -15933396.34549 -12402107.91146  21945517.115    21945530.515
       231.000         185.000
  23693840.248    -6014265.20649  -4661742.85745  23693839.426    23693857.033
       215.000         156.000
  21246722.302   -23039417.87249 -17943330.71747  21246721.281    21246733.336
       240.000         199.000
  22670254.528   -11359638.68949  -8839213.11346  22670253.780    22670270.581
       225.000         169.000
  20618022.079   -25090920.52649 -19534790.04548  20618021.481    20618031.379
       243.000         213.000
  20765064.182   -26294096.73949 -20483436.75447  20765063.925    20765075.541
       242.000         208.000
 02  3 21  0  1 30.0000000  0  9G21G23G17G26G22G15G29G18G 6
  22866748.139   -12381252.49049  -9635527.95546  22866747.260    22866763.827
       226.000         175.000
  21681958.659   -17792947.79649 -13852165.91647  21681958.263    21681969.650
       238.000         198.000
  21063318.733   -21402647.13349 -16661562.22647  21063318.178    21063329.772
       240.000         205.000
  21948839.409   -15915939.08049 -12388504.80946  21948839.654    21948851.917
       230.000         185.000
  23694263.583    -6012040.69649  -4660009.49445  23694263.573    23694280.504
       218.000         156.000
  21240846.907   -23070292.78449 -17967389.00447  21240845.679    21240858.402
       238.000         199.000
  22652572.618   -11452556.39649  -8911616.16146  22652571.421    22652588.633
       223.000         170.000
  20612730.354   -25118728.42549 -19556458.47048  20612729.784    20612739.666
       242.000         213.000
  20774214.607   -26246011.27849 -20445967.63447  20774214.610    20774225.941
       241.000         207.000
 02  3 21  0  2  0.0000000  0  9G21G23G17G26G22G15G29G18G 6
  22854508.987   -12445568.82749  -9685644.35146  22854507.484    22854524.793
       226.000         176.000
  21694386.890   -17727636.91049 -13801274.37147  21694386.219    21694398.185
       237.000         198.000
  21060647.694   -21416683.70849 -16672499.78447  21060647.267    21060658.782
       241.000         205.000
  21952280.556   -15897855.74749 -12374413.86446  21952280.193    21952292.715
       230.000         185.000
  23694779.529    -6009329.49349  -4657896.88645  23694778.556    23694796.987
       215.000         156.000
  21234993.785   -23101050.39549 -17991355.88947  21234992.770    21235005.620
       239.000         200.000
  22634922.058   -11545309.14749  -8983890.67846  22634921.290    22634938.855
       224.000         171.000
  20607523.655   -25146089.67049 -19577778.85748  20607523.079    20607533.155
       241.000         213.000
  20783454.738   -26197454.37049 -20408131.15847  20783454.874    20783465.994
       241.000         207.000
 02  3 21  0  2 30.0000000  0  9G21G23G17G26G22G15G29G18G 6
  22842325.212   -12509594.16049  -9735534.00346  22842324.488    22842340.862
       227.000         176.000
  21706856.018   -17662111.67649 -13750215.78647  21706855.367    21706866.992
       237.000         198.000
  21057995.140   -21430623.06349 -16683361.58147  21057994.644    21058006.309
       240.000         205.000
  21955840.684   -15879146.73849 -12359835.37746  21955841.367    21955852.906
       231.000         184.000
  23695387.838    -6006132.35049  -4655405.61045  23695386.985    23695404.750
       215.000         155.000
  21229163.086   -23131690.67049 -18015231.34247  21229162.197    21229175.003
       239.000         200.000
  22617303.478   -11637893.93749  -9056034.32546  22617302.068    22617319.462
       224.000         171.000
  20602401.888   -25173004.39149 -19598751.29648  20602401.274    20602411.233
       241.000         213.000
  20792784.528   -26148426.24549 -20369927.49547  20792784.535    20792795.968
       241.000         207.000
 02  3 21  0  3  0.0000000  0  9G21G23G17G26G22G15G29G18G 6
  22830196.802   -12573328.23249  -9785196.69446  22830195.844    22830212.203
       227.000         177.000
  21719365.413   -17596374.28749 -13698991.89647  21719365.136    21719376.489
       237.000         198.000
  21055361.161   -21444464.61349 -16694147.17347  21055360.607    21055372.064
       241.000         205.000
  21959520.012   -15859811.91549 -12344769.26246  21959519.941    21959532.727
       230.000         185.000
  23696088.493    -6002450.32149  -4652536.50145  23696088.319    23696105.703
       217.000         157.000
  21223354.785   -23162213.67449 -18039015.42547  21223354.198    21223366.434
       240.000         200.000
  22599717.472   -11730307.64849  -9128044.65946  22599716.122    22599734.026
       224.000         171.000
  20597365.112   -25199472.54949 -19619375.77348  20597364.521    20597374.489
       242.000         213.000
  20802203.850   -26098927.62349 -20331357.22347  20802203.894    20802215.403
       242.000         207.000
 02  3 21  0  3 30.0000000  0  9G21G23G17G26G22G15G29G18G 6
  22818123.901   -12636770.73849  -9834632.18346  22818122.602    22818139.754
       225.000         177.000
  21731914.804   -17530427.00449 -13647604.45147  21731914.389    21731925.851
       237.000         198.000
  21052745.780   -21458208.22049 -16704856.44147  21052745.158    21052756.393
       240.000         205.000
  21963318.205   -15839851.90149 -12329215.96646  21963319.181    21963330.632
       230.000         185.000
  23696881.325    -5998284.42049  -4649290.33945  23696880.671    23696898.993
       217.000         158.000
  21217568.719   -23192619.31949 -18062708.05447  21217567.424    21217579.445
       239.000         199.000
  22582164.559   -11822547.37849  -9199919.43746  22582163.304    22582180.199
       224.000         171.000
  20592413.160   -25225494.96849 -19639652.91548  20592412.609    20592422.351
       241.000         213.000
  20811712.596   -26048959.17149 -20292420.84447  20811712.741    20811724.065
       240.000         207.000
 02  3 21  0  4  0.0000000  0  9G21G23G17G26G22G15G29G18G 6
  22806106.499   -12699921.61349  -9883840.44646  22806105.871    22806122.733
       227.000         177.000
  21744503.630   -17464272.43749 -13596055.48147  21744502.974    21744514.795
       237.000         197.000
  21050149.021   -21471854.06949 -16715489.53547  21050148.326    21050159.749
       240.000         205.000
  21967235.386   -15819267.19249 -12313175.91246  21967235.010    21967247.436
       229.000         184.000
  23697765.994    -5993636.02349  -4645668.23245  23697765.508    23697783.115
       217.000         158.000
  21211804.773   -23222907.98549 -18086309.53347  21211803.584    21211815.423
       238.000         199.000
  22564645.269   -11914610.52449  -9271656.62546  22564643.972    22564660.260
       224.000         171.000
  20587545.874   -25251072.39049 -19659583.30448  20587545.359    20587555.098
       241.000         213.000
  20821310.491   -25998522.07549 -20253119.28847  20821310.297    20821322.034
       241.000         207.000
 02  3 21  0  4 30.0000000  0  9G21G23G17G26G22G15G29G18G 6
  22794144.690   -12762780.28949  -9932821.01346  22794143.463    22794160.159
       227.000         177.000
  21757131.498   -17397912.61749 -13544346.58247  21757130.982    21757142.561
       237.000         197.000
  21047570.980   -21485401.54549 -16726045.98347  21047570.410    21047581.769
       241.000         205.000
  21971271.252   -15798057.85349 -12296649.13046  21971271.145    21971283.891
       231.000         185.000
  23698742.252    -5988506.02249  -4641670.83145  23698740.853    23698758.304
       216.000         158.000
  21206063.299   -23253078.87049 -18109819.23647  21206062.379    21206075.056
       240.000         200.000
  22547160.138   -12006493.98049  -9343253.80246  22547158.907    22547175.262
       222.000         171.000
  20582763.254   -25276204.82349 -19679166.95048  20582762.650    20582772.584
       242.000         213.000
  20830997.497   -25947616.71449 -20213452.85447  20830997.281    20831009.356
       242.000         207.000
 02  3 21  0  5  0.0000000  0  9G21G23G17G26G22G15G29G18G 6
  22782238.643   -12825345.94049  -9981573.25046  22782237.925    22782253.935
       228.000         177.000
  21769798.054   -17331349.49649 -13492479.25847  21769797.783    21769809.124
       237.000         197.000
  21045011.735   -21498850.21949 -16736525.43147  21045010.872    21045022.422
       240.000         205.000
  21975426.145   -15776223.99549 -12279635.70846  21975426.269    21975438.393
       231.000         185.000
  23699809.983    -5982895.19349  -4637298.77245  23699809.283    23699826.835
       217.000         157.000
  21200344.449   -23283131.69549 -18133236.94747  21200344.227    21200356.816
       241.000         201.000
  22529709.768   -12098194.50549  -9414708.43346  22529709.307    22529725.050
       225.000         171.000
  20578065.237   -25300892.66049 -19698404.15348  20578064.572    20578074.821
       242.000         213.000
  20840773.481   -25896243.61649 -20173421.94647  20840773.543    20840785.157
       241.000         207.000
 02  3 21  0  5 30.0000000  0  9G21G23G17G26G22G15G29G18G 6
  22770388.481   -12887618.29249 -10030096.95146  22770386.979    22770403.931
       227.000         177.000
  21782502.965   -17264585.06249 -13440455.06947  21782502.597    21782513.928
       236.000         197.000
  21042471.392   -21512199.64649 -16746927.54547  21042470.851    21042482.038
       240.000         205.000
  21979699.690   -15753765.91249 -12262135.90246  21979699.091    21979712.440
       230.000         184.000
  23700968.816    -5976804.62849  -4632552.86445  23700967.502    23700986.655
       214.000         155.000
  21194648.152   -23313066.34449 -18156562.57247  21194647.271    21194659.734
       239.000         202.000
  22512294.856   -12189709.19349  -9486018.24946  22512293.224    22512310.473
       224.000         172.000
  20573451.814   -25325136.00049 -19717294.99748  20573451.186    20573461.032
       241.000         213.000
  20850638.418   -25844403.41549 -20133027.06147  20850638.603    20850650.054
       241.000         207.000
 02  3 21  0  6  0.0000000  0  9G21G23G17G26G22G15G29G18G 6
  22758594.023   -12949597.65249 -10078392.34146  22758593.144    22758609.415
       229.000         178.000
  21795245.567   -17197622.26149 -13388276.30947  21795244.916    21795256.569
       238.000         197.000
  21039949.877   -21525450.15249 -16757252.57647  21039949.386    21039960.541
       242.000         205.000
  21984091.818   -15730684.69649 -12244150.51746  21984092.400    21984104.397
       232.000         185.000
  23702218.655    -5970236.07349  -4627434.52245  23702218.536    23702234.762
       218.000         155.000
  21188974.045   -23342883.29649 -18179796.48447  21188972.470    21188985.172
       239.000         200.000
  22494915.727   -12281035.48849  -9557181.28146  22494914.765    22494930.596
       225.000         172.000
  20568922.757   -25348936.00349 -19735840.38048  20568922.042    20568931.972
       242.000         213.000
  20860591.943   -25792097.62949 -20092269.38147  20860592.043    20860603.656
       242.000         206.000
 02  3 21  0  6 30.0000000  0  9G21G23G17G26G22G15G29G18G 6
  22746855.685   -13011282.35649 -10126458.14346  22746854.560    22746870.012
       228.000         178.000
  21808025.772   -17130462.20349 -13335943.84347  21808025.548    21808037.032
       236.000         197.000
  21037447.503   -21538600.22649 -16767499.35147  21037446.959    21037457.930
       240.000         205.000
  21988602.808   -15706979.60249 -12225679.00946  21988602.447    21988615.481
       230.000         185.000
  23703559.802    -5963189.41149  -4621943.64345  23703559.058    23703577.003
       217.000         157.000
  21183322.489   -23372581.08149 -18202937.54447  21183321.562    21183333.147
       239.000         200.000
  22477573.295   -12372169.52049  -9628194.51046  22477571.861    22477588.270
       224.000         172.000
  20564478.238   -25372291.91149 -19754039.71748  20564477.558    20564487.520
       241.000         213.000
  20870634.162   -25739325.75749 -20051148.51947  20870634.131    20870645.856
       240.000         206.000
 02  3 21  0  7  0.0000000  0  9G21G23G17G26G22G15G29G18G 6
  22735173.274   -13072673.01749 -10174294.81946  22735171.978    22735188.127
       228.000         178.000
  21820842.808   -17063108.43549 -13283460.43547  21820842.395    21820853.949
       237.000         196.000
  21034964.008   -21551650.92449 -16777668.69147  21034963.328    21034974.520
       241.000         205.000
  21993232.063   -15682652.39549 -12206722.74246  21993232.562    21993244.742
       232.000         185.000
  23704991.303    -5955667.29549  -4616082.27945  23704990.866    23705008.130
       216.000         159.000
  21177693.636   -23402160.93549 -18225986.71847  21177692.988    21177705.051
       240.000         200.000
  22460267.763   -12463109.44949  -9699056.47946  22460267.390    22460283.090
       225.000         173.000
  20560117.828   -25395205.76049 -19771894.59648  20560117.197    20560127.046
       242.000         213.000
  20880764.680   -25686089.88349 -20009666.09547  20880764.717    20880776.616
       241.000         206.000
 02  3 21  0  7 30.0000000  0  9G21G23G17G26G22G15G29G18G 6
  22723546.624   -13133770.18649 -10221902.80046  22723546.086    22723561.438
       229.000         178.000
  21833696.373   -16995562.90749 -13230827.60047  21833695.757    21833707.128
       236.000         196.000
  21032499.509   -21564601.83649 -16787760.27247  21032498.854    21032510.232
       240.000         205.000
  21997979.798   -15657703.47249 -12187282.00246  21997979.536    21997992.668
       230.000         185.000
  23706512.948    -5947670.66949  -4609851.15945  23706511.444    23706530.702
       215.000         158.000
  21172087.361   -23431622.48549 -18248943.70247  21172086.719    21172098.716
       240.000         201.000
  22442999.756   -12553852.45649  -9769765.01746  22442998.955    22443014.434
       224.000         173.000
  20555841.481   -25417677.80149 -19789405.20848  20555841.047    20555850.703
       241.000         213.000
  20890983.340   -25632390.77349 -19967822.71047  20890983.293    20890994.982
       240.000         206.000
 02  3 21  0  8  0.0000000  0  9G21G23G17G26G22G15G29G18G 6
  22711976.195   -13194572.72249 -10269281.20146  22711975.387    22711990.976
       230.000         178.000
  21846586.009   -16927827.44649 -13178046.76847  21846585.424    21846597.102
       235.000         196.000
  21030054.183   -21577452.05849 -16797773.40347  21030053.597    21030064.977
       240.000         205.000
  22002845.664   -15632132.75949 -12167356.77546  22002845.917    22002858.223
       230.000         184.000
  23708124.830    -5939200.23549  -4603250.84045  23708124.777    23708142.505
       215.000         158.000
  21166503.609   -23460965.12649 -18271808.03747  21166502.665    21166514.946
       239.000         201.000
  22425769.800   -12644394.99449  -9840317.34446  22425768.803    22425785.122
       224.000         174.000
  20551649.254   -25439707.97549 -19806571.50948  20551648.570    20551658.485
       241.000         213.000
  20901290.089   -25578228.73249 -19925618.60247  20901289.948    20901301.893
       240.000         206.000
 02  3 21  0  8 30.0000000  0  9G21G23G17G26G22G15G29G18G 6
  22700462.128   -13255078.80249 -10316428.61146  22700460.898    22700476.886
       229.000         178.000
  21859511.528   -16859903.46649 -13125119.04947  21859510.766    21859522.678
       236.000         195.000
  21027628.168   -21590200.47249 -16807707.20147  21027627.466    21027638.987
       240.000         205.000
  22007830.016   -15605940.27949 -12146947.04046  22007830.116    22007842.731
       231.000         185.000
  23709826.709    -5930256.59249  -4596281.78645  23709825.619    23709844.681
       214.000         158.000
  21160942.621   -23490187.81349 -18294578.90447  21160941.875    21160953.650
       240.000         201.000
  22408578.743   -12734733.16749  -9910710.43246  22408578.164    22408593.942
       224.000         174.000
  20547541.103   -25461296.16549 -19823393.41248  20547540.424    20547550.419
       242.000         213.000
  20911684.910   -25523603.75549 -19883053.76647  20911684.802    20911696.762
       240.000         205.000
 02  3 21  0  9  0.0000000  0  9G21G23G17G26G22G15G29G18G 6
  22689003.998   -13315290.73949 -10363346.79546  22689003.250    22689019.079
       229.000         178.000
  21872472.091   -16791795.40049 -13072047.87547  21872471.543    21872483.570
       235.000         195.000
  21025221.215   -21602849.07649 -16817563.21447  21025220.793    21025232.144
       241.000         205.000
  22012932.050   -15579128.67749 -12126054.87946  22012931.744    22012944.673
       230.000         184.000
  23711617.981    -5920843.03449  -4588946.56445  23711616.370    23711634.191
       217.000         157.000
  21155404.227   -23519292.48849 -18317257.81847  21155403.929    21155415.022
       241.000         201.000
  22391426.758   -12824866.22649  -9980943.70546  22391426.438    22391442.021
       225.000         174.000
  20543516.506   -25482445.15449 -19839873.07848  20543515.950    20543525.675
       241.000         213.000
  20922167.268   -25468518.89249 -19840130.57247  20922167.315    20922179.028
       240.000         205.000
 02  3 21  0  9 30.0000000  0  9G21G23G17G26G22G15G29G18G 6
  22677602.321   -13375206.16749 -10410033.95546  22677600.884    22677616.571
       230.000         179.000
  21885467.511   -16723503.80249 -13018833.69447  21885467.006    21885478.850
       235.000         195.000
  21022833.741   -21615395.46549 -16827339.59147  21022833.095    21022844.518
       241.000         205.000
  22018152.173   -15551696.75349 -12104679.35146  22018152.061    22018164.961
       230.000         184.000
  23713498.816    -5910959.04549  -4581244.79745  23713498.347    23713516.026
       216.000         156.000
  21149888.651   -23548277.15849 -18339843.22847  21149887.597    21149899.503
       240.000         201.000
  22374314.719   -12914789.72249 -10051013.67446  22374314.285    22374329.350
       225.000         175.000
  20539575.780   -25503153.58949 -19856009.45748  20539574.998    20539584.965
       242.000         213.000
  20932737.295   -25412973.33949 -19796848.40047  20932737.248    20932749.042
       240.000         205.000
 02  3 21  0 10  0.0000000  0  9G21G23G17G26G22G15G29G18G 6
  22666256.960   -13434825.73949 -10456490.57146  22666256.527    22666271.480
       231.000         179.000
  21898497.460   -16655031.03849 -12965478.34047  21898496.736    21898509.277
       235.000         194.000
  21020465.654   -21627839.57449 -16837036.26847  21020465.125    21020476.394
       241.000         206.000
  22023490.179   -15523645.34749 -12082821.09446  22023490.345    22023502.455
       229.000         184.000
  23715468.985    -5900606.17849  -4573177.66245  23715468.253    23715486.487
       216.000         158.000
  21144395.700   -23577141.92549 -18362335.19047  21144394.440    21144407.178
       239.000         201.000
  22357243.031   -13004500.80949 -10120918.13846  22357241.913    22357258.115
       225.000         175.000
  20535718.727   -25523422.22249 -19871803.13948  20535718.048    20535727.891
       241.000         213.000
  20943394.739   -25356968.34749 -19753208.22747  20943394.809    20943406.532
       241.000         205.000
 02  3 21  0 10 30.0000000  0  9G21G23G17G26G22G15G29G18G 6
  22654967.965   -13494149.34149 -10502716.56146  22654967.273    22654982.374
       230.000         179.000
  21911561.416   -16586379.47049 -12911983.67147  21911561.422    21911572.449
       235.000         195.000
  21018117.050   -21640181.50749 -16846653.32347  21018116.311    21018127.540
       240.000         206.000
  22028945.803   -15494975.60449 -12060481.02946  22028946.028    22028958.150
       230.000         184.000
  23717528.033    -5889786.04149  -4564746.39745  23717527.437    23717546.047
       215.000         158.000
  21138925.588   -23605886.88349 -18384733.80547  21138924.967    21138936.644
       240.000         202.000
  22340212.247   -13093996.95049 -10190655.11046  22340211.543    22340226.714
       225.000         176.000
  20531945.205   -25543252.00149 -19887254.85748  20531944.561    20531954.348
       241.000         213.000
  20954139.412   -25300505.10949 -19709210.97647  20954139.071    20954151.223
       241.000         205.000
 02  3 21  0 11  0.0000000  0  9G21G23G17G26G22G15G29G18G 6
  22643735.299   -13553176.55349 -10548711.58846  22643734.319    22643749.970
       230.000         180.000
  21924658.967   -16517551.39749 -12858351.45547  21924658.575    21924670.567
       235.000         194.000
  21015787.928   -21652420.74549 -16856190.35447  21015787.163    21015798.626
       240.000         206.000
  22034518.994   -15465688.12049 -12037659.57946  22034519.050    22034531.539
       229.000         183.000
  23719675.636    -5878500.02449  -4555952.11745  23719675.121    23719693.737
       215.000         158.000
  21133478.473   -23634511.72349 -18407038.82347  21133477.708    21133489.366
       240.000         202.000
  22323223.018   -13183275.08349 -10260222.21646  22323222.215    22323237.364
       225.000         176.000
  20528255.029   -25562643.58049 -19902365.11948  20528254.355    20528264.237
       241.000         213.000
  20964971.075   -25243584.51849 -19664857.34647  20964971.172    20964982.825
       241.000         205.000
 02  3 21  0 11 30.0000000  0  9G21G23G17G26G22G15G29G18G 6
  22632559.141   -13611906.96049 -10594475.35746  22632557.696    22632573.843
       228.000         180.000
  21937789.820   -16448548.76449 -12804583.22447  21937790.114    21937801.290
       236.000         194.000
  21013478.516   -21664556.70949 -16865646.92047  21013477.982    21013489.254
       240.000         206.000
  22040209.576   -15435783.38849 -12014357.18546  22040209.770    22040222.702
       229.000         184.000
  23721911.767    -5866749.24949  -4546795.69345  23721910.673    23721930.290
       216.000         157.000
  21128054.320   -23663015.90549 -18429249.82647  21128053.653    21128065.640
       240.000         202.000
  22306275.818   -13272332.11749 -10329617.03246  22306275.397    22306291.106
       226.000         177.000
  20524648.183   -25581597.46849 -19917134.32948  20524647.792    20524657.752
       241.000         213.000
  20975889.642   -25186207.28549 -19620147.89747  20975889.704    20975901.635
       241.000         204.000
 02  3 21  0 12  0.0000000  0  9G21G23G17G26G22G15G29G18G 6
  22621439.341   -13670340.92549 -10640008.10946  22621438.754    22621454.033
       230.000         180.000
  21950953.305   -16379374.20249 -12750681.01747  21950953.371    21950964.964
       235.000         194.000
  21011188.709   -21676589.39249 -16875023.00447  21011188.047    21011199.522
       240.000         205.000
  22046017.453   -15405262.72449 -11990574.82246  22046017.290    22046029.942
       228.000         183.000
  23724236.027    -5854535.43849  -4537278.45745  23724235.084    23724254.041
       215.000         158.000
  21122653.023   -23691399.69849 -18451367.00047  21122652.352    21122664.323
       240.000         202.000
  22289371.206   -13361165.67849 -10398837.70546  22289370.490    22289386.083
       226.000         177.000
  20521124.421   -25600114.67049 -19931563.25348  20521123.672    20521133.526
       241.000         213.000
  20986894.875   -25128374.87049 -19575083.75447  20986895.085    20986906.668
       241.000         204.000
 02  3 21  0 12 30.0000000  0  9G21G23G17G26G22G15G29G18G 6
  22610376.144   -13728477.53049 -10685309.16846  22610375.453    22610390.270
       232.000         180.000
  21964149.255   -16310029.36649 -12696646.12847  21964149.336    21964161.290
       235.000         194.000
  21008918.763   -21688517.84249 -16884317.87547  21008918.378    21008929.558
       241.000         205.000
  22051942.457   -15374126.20549 -11966312.58046  22051942.508    22051955.299
       229.000         183.000
  23726648.219    -5841859.44849  -4527401.08145  23726647.963    23726666.052
       214.000         158.000
  21117274.915   -23719662.22149 -18473389.68847  21117274.345    21117286.108
       242.000         203.000
  22272509.722   -13449772.04549 -10467881.36346  22272508.903    22272524.134
       227.000         178.000
  20517683.798   -25618195.09449 -19945651.84248  20517683.044    20517693.013
       241.000         213.000
  20997986.604   -25070087.67849 -19529665.24947  20997986.746    20997998.701
       241.000         204.000
 02  3 21  0 13  0.0000000  0  9G21G23G17G26G22G15G29G18G 6
  22599369.584   -13786316.56649 -10730378.35146  22599368.363    22599384.011
       231.000         180.000
  21977377.148   -16240516.37949 -12642480.21647  21977376.779    21977388.343
       235.000         193.000
  21006668.732   -21700341.67549 -16893531.22247  21006668.286    21006679.497
       241.000         205.000
  22057984.405   -15342374.79349 -11941571.20246  22057985.185    22057997.896
       230.000         183.000
  23729147.928    -5828722.75549  -4517164.69845  23729147.243    23729165.182
       215.000         157.000
  21111919.823   -23747803.04249 -18495317.54247  21111919.093    21111930.227
       241.000         202.000
  22255692.066   -13538148.32849 -10536745.71646  22255691.146    22255706.413
       227.000         178.000
  20514326.079   -25635839.53649 -19959400.70048  20514325.578    20514335.353
       241.000         213.000
  21009164.706   -25011346.76249 -19483893.18347  21009164.868    21009176.780
       241.000         204.000
 02  3 21  0 13 30.0000000  0  9G21G23G17G26G22G15G29G18G 6
  22588419.565   -13843858.31649 -10775215.87446  22588418.803    22588433.789
       231.000         180.000
  21990636.601   -16170837.76349 -12588185.23547  21990636.389    21990647.789
       235.000         193.000
  21004438.576   -21712060.90749 -16902663.05147  21004437.710    21004449.361
       241.000         205.000
  22064143.441   -15310009.81049 -11916351.69446  22064142.652    22064155.852
       229.000         183.000
  23731735.126    -5815127.09549  -4506570.69345  23731734.992    23731751.843
       217.000         157.000
  21106587.816   -23775822.39549 -18517150.74547  21106586.924    21106598.650
       241.000         202.000
  22238918.544   -13626292.21549 -10605428.99446  22238918.507    22238933.095
       227.000         179.000
  20511051.134   -25653049.28849 -19972810.83448  20511050.465    20511060.128
       241.000         213.000
  21020428.808   -24952153.65549 -19437768.76347  21020428.910    21020440.873
       241.000         204.000
 02  3 21  0 14  0.0000000  0  9G21G23G17G26G22G15G29G18G 6
  22577526.406   -13901101.69549 -10819820.91646  22577525.694    22577540.818
       231.000         181.000
  22003927.310   -16100994.97549 -12533762.33147  22003926.489    22003938.617
       234.000         193.000
  21002228.519   -21723674.40349 -16911712.50547  21002227.940    21002239.652
       241.000         205.000
  22070418.942   -15277031.23249 -11890654.09046  22070419.556    22070432.068
       229.000         183.000
  23734409.568    -5801073.33149  -4495619.73445  23734409.170    23734427.741
       216.000         158.000
  21101279.107   -23803719.65049 -18538888.80747  21101278.049    21101290.172
       241.000         202.000
  22222190.055   -13714199.91049 -10673928.22546  22222189.578    22222204.980
       227.000         179.000
  20507858.886   -25669824.35649 -19985882.26248  20507858.215    20507868.038
       241.000         213.000
  21031778.939   -24892508.65849 -19391292.22447  21031778.962    21031790.815
       240.000         203.000
 02  3 21  0 14 30.0000000  0  9G21G23G17G26G22G15G29G18G 6
  22566689.637   -13958048.60749 -10864194.94046  22566688.736    22566703.853
       232.000         181.000
  22017248.407   -16030992.17049 -12479214.73547  22017248.126    22017259.941
       235.000         193.000
  21000038.368   -21735183.69749 -16920680.75547  21000037.896    21000049.142
       240.000         205.000
  22076810.669   -15243442.04249 -11864480.69146  22076810.982    22076823.272
       229.000         183.000
  23737170.477    -5786564.85049  -4484314.43745  23737170.199    23737188.066
       217.000         159.000
  21095993.289   -23831496.29549 -18560532.88847  21095992.019    21096004.262
       240.000         202.000
  22205506.729   -13801870.69849 -10742242.86046  22205505.678    22205521.093
       226.000         179.000
  20504748.905   -25686167.20649 -19998616.89448  20504748.438    20504758.195
       241.000         213.000
  21043214.457   -24832414.84449 -19344465.95647  21043214.606    21043226.486
       241.000         203.000
 02  3 21  0 15  0.0000000  0  9G21G23G17G26G22G15G29G18G 6
  22555909.652   -14014697.02449 -10908336.36746  22555908.619    22555924.081
       231.000         182.000
  22030600.024   -15960829.22849 -12424542.35947  22030599.054    22030611.471
       233.000         193.000
  20997868.578   -21746585.94049 -16929565.58647  20997867.879    20997879.361
       241.000         205.000
  22083319.052   -15209240.94349 -11837830.45246  22083317.977    22083331.921
       227.000         183.000
  23740018.108    -5771600.83749  -4472654.17845  23740017.508    23740036.164
       216.000         160.000
  21090730.860   -23859149.82449 -18582081.03147  21090729.882    21090741.761
       241.000         202.000
  22188869.393   -13889299.23449 -10810368.71746  22188868.696    22188883.381
       227.000         179.000
  20501721.474   -25702076.39949 -20011013.61148  20501720.834    20501730.594
       240.000         213.000
  21054735.636   -24771871.10849 -19297289.10047  21054735.600    21054747.513
       240.000         203.000
 02  3 21  0 15 30.0000000  0  9G21G23G17G26G22G15G29G18G 6
  22545186.543   -14071046.78149 -10952245.10046  22545185.913    22545200.888
       232.000         182.000
  22043981.606   -15890508.42749 -12369746.98547  22043981.279    22043993.321
       233.000         192.000
  20995719.155   -21757880.99449 -16938366.89747  20995718.457    20995729.988
       240.000         205.000
  22089943.432   -15174429.01149 -11810704.26646  22089943.900    22089956.091
       230.000         183.000
  23742952.059    -5756183.00049  -4460640.30845  23742951.727    23742968.673
       217.000         160.000
  21085492.032   -23886680.09849 -18603533.13347  21085491.158    21085503.322
       240.000         202.000
  22172278.673   -13976482.84349 -10878303.74146  22172278.151    22172293.035
       226.000         179.000
  20498776.347   -25717552.86649 -20023073.14148  20498775.853    20498785.303
       241.000         213.000
  21066342.161   -24710878.69649 -19249762.63547  21066342.275    21066354.105
       240.000         203.000
 02  3 21  0 16  0.0000000  0  9G21G23G17G26G22G15G29G18G 6
  22534519.899   -14127099.54849 -10995922.38646  22534518.907    22534534.634
       232.000         182.000
  22057392.580   -15820033.60049 -12314831.58147  22057392.585    22057404.345
       234.000         192.000
  20993589.900   -21769070.02349 -16947085.58947  20993589.271    20993600.813
       241.000         205.000
  22096683.825   -15139009.03149 -11783104.26946  22096683.834    22096696.951
       228.000         183.000
  23745971.740    -5740314.60949  -4448275.35545  23745971.956    23745989.107
       217.000         160.000
  21080276.308   -23914088.50649 -18624890.26247  21080275.699    21080287.349
       241.000         202.000
  22155734.814   -14063420.39549 -10946047.02346  22155733.805    22155749.507
       226.000         179.000
  20495913.061   -25732599.16849 -20034797.47648  20495912.535    20495922.284
       241.000         213.000
  21078033.521   -24649440.27749 -19201888.62847  21078033.551    21078045.756
       240.000         203.000
 02  3 21  0 16 30.0000000  0  9G21G23G17G26G22G15G29G18G 6
  22523909.950   -14182854.27249 -11039367.43346  22523909.252    22523923.924
       232.000         183.000
  22070832.552   -15749406.02049 -12259797.15647  22070831.951    22070843.713
       233.000         192.000
  20991481.143   -21780151.57649 -16955720.53347  20991480.590    20991491.990
       242.000         206.000
  22103539.764   -15102980.92049 -11755030.41446  22103539.728    22103551.990
       230.000         183.000
  23749077.068    -5723996.11249  -4435559.67945  23749076.846    23749094.868
       218.000         160.000
  21075084.041   -23941373.72449 -18646151.40247  21075083.323    21075094.682
       241.000         202.000
  22139238.552   -14150107.86349 -11013595.43846  22139237.845    22139252.517
       227.000         180.000
  20493131.728   -25747214.94349 -20046186.32948  20493131.091    20493140.883
       241.000         213.000
  21089809.761   -24587556.11049 -19153667.28647  21089809.848    21089821.906
       240.000         202.000
 02  3 21  0 17  0.0000000  0  9G21G23G17G26G22G15G29G18G 6
  22513357.024   -14238309.58849 -11082579.19146  22513356.078    22513370.983
       232.000         183.000
  22084301.373   -15678626.79649 -12204644.56547  22084301.626    22084312.696
       235.000         191.000
  20989393.165   -21791124.24649 -16964270.64247  20989393.016    20989404.030
       242.000         206.000
  22110511.402   -15066344.92149 -11726482.88046  22110510.952    22110523.482
       230.000         183.000
  23752267.881    -5707228.25249  -4422493.84545  23752267.447    23752285.291
       214.000         159.000
  21069915.546   -23968534.35849 -18667315.47547  21069914.632    21069926.322
       241.000         202.000
  22122790.574   -14236541.47649 -11080946.04946  22122789.402    22122804.239
       228.000         180.000
  20490432.307   -25761400.13849 -20057239.67548  20490431.909    20490441.423
       241.000         213.000
  21101670.754   -24525226.36349 -19105098.74847  21101670.867    21101682.949
       240.000         202.000
 02  3 21  0 17 30.0000000  0  9G21G23G17G26G22G15G29G18G 6
  22502860.852   -14293466.40849 -11125558.34246  22502860.104    22502874.771
       232.000         183.000
  22097798.503   -15607699.30949 -12149376.43747  22097798.313    22097810.015
       234.000         191.000
  20987325.739   -21801988.88649 -16972736.55647  20987325.317    20987336.463
       241.000         206.000
  22117598.203   -15029103.20549 -11697463.35346  22117598.345    22117611.375
       229.000         183.000
  23755543.516    -5690013.91549  -4409080.11345  23755542.350    23755560.346
       213.000         155.000
  21064770.504   -23995571.30849 -18688383.15847  21064769.803    21064781.551
       241.000         202.000
  22106391.206   -14322719.81449 -11148097.73146  22106390.364    22106405.470
       226.000         180.000
  20487814.508   -25775156.73049 -20067959.03548  20487813.972    20487823.524
       241.000         214.000
  21113616.140   -24462453.56749 -19056184.96447  21113616.218    21113628.299
       240.000         202.000
 02  3 21  0 18  0.0000000  0  9G21G23G17G26G22G15G29G18G 6
  22492421.633   -14348324.23249 -11168304.50846  22492420.701    22492435.457
       234.000         184.000
  22111323.598   -15536624.64649 -12093993.63547  22111323.569    22111335.209
       235.000         191.000
  20985279.163   -21812743.84549 -16981117.01447  20985278.814    20985289.764
       243.000         206.000
  22124800.324   -14991255.93749 -11667971.98446  22124800.529    22124811.774
       231.000         182.000
  23758903.951    -5672353.49649  -4395318.80945  23758904.223    23758921.655
       217.000         154.000
  21059649.273   -24022483.12749 -18709353.33647  21059648.599    21059660.175
       243.000         202.000
  22090041.152   -14408638.57349 -11215047.14746  22090040.613    22090055.374
       229.000         181.000
  20485278.225   -25788484.57749 -20078344.30848  20485277.577    20485287.409
       242.000         213.000
  21125645.770   -24399237.81749 -19006926.03547  21125646.020    21125658.108
       241.000         202.000
 02  3 21  0 18 30.0000000  0  9G21G23G17G26G22G15G29G18G 6
  22482039.161   -14402883.74849 -11210818.23346  22482038.559    22482052.983
       232.000         184.000
  22124876.177   -15465405.70649 -12038498.40947  22124876.047    22124887.504
       234.000         191.000
  20983253.392   -21823389.35149 -16989412.18347  20983252.936    20983263.866
       241.000         206.000
  22132117.323   -14952804.85449 -11638010.10046  22132117.294    22132130.309
       228.000         182.000
  23762349.282    -5654249.38649  -4381211.79245  23762349.558    23762367.663
       216.000         157.000
  21054551.831   -24049270.14449 -18730226.26647  21054550.988    21054562.944
       240.000         202.000
  22073740.937   -14494295.80549 -11281792.78146  22073740.028    22073755.242
       228.000         181.000
  20482823.264   -25801385.14249 -20088396.63948  20482822.847    20482832.323
       241.000         213.000
  21137759.301   -24335581.06849 -18957323.47247  21137759.494    21137771.579
       239.000         202.000
 02  3 21  0 19  0.0000000  0  9G21G23G17G26G22G15G29G18G 6
  22471713.403   -14457145.30749 -11253099.77946  22471712.837    22471727.103
       232.000         184.000
  22138455.710   -15394044.75149 -11982892.51847  22138455.626    22138466.999
       234.000         191.000
  20981248.404   -21833925.11349 -16997621.83747  20981247.954    20981259.153
       242.000         206.000
  22139548.908   -14913751.38249 -11607578.83446  22139549.659    22139561.802
       229.000         182.000
  23765878.478    -5635703.43149  -4366760.43945  23765877.006    23765896.916
       214.000         158.000
  21049478.103   -24075932.66449 -18751002.18847  21049477.630    21049488.769
       241.000         203.000
  22057490.979   -14579688.86849 -11348332.55746  22057489.658    22057504.737
       228.000         181.000
  20480449.428   -25813859.50649 -20098116.85548  20480448.880    20480458.573
       241.000         213.000
  21149956.445   -24271484.69549 -18907378.33947  21149956.400    21149968.639
       239.000         201.000
 02  3 21  0 19 30.0000000  0  9G21G23G17G26G22G15G29G18G 6
  22461444.401   -14511108.29049 -11295148.66846  22461443.746    22461458.311
       233.000         184.000
  22152061.948   -15322543.81849 -11927177.55047  22152061.977    22152073.427
       234.000         191.000
  20979264.549   -21844350.49249 -17005745.47747  20979264.168    20979275.091
       242.000         206.000
  22147094.896   -14874096.68549 -11576679.07846  22147095.375    22147107.963
       230.000         181.000
  23769491.295    -5616717.21049  -4351966.01645  23769489.955    23769509.335
       216.000         157.000
  21044428.125   -24102470.13349 -18771680.66247  21044427.236    21044439.342
       242.000         203.000
  22041291.831   -14664814.67149 -11414664.09446  22041291.451    22041305.913
       229.000         182.000
  20478156.494   -25825908.49849 -20107505.61248  20478156.068    20478165.670
       241.000         213.000
  21162236.986   -24206950.05949 -18857091.70547  21162237.248    21162249.522
       240.000         201.000
 02  3 21  0 20  0.0000000  0  9G21G23G17G26G22G15G29G18G 6
  22451232.503   -14564771.52449 -11336963.99346  22451231.586    22451246.419
       232.000         184.000
  22165694.727   -15250903.28749 -11871353.81847  22165694.589    22165705.751
       234.000         191.000
  20977302.075   -21854663.27049 -17013781.37247  20977301.636    20977312.460
       242.000         206.000
  22154755.428   -14833840.38049 -11545310.54246  22154755.252    22154767.389
       227.000         180.000
  23773188.158    -5597290.71149  -4336828.59945  23773188.554    23773204.478
       219.000         157.000
  21039402.345   -24128880.30249 -18792259.94547  21039401.306    21039413.105
       240.000         203.000
  22025144.440   -14749668.92249 -11480784.03046  22025143.700    22025157.925
       228.000         182.000
  20475944.694   -25837531.25749 -20116562.24748  20475944.199    20475953.778
       240.000         214.000
  21174601.077   -24141976.59449 -18806463.12747  21174601.229    21174613.651
       239.000         201.000
 02  3 21  0 20 30.0000000  0  9G21G23G17G26G22G15G29G18G 6
  22441077.165   -14618136.82949 -11378547.15746  22441075.936    22441091.236
       232.000         184.000
  22179353.253   -15179127.52949 -11815424.70247  22179353.013    22179365.066
       233.000         190.000
  20975360.673   -21864865.43949 -17021731.07247  20975360.030    20975371.379
       242.000         206.000
  22162529.738   -14792985.85149 -11513475.85146  22162530.070    22162543.128
       227.000         181.000
  23776968.213    -5577427.92749  -4321351.20945  23776968.098    23776985.833
       218.000         157.000
  21034400.362   -24155165.33749 -18812741.71647  21034399.718    21034411.135
       241.000         203.000
  22009048.744   -14834250.96849 -11546691.85246  22009047.873    22009062.147
       228.000         182.000
  20473813.347   -25848731.29749 -20125289.48148  20473812.884    20473822.235
       241.000         214.000
  21187048.065   -24076567.90249 -18755495.41247  21187048.522    21187060.557
       240.000         201.000
 02  3 21  0 21  0.0000000  0  9G21G23G17G26G22G15G29G18G 6
  22430978.688   -14671203.87649 -11419897.92046  22430978.387    22430992.357
       233.000         185.000
  22193037.269   -15107217.79449 -11759391.18947  22193036.441    22193048.999
       233.000         190.000
  20973440.544   -21874955.46949 -17029593.40347  20973439.860    20973451.232
       241.000         206.000
  22170417.749   -14751533.68849 -11481175.49146  22170418.059    22170431.292
       228.000         181.000
  23780830.876    -5557129.82449  -4305534.56745  23780829.215    23780848.900
       213.000         159.000
  21029422.465   -24181324.11849 -18833125.11147  21029421.544    21029433.346
       241.000         203.000
  21993005.622   -14918557.21549 -11612384.76746  21993004.660    21993019.214
       228.000         182.000
  20471762.499   -25859508.46549 -20133687.21648  20471762.184    20471771.674
       240.000         214.000
  21199577.731   -24010724.55549 -18704189.00947  21199577.748    21199590.187
       238.000         200.000
 02  3 21  0 21 30.0000000  0  9G21G23G17G26G22G15G29G18G 6
  22420937.225   -14723971.67249 -11461015.50146  22420936.509    22420951.732
       233.000         185.000
  22206746.450   -15035175.47349 -11703254.36447  22206746.070    22206758.558
       232.000         190.000
  20971541.951   -21884932.36349 -17037367.56947  20971541.454    20971552.408
       241.000         206.000
  22178419.422   -14709484.59149 -11448409.97046  22178418.980    22178431.989
       226.000         180.000
  23784775.904    -5536397.65449  -4289379.67545  23784775.053    23784794.485
       212.000         159.000
  21024468.807   -24207355.34249 -18853409.10847  21024468.104    21024479.707
       241.000         203.000
  21977015.599   -15002584.20249 -11677860.07946  21977015.109    21977029.310
       228.000         183.000
  20469792.026   -25869863.04649 -20141755.65848  20469791.558    20469801.218
       240.000         214.000
  21212189.891   -23944447.38249 -18652544.55447  21212189.687    21212202.365
       237.000         200.000
 02  3 21  0 22  0.0000000  0  8G21G23G17G26G22G29G18G 6
  22410952.626   -14776440.35949 -11501900.00646  22410951.591    22410965.908
       232.000         185.000
  22220480.484   -14963002.89349 -11647016.03647  22220480.312    22220491.754
       233.000         190.000
  20969664.944   -21894795.60449 -17045053.17447  20969664.214    20969675.233
       242.000         206.000
  22186534.458   -14666839.91449 -11415180.34646  22186535.261    22186547.907
       228.000         181.000
  23788803.427    -5515233.14749  -4272887.91245  23788802.585    23788822.145
       213.000         158.000
  21961079.228   -15086329.23249 -11743115.68946  21961078.472    21961092.440
       230.000         183.000
  20467901.754   -25879796.37549 -20149495.85448  20467901.187    20467910.727
       241.000         214.000
  21224884.367   -23877737.80049 -18600563.15747  21224884.458    21224896.600
       238.000         200.000
 02  3 21  0 22 30.0000000  0  8G21G23G17G26G22G29G18G 6
  22401024.958   -14828609.52949 -11542551.12746  22401024.024    22401038.565
       234.000         186.000
  22234238.994   -14890701.35949 -11590677.22747  22234239.197    22234250.752
       234.000         189.000
  20967809.837   -21904543.98049 -17052649.26847  20967809.338    20967820.364
       241.000         206.000
  22194762.628   -14623600.37749 -11381487.21946  22194762.735    22194776.306
       227.000         181.000
  23792912.973    -5493637.36149  -4256060.10745  23792913.069    23792929.605
       215.000         157.000
  21945197.232   -15169788.60149 -11808148.70146  21945196.607    21945210.887
       229.000         184.000
  20466091.579   -25889308.52549 -20156907.85948  20466091.040    20466100.289
       241.000         214.000
  21237661.000   -23810596.27049 -18548245.18347  21237661.193    21237673.386
       238.000         199.000
 02  3 21  0 23  0.0000000  0  9G21G23G17G26G22G15G29G18G 6
  22391154.214   -14880480.17749 -11582969.63746  22391152.817    22391167.772
       233.000         186.000
  22248021.562   -14818274.12049 -11534240.46447  22248021.465    22248033.459
       233.000         189.000
  20965976.532   -21914177.98149 -17060156.25147  20965976.107    20965987.206
       241.000         206.000
  22203103.626   -14579768.36349 -11347332.40946  22203104.071    22203115.966
       227.000         180.000
  23797104.217    -5471613.17149  -4238898.49545  23797103.178    23797121.337
       214.000         155.000
                   -549254.47149   -424970.46347                  21009764.929
       241.000         189.000
  21929369.938   -15252960.83249 -11872957.97246  21929369.513    21929383.227
       229.000         184.000
  20464361.187   -25898401.57049 -20163993.29648  20464360.668    20464370.033
       241.000         214.000
  21250519.440   -23743025.35249 -18495592.62647  21250519.531    21250532.131
       237.000         199.000
 02  3 21  0 23 30.0000000  0  9G21G23G17G26G22G15G29G18G 6
  22381340.122   -14932052.68849 -11623155.83746  22381339.411    22381354.031
       232.000         186.000
  22261827.581   -14745723.51249 -11477707.58347  22261826.458    22261838.591
       231.000         189.000
  20964164.993   -21923697.30049 -17067573.86247  20964164.221    20964175.624
       240.000         206.000
  22211556.929   -14535345.70549 -11312717.35246  22211557.409    22211570.658
       227.000         180.000
  23801376.261    -5449162.78349  -4221404.76445  23801375.461    23801393.895
       214.000         153.000
                   -553856.51649   -428568.58646                  21004908.867
       241.000         163.000
  21913597.655   -15335843.45949 -11937541.59246  21913596.863    21913610.609
       228.000         185.000
  20462710.331   -25907076.77049 -20170753.14148  20462709.771    20462719.027
       240.000         214.000
  21263459.197   -23675026.79949 -18442606.85047  21263459.233    21263471.916
       237.000         199.000
 02  3 21  0 24  0.0000000  0  9G21G23G17G26G22G15G29G18G 6
  22371582.810   -14983327.16949 -11663109.80046  22371581.556    22371596.606
       232.000         187.000
  22275656.688   -14673051.49049 -11421080.06847  22275655.914    22275668.328
       233.000         189.000
  20962375.373   -21933101.26549 -17074901.59247  20962374.580    20962385.930
       241.000         206.000
  22220122.474   -14490333.50949 -11277642.92846  22220122.269    22220135.305
       227.000         180.000
  23805729.197    -5426287.70549  -4203580.08845  23805727.368    23805747.894
       212.000         154.000
  21000066.587     -579245.99349   -448352.51747  21000065.927    21000077.705
       242.000         199.000
  21897881.140   -15418433.19749 -12001896.97946  21897880.723    21897894.797
       230.000         185.000
  20461138.816   -25915334.93149 -20177188.01948  20461138.319    20461147.695
       241.000         214.000
  21276480.083   -23606601.88349 -18389288.83747  21276480.119    21276492.554
       237.000         199.000
 02  3 21  0 24 30.0000000  0  9G21G23G17G26G22G15G29G18G 6
  22361882.214   -15034303.41149 -11702831.37746  22361881.592    22361895.958
       234.000         187.000
  22289508.571   -14600259.71149 -11364359.24347  22289507.885    22289519.983
       233.000         189.000
  20960608.031   -21942388.87649 -17082138.65547  20960607.393    20960618.515
       241.000         206.000
  22228799.924   -14444733.09649 -11242110.13846  22228800.871    22228813.070
       228.000         180.000
  23810162.763    -5402989.52649  -4185425.72645  23810163.187    23810182.196
       216.000         158.000
  20995259.827     -604506.09149   -468035.64247  20995259.055    20995270.622
       241.000         202.000
  21882220.965   -15500727.33849 -12066022.04346  21882220.014    21882233.695
       230.000         185.000
  20459646.445   -25923177.03749 -20183298.69948  20459645.892    20459655.352
       241.000         214.000
  21289581.903   -23537751.80349 -18335639.53047  21289582.009    21289594.813
       238.000         199.000
 02  3 21  0 25  0.0000000  0  9G21G23G17G26G22G15G29G18G 6
  22352238.310   -15084981.88549 -11742320.93646  22352237.328    22352251.679
       233.000         187.000
  22303382.598   -14527351.14049 -11307547.42547  22303382.490    22303394.750
       232.000         189.000
  20958862.655   -21951560.54049 -17089285.37747  20958862.122    20958873.066
       240.000         206.000
  22237588.883   -14398546.70349 -11206120.74246  22237588.808    22237601.565
       227.000         179.000
  23814676.611    -5379270.97549  -4166943.82145  23814676.742    23814695.353
       217.000         161.000
  20990477.258     -629637.01649   -487618.11547  20990476.825    20990488.258
       241.000         203.000
  21866617.385   -15582723.73449 -12129915.10046  21866616.446    21866630.542
       229.000         186.000
  20458232.984   -25930604.62049 -20189086.38148  20458232.520    20458241.930
       240.000         214.000
  21302764.186   -23468478.80349 -18281660.68247  21302764.393    21302777.082
       237.000         199.000
 02  3 21  0 25 30.0000000  0  9G21G23G17G26G22G15G29G18G 6
  22342651.144   -15135361.88749 -11781577.91646  22342650.355    22342664.829
       232.000         187.000
  22317278.636   -14454326.69449 -11250645.32347  22317279.009    22317290.491
       232.000         188.000
  20957139.705   -21960614.50249 -17096340.38147  20957139.274    20957150.450
       241.000         206.000
  22246489.333   -14351774.81849 -11169675.12946  22246489.496    22246502.695
       226.000         180.000
  23819270.191    -5355132.91649  -4148135.02545  23819270.072    23819287.935
       216.000         161.000
  20985719.951     -654637.20649   -507098.72247  20985719.149    20985730.860
       241.000         203.000
  21851071.180   -15664418.51549 -12193573.13046  21851070.079    21851084.402
       229.000         186.000
  20456898.345   -25937617.93449 -20194551.25148  20456897.754    20456907.346
       240.000         214.000
  21316026.867   -23398783.31849 -18227352.62547  21316027.271    21316039.696
       237.000         198.000
 02  3 21  0 26  0.0000000  0  9G21G23G17G26G22G15G29G18G 6
  22333120.580   -15185444.72249 -11820603.33546  22333119.443    22333133.905
       232.000         187.000
  22331196.295   -14381189.39749 -11193655.25446  22331195.855    22331207.545
       232.000         187.000
  20955439.103   -21969551.17649 -17103303.99047  20955438.522    20955449.575
       241.000         206.000
  22255500.631   -14304419.87849 -11132775.15446  22255501.317    22255512.399
       229.000         179.000
  23823942.906    -5330578.14849  -4129001.51245  23823942.038    23823960.120
       214.000         158.000
  20980987.354     -679507.32149   -526477.96747  20980986.895    20980998.287
       242.000         204.000
  21835582.663   -15745809.91549 -12256994.76846  21835582.351    21835595.764
       231.000         186.000
  20455642.150   -25944218.84249 -20199694.76548  20455641.564    20455650.991
       241.000         214.000
  21329369.524   -23328667.79349 -18172717.25747  21329369.715    21329382.265
       237.000         198.000
 02  3 21  0 26 30.0000000  0  9G21G23G17G26G22G15G29G18G 6
  22323646.797   -15235229.11249 -11859396.20346  22323646.151    22323659.871
       231.000         187.000
  22345135.251   -14307939.65349 -11136577.57846  22345134.136    22345147.111
       230.000         187.000
  20953761.224   -21978368.42049 -17110174.54047  20953760.463    20953771.999
       241.000         206.000
  22264622.974   -14256481.92849 -11095420.91946  22264622.053    22264635.620
       225.000         179.000
  23828694.557    -5305606.98649  -4109543.53645  23828692.759    23828712.497
       213.000         156.000
  20976279.919     -704245.34849   -545754.28647  20976279.104    20976290.698
       241.000         204.000
  21820152.754   -15826893.60149 -12320176.63046  21820152.153    21820165.361
       229.000         186.000
  20454464.570   -25950406.85349 -20204516.54448  20454463.919    20454473.542
       240.000         214.000
  21342792.086   -23258132.09049 -18117754.47947  21342792.082    21342804.956
       236.000         198.000
 02  3 21  0 27  0.0000000  0  9G21G23G17G26G22G15G29G18G 6
  22314229.843   -15284714.53149 -11897956.11846  22314229.191    22314243.347
       232.000         187.000
  22359095.296   -14234579.05749 -11079413.52546  22359095.440    22359107.466
       232.000         187.000
  20952106.282   -21987065.13249 -17116951.17647  20952105.849    20952116.892
       241.000         206.000
  22273856.034   -14207962.22249 -11057613.34346  22273855.151    22273869.312
       227.000         180.000
  23833525.230    -5280220.96349  -4089762.28145  23833524.724    23833543.584
       215.000         156.000
  20971597.705     -728850.36149   -564926.96247  20971596.946    20971608.437
       241.000         204.000
  21804782.036   -15907666.39249 -12383116.24346  21804781.464    21804795.036
       230.000         187.000
  20453365.422   -25956182.68649 -20209017.14648  20453365.030    20453374.345
       240.000         214.000
  21356294.362   -23187177.43349 -18062465.25647  21356294.645    21356306.776
       237.000         198.000
 02  3 21  0 27 30.0000000  0  9G21G23G17G26G22G15G29G18G 6
  22304869.617   -15333902.12749 -11936283.95546  22304869.040    22304883.267
       232.000         187.000
  22373075.885   -14161110.84349 -11022165.62546  22373076.052    22373087.789
       233.000         187.000
  20950474.175   -21995641.92649 -17123634.36747  20950473.749    20950484.756
       241.000         206.000
  22283199.075   -14158863.52149 -11019354.61646  22283199.832    22283211.158
       229.000         179.000
  23838434.481    -5254423.38449  -4069660.33145  23838434.485    23838452.619
       216.000         158.000
  20966940.676     -753323.23149   -583996.66847  20966939.910    20966951.420
       241.000         204.000
  21789470.730   -15988126.88749 -12445812.50046  21789469.924    21789483.424
       231.000         187.000
  20452344.267   -25961548.62649 -20213198.34848  20452343.787    20452353.081
       240.000         214.000
  21369875.870   -23115806.52849 -18006851.67447  21369875.723    21369888.875
       236.000         197.000
 02  3 21  0 28  0.0000000  0  9G21G23G17G26G22G15G29G18G 6
  22295566.014   -15382792.32249 -11974380.06046  22295564.922    22295579.359
       232.000         187.000
  22387076.563   -14087536.87049 -10964835.31046  22387076.210    22387088.649
       232.000         186.000
  20948865.001   -22004098.17949 -17130223.62647  20948864.343    20948875.566
       241.000         206.000
  22292652.119   -14109187.43949 -10980645.98246  22292652.977    22292665.820
       228.000         179.000
  23843421.774    -5228215.99849  -4049239.07645  23843422.072    23843441.308
       217.000         160.000
  20962308.846     -777663.51849   -602963.05747  20962308.206    20962319.634
       242.000         204.000
  21774219.444   -16068272.18049 -12508263.15047  21774219.032    21774232.376
       231.000         188.000
  20451400.910   -25966505.73449 -20217060.98548  20451400.460    20451409.939
       240.000         214.000
  21383536.305   -23044020.85549 -17950914.89947  21383536.786    21383549.079
       236.000         197.000
 02  3 21  0 28 30.0000000  0  9G21G23G17G26G22G15G29G18G 6
  22286318.842   -15431385.82949 -12012244.97847  22286317.553    22286331.932
       234.000         188.000
  22401096.924   -14013859.54749 -10907424.45146  22401096.124    22401108.295
       233.000         186.000
  20947278.795   -22012433.38149 -17136718.56847  20947278.231    20947289.149
       242.000         206.000
  22302214.736   -14058935.93949 -10941488.98346  22302215.787    22302226.893
       230.000         180.000
  23848486.590    -5201601.08949  -4028500.27845  23848486.376    23848504.861
       217.000         160.000
  20957702.366     -801871.02449   -621825.98547  20957701.175    20957712.633
       242.000         204.000
  21759028.500   -16148099.81749 -12570466.28047  21759027.858    21759041.543
       233.000         188.000
  20450535.133   -25971055.38949 -20220606.11948  20450534.540    20450543.861
       242.000         214.000
  21397275.371   -22971822.18149 -17894656.30947  21397275.854    21397288.069
       238.000         197.000
 02  3 21  0 29  0.0000000  0 10G21G23G17G26G 3G22G15G29G18G 6
  22277128.121   -15479682.75049 -12049878.78547  22277127.206    22277141.401
       232.000         188.000
  22415136.649   -13940080.78749 -10849934.56146  22415135.914    22415148.587
       232.000         187.000
  20945715.787   -22020646.94449 -17143118.71847  20945715.563    20945726.308
       241.000         206.000
  22311886.562   -14008110.70549 -10901884.87946  22311886.582    22311900.496
       228.000         179.000
  24627731.250    -2151482.90649  -1447581.47645  24627729.747    24627749.265
       206.000         144.000
  23853628.408    -5174580.81549  -4007445.60045  23853627.577    23853646.255
       215.000         159.000
  20953121.076     -825945.30749   -640585.10447  20953120.257    20953131.913
       242.000         204.000
  21743898.576   -16227607.19549 -12632419.86747  21743898.113    21743911.104
       231.000         188.000
  20449746.621   -25975198.79049 -20223834.69548  20449746.295    20449755.567
       241.000         214.000
  21411092.704   -22899212.11049 -17838077.14747  21411092.689    21411105.503
       236.000         197.000
 02  3 21  0 29 30.0000000  0 10G21G23G17G26G 3G22G15G29G18G 6
  22267993.996   -15527682.06749 -12087280.70047  22267993.039    22268007.347
       232.000         188.000
  22429195.440   -13866201.22949 -10792366.13346  22429194.981    22429206.948
       232.000         186.000
  20944176.320   -22028736.83949 -17149422.50447  20944175.619    20944187.086
       240.000         206.000
  22321667.404   -13956711.96149 -10861833.93846  22321667.161    22321679.438
       227.000         179.000
  24608606.292    -2251983.95549  -1525893.72945  24608605.237    24608624.982
       203.000         144.000
  23858847.173    -5147155.78449  -3986075.53545  23858847.144    23858863.751
       216.000         157.000
  20948565.531     -849884.39549   -659238.88147  20948564.700    20948576.296
       241.000         204.000
  21728830.409   -16306790.13549 -12694120.64147  21728829.854    21728843.345
       231.000         189.000
  20449035.470   -25978935.78549 -20226746.59248  20449034.798    20449044.316
       240.000         214.000
  21424988.226   -22826190.98049 -17781177.68647  21424988.069    21425001.220
       236.000         196.000
 02  3 21  0 30  0.0000000  0 10G21G23G17G26G 3G22G15G29G18G 6
  22258916.411   -15575384.42049 -12124451.20947  22258915.653    22258929.880
       233.000         189.000
  22443272.955   -13792223.48049 -10734721.18546  22443273.055    22443283.873
       233.000         185.000
  20942660.303   -22036703.12749 -17155629.96447  20942659.329    20942671.238
       240.000         206.000
  22331556.958   -13904742.29149 -10821338.08946  22331556.595    22331570.614
       227.000         179.000
  24589502.910    -2352372.19749  -1604118.08045  24589501.622    24589520.668
       204.000         143.000
  23864142.553    -5119328.64249  -3964392.15145  23864141.688    23864160.107
       216.000         156.000
  20944035.735     -873688.23249   -677787.25147  20944034.507    20944046.336
       241.000         204.000
  21713824.317   -16385646.51949 -12755566.95247  21713823.233    21713837.106
       232.000         189.000
  20448401.307   -25982268.05949 -20229343.11348  20448400.827    20448410.100
       241.000         214.000
  21438961.515   -22752760.91949 -17723959.56547  21438961.696    21438974.495
       235.000         196.000
 02  3 21  0 30 30.0000000  0 10G21G23G17G26G 3G22G15G29G18G 6
  22249895.435   -15622789.67249 -12161390.22147  22249894.628    22249908.996
       233.000         189.000
  22457368.863   -13718149.45549 -10677001.21546  22457368.577    22457381.175
       231.000         185.000
  20941167.979   -22044545.00049 -17161740.48747  20941167.381    20941178.467
       241.000         206.000
  22341554.817   -13852203.11949 -10780398.47146  22341554.464    22341567.339
       227.000         178.000
  24570421.410    -2452645.20749  -1682252.60545  24570421.211    24570440.484
       204.000         140.000
  23869514.136    -5091101.01249  -3942396.72045  23869514.119    23869531.896
       216.000         155.000
  20939531.760     -897356.13149   -696229.70247  20939530.784    20939542.489
       240.000         204.000
  21698881.035   -16464173.48749 -12816756.58647  21698880.737    21698893.859
       231.000         189.000
  20447843.955   -25985196.75049 -20231625.15948  20447843.632    20447852.843
       241.000         214.000
  21453012.375   -22678923.54849 -17666424.07047  21453012.728    21453025.494
       235.000         196.000
 02  3 21  0 31  0.0000000  0 10G21G23G17G26G 3G22G15G29G18G 6
  22240930.983   -15669897.54849 -12198097.50947  22240929.995    22240943.754
       234.000         189.000
  22471482.777   -13643979.98949 -10619206.89446  22471481.547    22471494.339
       230.000         184.000
  20939699.691   -22052260.76949 -17167752.73847  20939699.298    20939710.113
       241.000         206.000
  22351660.789   -13799095.38049 -10739015.84346  22351661.727    22351674.368
       228.000         179.000
  24551362.573    -2552799.39149  -1760294.57345  24551362.206    24551379.397
       204.000         139.000
  23874961.819    -5062474.29849  -3920090.30245  23874960.839    23874980.207
       217.000         157.000
  20935053.860     -920886.73049   -714565.16347  20935053.114    20935064.816
       241.000         204.000
  21684001.027   -16542367.65049 -12877686.88647  21684000.329    21684013.426
       232.000         190.000
  20447363.378   -25987721.94849 -20233592.79048  20447362.765    20447372.145
       240.000         214.000
  21467140.664   -22604679.57149 -17608571.73847  21467141.077    21467153.530
       235.000         195.000
 02  3 21  0 31 30.0000000  0 10G21G23G17G26G 3G22G15G29G18G 6
  22232022.628   -15716710.45849 -12234574.95847  22232021.572    22232035.991
       233.000         189.000
  22485614.062   -13569719.57849 -10561341.69546  22485614.423    22485626.170
       233.000         185.000
  20938255.151   -22059852.09649 -17173668.02247  20938254.838    20938265.817
       241.000         206.000
  22361874.270   -13745423.32349 -10697193.48546  22361874.546    22361887.279
       227.000         178.000
  24532326.265    -2652834.98349  -1838244.13545  24532324.635    24532343.797
       207.000         138.000
  23880484.572    -5033452.77749  -3897476.23145  23880483.315    23880503.286
       215.000         157.000
  20930601.876     -944282.03149   -732795.19947  20930601.316    20930612.925
       241.000         205.000
  21669184.351   -16620228.58049 -12938357.52547  21669183.656    21669196.992
       233.000         190.000
  20446958.869   -25989847.44349 -20235248.96648  20446958.435    20446967.591
       240.000         214.000
  21481345.538   -22530033.05249 -17550405.73447  21481345.634    21481358.595
       235.000         195.000
 02  3 21  0 32  0.0000000  0 10G21G23G17G26G 3G22G15G29G18G 6
  22223170.785   -15763226.44549 -12270821.04347  22223170.199    22223184.017
       234.000         189.000
  22499762.876   -13495367.70049 -10503405.21046  22499762.499    22499774.291
       231.000         184.000
  20936834.833   -22067316.02349 -17179484.03447  20936834.361    20936845.588
       242.000         206.000
  22372195.345   -13691186.23049 -10654930.81046  22372195.262    22372208.019
       228.000         178.000
  24513313.460    -2752747.40649  -1916097.75845  24513313.116    24513331.525
       210.000         136.000
  23886082.254    -5004036.38449  -3874554.47645  23886081.490    23886100.809
       216.000         157.000
  20926176.169     -967539.14049   -750917.56047  20926175.630    20926186.938
       242.000         205.000
  21654432.135   -16697751.22349 -12998764.57147  21654431.769    21654444.789
       233.000         190.000
  20446630.636   -25991572.13449 -20236592.82548  20446630.103    20446639.474
       241.000         214.000
  21495627.133   -22454983.11149 -17491925.37847  21495627.417    21495640.539
       235.000         195.000
 02  3 21  0 32 30.0000000  0 10G21G23G17G26G 3G22G15G29G18G 6
  22214375.309   -15809446.41249 -12306836.45747  22214374.648    22214388.241
       234.000         189.000
  22513928.368   -13420926.93349 -10445399.48946  22513927.872    22513940.585
       229.000         183.000
  20935438.711   -22074652.43049 -17185200.67747  20935438.048    20935449.084
       241.000         206.000
  22382623.243   -13636386.68349 -10612229.89246  22382623.452    22382635.586
       227.000         177.000
  24494324.401    -2852534.93449  -1993854.11545  24494323.902    24494340.786
       212.000         136.000
  23891754.817    -4974227.56049  -3851326.91845  23891753.773    23891773.889
       215.000         157.000
  20921776.736     -990658.50449   -768932.58547  20921775.936    20921787.196
       242.000         205.000
  21639744.688   -16774933.50249 -13058906.39547  21639743.917    21639757.223
       233.000         191.000
  20446378.362   -25992897.50149 -20237625.52148  20446377.887    20446387.192
       240.000         214.000
  21509984.997   -22379532.28449 -17433132.63847  21509985.197    21509997.905
       234.000         194.000
 02  3 21  0 33  0.0000000  0 10G21G23G17G26G 3G22G15G29G18G 6
  22205635.863   -15855372.10049 -12342622.57747  22205635.398    22205648.611
       234.000         190.000
  22528110.430   -13346400.50549 -10387326.99846  22528110.244    22528122.365
       231.000         184.000
  20934066.717   -22081862.00749 -17190818.50147  20934066.228    20934077.412
       242.000         206.000
  22393157.717   -13581027.92449 -10569093.22746  22393158.189    22393171.149
       228.000         178.000
  24475359.283    -2952196.62349  -2071512.38745  24475358.192    24475376.686
       211.000         140.000
  23897501.198    -4944030.03849  -3827796.46945  23897500.165    23897519.845
       215.000         156.000
  20917403.341    -1013640.62249   -786840.66247  20917402.594    20917414.008
       242.000         205.000
  21625122.252   -16851774.08749 -13118781.96947  21625122.259    21625134.606
       234.000         191.000
  20446201.561   -25993826.33249 -20238349.23448  20446201.070    20446210.536
       241.000         214.000
  21524418.606   -22303683.55049 -17374029.84347  21524418.885    21524431.884
       235.000         194.000
 02  3 21  0 33 30.0000000  0 10G21G23G17G26G 3G22G15G29G18G 6
  22196952.673   -15901002.05849 -12378178.25347  22196951.760    22196965.425
       234.000         190.000
  22542308.676   -13271788.78549 -10329188.04646  22542308.385    22542320.250
       232.000         185.000
  20932719.370   -22088942.25449 -17196335.53847  20932718.690    20932729.865
       240.000         206.000
  22403798.539   -13525110.16249 -10525520.96046  22403798.003    22403811.396
       226.000         177.000
  24456418.905    -3051728.32749  -2149069.34445  24456417.694    24456436.784
       210.000         144.000
  23903321.562    -4913444.09849  -3803963.35745  23903320.126    23903339.448
       214.000         156.000
  20913056.571    -1036483.07349   -804639.91747  20913056.113    20913066.870
       242.000         205.000
  21610565.721   -16928268.74849 -13178387.99047  21610565.207    21610577.875
       233.000         192.000
  20446100.332   -25994358.14249 -20238763.57348  20446099.740    20446109.135
       240.000         214.000
  21538927.915   -22227436.89949 -17314616.98447  21538928.390    21538941.064
       234.000         194.000
 02  3 21  0 34  0.0000000  0 10G21G23G17G26G 3G22G15G29G18G 6
  22188325.566   -15946337.49449 -12413504.43647  22188325.052    22188338.230
       234.000         190.000
  22556522.400   -13197094.58849 -10270984.83746  22556521.485    22556533.843
       229.000         182.000
  20931396.459   -22095893.64349 -17201752.17247  20931395.646    20931407.030
       240.000         206.000
  22414545.140   -13468636.25549 -10481515.36246  22414545.773    22414557.722
       227.000         177.000
  24437503.461    -3151128.76449  -2226523.98645  24437502.469    24437521.063
       209.000         146.000
  23909215.094    -4882472.91949  -3779830.05145  23909214.405    23909234.430
       214.000         156.000
  20908736.185    -1059186.55949   -822330.88847  20908735.773    20908746.721
       242.000         205.000
  21596075.297   -17004415.77149 -13237723.13147  21596074.769    21596087.754
       234.000         192.000
  20446074.212   -25994495.17849 -20238870.30648  20446073.898    20446083.004
       241.000         214.000
  21553512.471   -22150795.04149 -17254896.17647  21553513.113    21553525.520
       235.000         194.000
 02  3 21  0 34 30.0000000  0 10G21G23G17G26G 3G22G15G29G18G 6
  22179754.472   -15991378.16149 -12448600.92547  22179753.476    22179767.365
       234.000         190.000
  22570751.705   -13122319.26149 -10212718.40246  22570751.104    22570763.949
       230.000         183.000
  20930098.348   -22102714.82749 -17207067.34747  20930097.785    20930108.793
       241.000         206.000
  22425397.306   -13411607.74049 -10437077.58346  22425397.960    22425411.062
       227.000         177.000
  24418613.481    -3250395.02149  -2303874.05245  24418611.947    24418630.573
       204.000         147.000
  23915181.648    -4851118.13649  -3755397.83045  23915180.365    23915200.772
       213.000         155.000
  20904442.536    -1081749.53549   -839912.36247  20904441.906    20904452.992
       242.000         205.000
  21581651.485   -17080212.11549 -13296785.01747  21581650.734    21581663.902
       233.000         192.000
  20446123.103   -25994238.07649 -20238669.91348  20446122.614    20446131.974
       240.000         214.000
  21568171.961   -22073759.49649 -17194868.59447  21568172.365    21568185.434
       234.000         194.000
 02  3 21  0 35  0.0000000  0 10G21G23G17G26G 3G22G15G29G18G 6
  22171239.674   -16036123.22949 -12483467.07847  22171239.220    22171252.482
       234.000         191.000
  22584996.422   -13047463.62049 -10154389.37046  22584996.043    22585008.729
       230.000         183.000
  20928825.436   -22109404.04049 -17212279.68847  20928824.896    20928835.720
       241.000         206.000
  22436354.863   -13354025.28649 -10392208.16046  22436354.055    22436367.497
       223.000         176.000
  24399749.564    -3349523.70349  -2381116.90245  24399748.286    24399767.214
       202.000         147.000
  23921221.063    -4819380.90749  -3730667.58045  23921221.243    23921239.563
       217.000         156.000
  20900175.931    -1104170.56549   -857383.23247  20900175.110    20900186.364
       242.000         205.000
  21567295.179   -17155654.16649 -13355570.83047  21567294.573    21567307.344
       233.000         192.000
  20446246.925   -25993587.05749 -20238162.57648  20446246.518    20446255.770
       241.000         214.000
  21582906.297   -21996330.66149 -17134534.55847  21582906.745    21582919.462
       235.000         194.000
 02  3 21  0 35 30.0000000  0 10G21G23G17G26G 3G22G15G29G18G 6
  22162780.591   -16080575.46149 -12518105.05047  22162780.067    22162793.586
       235.000         191.000
  22599255.532   -12972531.06849 -10096000.44846  22599255.521    22599266.547
       230.000         182.000
  20927577.430   -22115962.08049 -17217389.81347  20927577.160    20927588.001
       241.000         206.000
  22447417.183   -13295892.62349 -10346910.00546  22447417.896    22447430.039
       227.000         177.000
  24380912.047    -3448513.86949  -2458251.81245  24380911.096    24380929.865
       204.000         147.000
  23927332.762    -4787264.97649  -3705642.25545  23927332.752    23927351.290
       218.000         157.000
  20895936.101    -1126450.66449   -874744.28247  20895935.175    20895946.582
       242.000         205.000
  21553006.507   -17230740.79249 -13414079.69547  21553005.835    21553018.435
       234.000         192.000
  20446445.154   -25992545.16649 -20237350.66148  20446444.771    20446453.885
       241.000         214.000
  21597714.795   -21918511.81349 -17073896.61547  21597715.353    21597728.152
       235.000         193.000
 02  3 21  0 36  0.0000000  0 10G21G23G17G26G 3G22G15G29G18G 6
  22154377.434   -16124734.12249 -12552514.26047  22154376.494    22154390.592
       234.000         191.000
  22613529.169   -12897523.06149 -10037552.70146  22613528.610    22613540.873
       228.000         181.000
  20926354.761   -22122387.64949 -17222396.71847  20926354.336    20926365.378
       241.000         206.000
  22458583.862   -13237211.12249 -10301184.19446  22458584.685    22458596.452
       226.000         176.000
  24362101.547    -3547362.82049  -2535276.70845  24362101.068    24362119.479
       209.000         148.000
  23933516.248    -4754771.96749  -3680323.11145  23933516.961    23933535.492
       219.000         158.000
  20891723.295    -1148588.78949   -891994.70547  20891722.342    20891733.678
       242.000         205.000
  21538786.074   -17305468.74149 -13472309.06247  21538785.539    21538798.055
       233.000         192.000
  20446717.656   -25991112.97049 -20236234.61448  20446717.192    20446726.230
       240.000         214.000
  21612597.248   -21840304.38449 -17012955.88347  21612597.860    21612610.357
       233.000         193.000
 02  3 21  0 36 30.0000000  0 10G21G23G17G26G 3G22G15G29G18G 6
  22146029.847   -16168600.22849 -12586695.50347  22146028.953    22146042.571
       234.000         191.000
  22627816.656   -12822442.18449  -9979048.15646  22627816.269    22627828.635
       230.000         182.000
  20925157.237   -22128680.73449 -17227300.38847  20925156.486    20925167.545
       240.000         206.000
  22469854.577   -13177983.65949 -10255032.94846  22469855.053    22469868.036
       226.000         177.000
  24343318.352    -3646068.76249  -2612190.18345  24343317.782    24343335.876
       212.000         149.000
  23939770.796    -4721904.79449  -3654712.40045  23939771.291    23939789.667
       217.000         157.000
  20887537.460    -1170585.30849   -909134.79047  20887536.459    20887547.926
       242.000         205.000
  21524634.260   -17379836.25949 -13530257.58447  21524633.656    21524646.142
       234.000         193.000
  20447063.978   -25989292.92649 -20234816.35048  20447063.512    20447072.717
       241.000         214.000
  21627553.159   -21761711.01349 -16951714.40947  21627553.306    21627566.498
       234.000         193.000
 02  3 21  0 37  0.0000000  0 10G21G23G17G26G 3G22G15G29G18G 6
  22137738.077   -16212173.16949 -12620648.29947  22137737.323    22137750.692
       233.000         191.000
  22642117.840   -12747289.17249  -9920487.43446  22642117.358    22642130.633
       228.000         182.000
  20923985.210   -22134839.49949 -17232099.39747  20923984.567    20923995.808
       240.000         206.000
  22481228.810   -13118211.13749 -10208456.98446  22481228.729    22481241.190
       225.000         175.000
  24324563.008    -3744628.12849  -2688989.44445  24324561.926    24324580.004
       212.000         149.000
  23946096.402    -4688664.63349  -3628811.07345  23946095.593    23946114.145
       217.000         157.000
  20883378.873    -1192438.32149   -926163.05747  20883378.068    20883389.447
       242.000         205.000
  21510551.688   -17453839.85949 -13587922.52147  21510550.816    21510563.954
       233.000         193.000
  20447484.096   -25987084.84549 -20233095.71648  20447483.552    20447492.936
       240.000         214.000
  21642582.446   -21682732.21749 -16890172.60847  21642582.442    21642595.710
       234.000         193.000
 02  3 21  0 37 30.0000000  0 10G21G23G17G26G 3G22G15G29G18G 6
  22129502.042   -16255453.02649 -12654372.73047  22129501.545    22129514.927
       235.000         191.000
  22656432.337   -12672065.87149  -9861871.94246  22656431.279    22656444.485
       226.000         181.000
  20922838.920   -22140863.00449 -17236793.01247  20922838.280    20922849.584
       240.000         206.000
  22492706.548   -13057895.47349 -10161457.79146  22492706.853    22492719.303
       225.000         175.000
  24305835.995    -3843038.66749  -2765672.75045  24305835.780    24305853.072
       214.000         148.000
  23952492.418    -4655053.65249  -3602620.78745  23952491.845    23952511.093
       217.000         157.000
  20879247.806    -1214147.15449   -943078.98147  20879246.988    20879258.259
       241.000         206.000
  21496538.884   -17527476.58549 -13645301.60147  21496538.516    21496550.608
       233.000         193.000
  20447977.850   -25984489.84249 -20231073.59548  20447977.400    20447986.615
       240.000         214.000
  21657684.802   -21603369.65149 -16828331.78247  21657685.027    21657698.289
       233.000         193.000
 02  3 21  0 38  0.0000000  0 10G21G23G17G26G 3G22G15G29G18G 6
  22121321.555   -16298441.25149 -12687869.91047  22121320.628    22121334.433
       234.000         192.000
  22670759.750   -12596774.93549  -9803203.72746  22670759.860    22670771.342
       229.000         181.000
  20921718.359   -22146751.31849 -17241381.27547  20921717.836    20921729.088
       240.000         206.000
  22504287.015   -12997039.52149 -10114037.60946  22504288.165    22504300.159
       225.000         175.000
  24287137.564    -3941298.90649  -2842238.94645  24287136.825    24287153.683
       213.000         146.000
  23958958.499    -4621074.85649  -3576143.89445  23958957.799    23958976.737
       216.000         157.000
  20875144.099    -1235711.98849   -959882.68847  20875143.249    20875154.649
       241.000         206.000
  21482596.235   -17600744.75749 -13702393.49347  21482595.678    21482608.165
       233.000         193.000
  20448544.789   -25981510.29249 -20228751.82348  20448544.367    20448553.639
       240.000         214.000
  21672859.590   -21523626.01149 -16766194.01647  21672859.741    21672872.974
       234.000         192.000
 02  3 21  0 38 30.0000000  0 10G21G23G17G26G 3G22G15G29G18G 6
  22113196.605   -16341137.54549 -12721139.60647  22113195.953    22113209.148
       235.000         192.000
  22685099.873   -12521417.36349  -9744483.59546  22685099.862    22685111.895
       227.000         180.000
  20920623.835   -22152502.86949 -17245862.96947  20920623.294    20920634.365
       240.000         206.000
  22515970.085   -12935644.57349 -10066197.40646  22515970.928    22515983.342
       227.000         175.000
  24268468.311    -4039405.50749  -2918685.40345  24268467.849    24268484.336
       209.000         144.000
  23965494.293    -4586729.77449  -3549381.58845  23965493.364    23965512.899
       216.000         156.000
  20871068.088    -1257131.28149   -976572.98447  20871067.301    20871078.365
       242.000         206.000
  21468724.394   -17673641.19249 -13759195.71247  21468724.012    21468736.398
       233.000         193.000
  20449184.816   -25978146.67349 -20226130.77748  20449184.574    20449193.401
       240.000         214.000
  21688106.667   -21443502.35549 -16703760.12347  21688106.706    21688120.705
       233.000         192.000
 02  3 21  0 39  0.0000000  0 10G21G23G17G26G 3G22G15G29G18G 6
  22105127.083   -16383542.51349 -12754182.29747  22105126.529    22105139.732
       235.000         192.000
  22699452.133   -12445995.14649  -9685713.09646  22699451.407    22699464.092
       227.000         180.000
  20919555.407   -22158117.30649 -17250237.82747  20919554.564    20919565.760
       240.000         206.000
  22527755.253   -12873713.31749 -10017939.30946  22527753.910    22527768.476
       223.000         175.000
  24249828.614    -4137356.42749  -2995010.52745  24249827.444    24249845.408
       209.000         144.000
  23972099.120    -4552021.08349  -3522335.98045  23972098.811    23972115.960
       216.000         154.000
  20867019.829    -1278404.72149   -993149.62947  20867018.903    20867030.018
       242.000         206.000
  21454923.650   -17746163.57849 -13815706.46747  21454922.886    21454935.730
       234.000         194.000
  20449897.547   -25974400.96849 -20223212.00348  20449896.851    20449906.152
       241.000         214.000
  21703425.604   -21363001.06949 -16641031.97847  21703425.471    21703439.353
       234.000         192.000
 02  3 21  0 39 30.0000000  0 10G21G23G17G26G 3G22G15G29G18G 6
  22097113.913   -16425651.57449 -12786994.41447  22097113.257    22097126.529
       235.000         192.000
  22713817.427   -12370505.14549  -9626889.79446  22713816.772    22713830.415
       227.000         180.000
  20918514.112   -22163588.82749 -17254501.32147  20918513.654    20918524.449
       241.000         205.000
  22539642.960   -12811242.69149  -9969260.90346  22539643.619    22539655.777
       226.000         174.000
  24231219.893    -4235144.33949  -3071208.62145  24231218.816    24231236.660
       209.000         144.000
  23978773.656    -4516946.09049  -3495004.94145  23978772.941    23978791.870
       215.000         153.000
  20863000.334    -1299526.77149  -1009608.30647  20862999.556    20863010.740
       242.000         205.000
  21441195.551   -17818304.40949 -13871919.91247  21441195.209    21441207.371
       234.000         194.000
  20450683.789   -25970269.21949 -20219992.41848  20450683.327    20450692.559
       240.000         214.000
  21718817.043   -21282118.96049 -16578007.09447  21718817.146    21718830.893
       233.000         191.000
 02  3 21  0 40  0.0000000  0 10G21G23G17G26G 3G22G15G29G18G 6
  22089155.670   -16467471.95749 -12819581.58747  22089154.576    22089168.356
       235.000         193.000
  22728194.115   -12294955.86949  -9568020.29646  22728193.559    22728206.460
       228.000         180.000
  20917499.070   -22168923.05949 -17258657.83747  20917498.737    20917509.718
       240.000         206.000
  22551631.685   -12748241.56049  -9920169.15346  22551631.870    22551645.664
       224.000         175.000
  24212641.522    -4332773.28449  -3147282.85445  24212640.768    24212658.591
       209.000         146.000
  23985516.272    -4481513.57349  -3467395.30545  23985516.802    23985534.386
       214.000         153.000
  20859008.602    -1320503.42549  -1025953.69347  20859008.119    20859018.939
       242.000         206.000
  21427539.283   -17890067.88549 -13927839.31847  21427538.734    21427551.185
       235.000         194.000
  20451541.870   -25965759.52249 -20216478.33648  20451541.602    20451550.721
       240.000         214.000
  21734279.311   -21200864.45649 -16514692.03347  21734279.871    21734293.077
       232.000         191.000
 02  3 21  0 40 30.0000000  0 10G21G23G17G26G 3G22G15G29G18G 6
  22081252.343   -16509003.73449 -12851943.86647  22081251.957    22081265.240
       235.000         193.000
  22742581.826   -12219348.82749  -9509105.76546  22742582.128    22742594.113
       227.000         180.000
  20916510.325   -22174118.95049 -17262706.55047  20916509.842    20916520.943
       240.000         206.000
  22563720.918   -12684711.76449  -9870665.44746  22563721.481    22563733.397
       224.000         174.000
  24194093.965    -4430240.48549  -3223231.05845  24194092.908    24194110.613
       208.000         149.000
  23992326.689    -4445725.41849  -3439508.53745  23992326.438    23992344.122
       216.000         154.000
  20855044.658    -1341333.89649  -1042185.16747  20855043.874    20855054.740
       242.000         206.000
  21413955.344   -17961451.04649 -13983462.36747  21413954.808    21413966.842
       234.000         195.000
  20452471.739   -25960872.86849 -20212670.50948  20452471.349    20452480.489
       240.000         214.000
  21749812.162   -21119239.27049 -16451088.12247  21749812.628    21749826.138
       232.000         191.000
 02  3 21  0 41  0.0000000  0 10G21G23G17G26G 3G22G15G29G18G 6
  22073404.038   -16550246.36649 -12884080.84347  22073403.151    22073416.500
       236.000         193.000
  22756980.352   -12143684.43449  -9450146.57346  22756979.511    22756992.192
       226.000         179.000
  20915548.290   -22179174.70749 -17266646.07347  20915547.808    20915558.588
       241.000         206.000
  22575910.744   -12620654.34049  -9820750.58446  22575911.432    22575924.020
       225.000         173.000
  24175577.763    -4527542.39849  -3299050.44345  24175577.096    24175594.574
       205.000         149.000
  23999204.464    -4409582.99349  -3411345.73545  23999204.037    23999221.850
       217.000         155.000
  20851108.880    -1362016.11449  -1058301.11947  20851108.018    20851119.031
       242.000         205.000
  21400444.434   -18032450.43549 -14038786.37347  21400444.031    21400456.269
       234.000         195.000
  20453473.299   -25955609.44749 -20208569.10648  20453472.835    20453481.868
       240.000         214.000
  21765415.420   -21037244.14149 -16387195.94847  21765415.446    21765429.602
       232.000         190.000
 02  3 21  0 41 30.0000000  0 10G21G23G17G26G 3G22G15G29G18G 6
  22065610.617   -16591200.47349 -12915992.98647  22065609.836    22065622.953
       236.000         193.000
  22771389.291   -12067964.60049  -9391144.16546  22771389.125    22771401.699
       227.000         179.000
  20914613.047   -22184089.33949 -17270475.62247  20914612.425    20914623.327
       241.000         206.000
  22588200.450   -12556071.56249  -9770426.37746  22588201.573    22588213.982
       227.000         175.000
  24157093.395    -4624676.90949  -3374739.36245  24157092.343    24157109.237
       206.000         147.000
  24006149.080    -4373088.64849  -3382908.67745  24006148.249    24006167.823
       214.000         154.000
  20847201.420    -1382549.50149  -1074301.09747  20847200.733    20847211.709
       243.000         205.000
  21387007.057   -18103063.53049 -14093809.37647  21387006.733    21387018.954
       234.000         195.000
  20454546.255   -25949970.88749 -20204175.38348  20454545.673    20454555.071
       241.000         214.000
  21781088.693   -20954881.09949 -16323017.08447  21781088.716    21781102.543
       233.000         190.000
 02  3 21  0 42  0.0000000  0 10G21G23G17G26G 3G22G15G29G18G 6
  22057872.207   -16631865.51849 -12947679.89647  22057871.323    22057884.472
       236.000         193.000
  22785808.629   -11992190.89249  -9332099.78946  22785808.453    22785820.396
       227.000         179.000
  20913704.797   -22188861.98949 -17274194.54247  20913704.504    20913715.272
       241.000         206.000
  22600589.768   -12490965.41049  -9719694.34746  22600590.047    22600603.084
       224.000         173.000
  24138641.473    -4721641.15749  -3450295.64345  24138641.106    24138658.190
       211.000         149.000
  24013160.406    -4336244.43949  -3354199.02345  24013159.436    24013178.352
       217.000         155.000
  20843322.529    -1402933.29249  -1090184.51047  20843321.928    20843333.074
       242.000         206.000
  21373643.702   -18173287.61849 -14148529.26347  21373643.574    21373655.409
       235.000         195.000
  20455690.358   -25943958.43549 -20199490.31548  20455689.951    20455699.130
       240.000         214.000
  21796831.648   -20872151.74349 -16258552.79747  21796831.897    21796845.274
       232.000         190.000
 02  3 21  0 42 30.0000000  0 10G21G23G17G26G 3G22G15G29G18G 6
  22050188.717   -16672242.04249 -12979141.97947  22050187.853    22050201.066
       236.000         194.000
  22800238.002   -11916364.46949  -9273014.31246  22800237.584    22800251.216
       226.000         180.000
  20912823.963   -22193490.93849 -17277801.48147  20912823.474    20912834.512
       241.000         206.000
  22613078.430   -12425337.53449  -9668555.76246  22613078.561    22613092.205
       225.000         175.000
  24120222.676    -4818432.17949  -3525716.97945  24120222.068    24120239.382
       216.000         153.000
  24020237.916    -4299052.13949  -3325218.12245  24020236.456    24020256.464
       215.000         154.000
  20839472.335    -1423165.90449  -1105950.11747  20839471.454    20839482.456
       242.000         206.000
  21360354.981   -18243119.56049 -14202943.57047  21360354.584    21360366.653
       235.000         196.000
  20456905.513   -25937572.51949 -20194514.22848  20456905.069    20456914.220
       240.000         214.000
  21812644.074   -20789057.40049 -16193804.09847  21812644.450    21812658.005
       232.000         189.000
 02  3 21  0 43  0.0000000  0 10G21G23G17G26G 3G22G15G29G18G 6
  22042559.881   -16712331.21349 -13010380.16347  22042559.244    22042572.336
       237.000         194.000
  22814676.766   -11840488.00449  -9213889.89946  22814677.358    22814689.031
       228.000         178.000
  20911970.427   -22197976.42149 -17281296.64047  20911969.904    20911980.909
       242.000         206.000
  22625665.713   -12359191.20749  -9617013.19046  22625666.067    22625678.045
       225.000         174.000
  24101837.048    -4915048.47849  -3601002.17045  24101835.796    24101853.867
       216.000         156.000
  24027381.100    -4261515.13549  -3295968.61145  24027380.151    24027399.937
       216.000         154.000
  20835650.844    -1443247.82849  -1121598.31847  20835650.239    20835661.033
       244.000         206.000
  21347141.180   -18312557.91849 -14257051.20347  21347140.932    21347152.864
       237.000         196.000
  20458191.300   -25930815.55949 -20189249.02948  20458190.879    20458200.018
       242.000         214.000
  21828525.401   -20705601.02649 -16128773.29947  21828525.716    21828539.353
       233.000         189.000
 02  3 21  0 43 30.0000000  0 10G21G23G17G26G 3G22G15G29G18G 6
  22034985.802   -16752132.66849 -13041394.14047  22034985.257    22034998.042
       236.000         194.000
  22829125.009   -11764562.50949  -9154727.20146  22829124.476    22829137.748
       226.000         177.000
  20911144.344   -22202316.91649 -17284678.80947  20911144.006    20911154.653
       240.000         206.000
  22638351.248   -12292527.73249  -9565067.67746  22638351.755    22638364.493
       224.000         173.000
  24083485.237    -5011486.92049  -3676148.74645  24083483.941    24083501.640
       214.000         156.000
  24034589.624    -4223634.76149  -3266451.54245  24034589.290    24034608.545
       216.000         155.000
  20831858.340    -1463177.46949  -1137127.84947  20831857.625    20831868.647
       242.000         206.000
  21334002.839   -18381599.59049 -14310849.71847  21334002.258    21334014.532
       235.000         196.000
  20459547.505   -25923688.38649 -20183695.33648  20459547.350    20459556.229
       241.000         215.000
  21844475.332   -20621783.84449 -16063461.34547  21844475.874    21844489.429
       232.000         189.000
 02  3 21  0 44  0.0000000  0 10G21G23G17G26G 3G22G15G29G18G 6
  22027466.368   -16791646.79049 -13072184.22147  22027465.383    22027478.633
       236.000         194.000
  22843582.299   -11688589.42849  -9095527.47046  22843582.417    22843594.786
       228.000         179.000
  20910346.170   -22206511.02549 -17287946.90547  20910345.389    20910356.541
       240.000         206.000
  22651135.069   -12225349.39649  -9512720.92246  22651134.126    22651147.551
       222.000         173.000
  24065167.810    -5107744.81049  -3751154.60445  24065167.012    24065184.771
       212.000         153.000
  24041862.927    -4185413.46549  -3236668.81545  24041862.645    24041881.832
       215.000         155.000
  20828094.950    -1482953.98749  -1152538.05547  20828094.210    20828105.165
       242.000         206.000
  21320940.487   -18450241.77349 -14364336.94547  21320940.210    21320951.818
       235.000         197.000
  20460973.969   -25916192.09249 -20177854.01648  20460973.463    20460982.593
       241.000         215.000
  21860493.729   -20537607.42449 -15997869.46247  21860494.055    21860508.023
       231.000         188.000
 02  3 21  0 44 30.0000000  0 10G21G23G17G26G 3G22G15G29G18G 6
  22020001.310   -16830875.30649 -13102751.76447  22020000.521    22020013.693
       236.000         194.000
  22858048.102   -11612571.29249  -9036292.63446  22858047.223    22858060.711
       224.000         178.000
  20909575.746   -22210559.08749 -17291101.20047  20909575.012    20909586.297
       240.000         206.000
  22664015.873   -12157659.30449  -9459975.45046  22664016.808    22664029.495
       224.000         174.000
  24046885.006    -5203820.50649  -3826018.51245  24046883.839    24046901.097
       213.000         150.000
  24049200.598    -4146854.34549  -3206622.84745  24049199.316    24049219.838
       214.000         155.000
  20824360.598    -1502577.58649  -1167829.10847  20824359.666    20824370.848
       242.000         206.000
  21307954.459   -18518483.08849 -14417511.81047  21307954.190    21307965.797
       235.000         197.000
  20462470.236   -25908328.97249 -20171726.86248  20462469.637    20462478.866
       240.000         214.000
  21876579.832   -20453074.86249 -15932000.07447  21876580.019    21876593.850
       232.000         188.000
 02  3 21  0 45  0.0000000  0 10G21G23G17G26G 3G22G15G29G18G 6
  22012590.718   -16869817.58449 -13133096.25947  22012590.011    22012603.018
       236.000         194.000
  22872522.300   -11536508.87049  -8977023.27546  22872522.312    22872534.986
       226.000         178.000
  20908833.577   -22214458.75349 -17294139.86147  20908833.056    20908844.270
       241.000         206.000
  22676994.018   -12089458.61349  -9406832.09246  22676994.583    22677006.425
       222.000         170.000
  24028637.584    -5299710.42749  -3900737.71545  24028637.990    24028652.880
       212.000         145.000
  24056602.166    -4107958.81349  -3176314.73545  24056601.581    24056621.149
       216.000         154.000
  20820655.744    -1522046.32549  -1182999.49047  20820654.861    20820665.978
       243.000         206.000
  21295045.448   -18586319.82649 -14470371.42447  21295044.947    21295056.987
       236.000         197.000
  20464036.215   -25900099.52549 -20165314.25548  20464035.603    20464044.858
       241.000         214.000
  21892733.542   -20368187.15049 -15865853.94247  21892734.126    21892747.430
       232.000         188.000
 02  3 21  0 45 30.0000000  0 10G21G23G17G26G 3G22G15G29G18G 6
  22005234.453   -16908474.41149 -13163218.33947  22005233.554    22005246.513
       236.000         194.000
  22887004.660   -11460403.89349  -8917720.77746  22887005.226    22887016.749
       228.000         177.000
  20908119.838   -22218209.65949 -17297062.61347  20908119.250    20908130.143
       240.000         206.000
  22690068.941   -12020749.96749  -9353292.93846  22690068.952    22690082.804
       224.000         174.000
  24010425.869    -5395412.34049  -3975310.43145  24010424.549    24010441.531
       206.000         141.000
  24064067.190    -4068729.47649  -3145746.53145  24064065.934    24064086.056
       211.000         153.000
  20816980.557    -1541359.39449  -1198048.58147  20816979.675    20816990.713
       242.000         206.000
  21282213.725   -18653750.09649 -14522914.31547  21282213.170    21282225.325
       236.000         197.000
  20465671.603   -25891505.30649 -20158617.41748  20465671.121    20465680.053
       241.000         214.000
  21908954.446   -20282946.45249 -15799432.75946  21908954.636    21908968.434
       231.000         187.000
 02  3 21  0 46  0.0000000  0 10G21G23G17G26G 3G22G15G29G18G 6
  21997932.410   -16946846.37949 -13193118.44647  21997931.839    21997944.521
       236.000         195.000
  22901494.868   -11384258.43949  -8858386.71046  22901493.506    22901507.238
       225.000         177.000
  20907434.439   -22221811.08249 -17299868.88047  20907433.985    20907444.628
       240.000         206.000
  22703239.948   -11951536.04549  -9299360.04346  22703239.854    22703252.148
       224.000         171.000
  23992250.237    -5490924.20249  -4049734.96445  23992250.111    23992266.181
       210.000         143.000
  24071595.233    -4029169.00649  -3114920.29545  24071595.551    24071614.353
       216.000         153.000
  20813334.997    -1560516.66249  -1212976.26447  20813334.348    20813345.280
       242.000         206.000
  21269459.855   -18720771.44649 -14575138.56547  21269459.340    21269471.477
       236.000         198.000
  20467376.063   -25882548.16349 -20151637.78148  20467375.831    20467384.596
       241.000         214.000
  21925242.031   -20197355.04949 -15732738.30246  21925241.911    21925256.103
       231.000         187.000
 02  3 21  0 46 30.0000000  0 10G21G23G17G26G 3G22G15G29G18G 6
  21990684.599   -16984933.40249 -13222796.52947  21990683.666    21990696.722
       236.000         195.000
  22915992.099   -11308073.45949  -8799021.89046  22915991.769    22916004.661
       225.000         175.000
  20906777.838   -22225261.43849 -17302557.44047  20906777.499    20906788.197
       241.000         206.000
  22716506.795   -11881818.45349  -9245034.70546  22716507.079    22716520.032
       223.000         171.000
  23974111.602    -5586242.43349  -4124008.65945  23974110.958    23974128.025
       218.000         152.000
  24079186.166    -3989279.05449  -3083837.33345  24079185.427    24079204.792
       213.000         154.000
  20809719.335    -1579516.64249  -1227781.39347  20809718.582    20809729.489
       242.000         206.000
  21256784.315   -18787381.11849 -14627042.03247  21256783.845    21256795.822
       236.000         198.000
  20469149.432   -25873228.82749 -20144375.92148  20469149.133    20469158.051
       241.000         214.000
  21941596.139   -20111414.28649 -15665771.62246  21941596.099    21941610.882
       230.000         187.000
 02  3 21  0 47  0.0000000  0 10G21G23G17G26G 3G22G15G29G18G 6
  21983490.498   -17022738.06149 -13252254.57847  21983489.337    21983502.612
       237.000         195.000
  22930496.659   -11231852.47849  -8739628.95546  22930495.248    22930509.939
       224.000         175.000
  20906149.862   -22228561.70649 -17305129.04147  20906149.104    20906160.074
       241.000         206.000
  22729868.740   -11811601.45449  -9190320.19346  22729869.399    22729881.371
       224.000         171.000
  23956009.995    -5681366.75649  -4198131.28345  23956008.890    23956025.387
       220.000         158.000
  24086838.927    -3949064.02549  -3052501.05845  24086837.689    24086857.771
       214.000         154.000
  20806133.439    -1598360.45249  -1242464.82147  20806132.464    20806143.497
       243.000         206.000
  21244187.261   -18853578.49749 -14678624.22247  21244186.416    21244198.347
       237.000         198.000
  20470991.122   -25863550.52149 -20136834.33448  20470990.518    20470999.593
       241.000         214.000
  21958015.953   -20025128.09049 -15598535.76446  21958016.032    21958029.770
       231.000         186.000
 02  3 21  0 47 30.0000000  0 10G21G23G17G26G 3G22G15G29G18G 6
  21976350.413   -17060258.72649 -13281491.34947  21976350.049    21976362.731
       237.000         195.000
  22945007.857   -11155595.01449  -8680207.65746  22945008.651    22945021.147
       229.000         176.000
  20905550.942   -22231708.82049 -17307581.31347  20905550.449    20905561.107
       242.000         206.000
  22743325.592   -11740885.43049  -9135216.83746  22743324.834    22743339.100
       220.000         170.000
  23937946.081    -5776292.50049  -4272099.18545  23937944.326    23937961.853
       215.000         157.000
  24094553.340    -3908524.33449  -3020911.81145  24094553.568    24094573.357
       214.000         154.000
  20802577.748    -1617045.53849  -1257024.57447  20802577.076    20802587.951
       244.000         207.000
  21231669.453   -18919359.16249 -14729881.71247  21231669.151    21231680.811
       237.000         198.000
  20472901.194   -25853512.51749 -20129012.47648  20472900.826    20472909.826
       242.000         214.000
  21974501.554   -19938496.31449 -15531030.63546  21974502.159    21974515.850
       231.000         186.000
 02  3 21  0 48  0.0000000  0 10G21G23G17G26G 3G22G15G29G18G 6
  21969264.034   -17097497.46549 -13310508.42547  21969263.345    21969276.233
       237.000         195.000
  22959525.765   -11079304.33549  -8620760.41446  22959524.032    22959538.286
       224.000         174.000
  20904981.068   -22234703.54849 -17309914.83347  20904980.213    20904991.448
       240.000         206.000
  22756876.392   -11669674.34949  -9079727.76446  22756877.851    22756889.434
       223.000         171.000
  23919919.891    -5871019.18249  -4345911.91545  23919918.375    23919936.304
       211.000         151.000
  24102328.958    -3867663.94249  -2989072.68945  24102329.135    24102348.141
       213.000         154.000
  20799052.082    -1635572.55849  -1271461.14847  20799051.516    20799062.339
       244.000         207.000
  21219231.035   -18984722.48149 -14780813.98847  21219230.253    21219242.284
       237.000         199.000
  20474879.117   -25843118.25449 -20120913.00148  20474878.587    20474887.537
       242.000         214.000
  21991052.209   -19851522.52349 -15463258.98846  21991052.261    21991066.428
       230.000         186.000
 02  3 21  0 48 30.0000000  0 10G21G23G17G26G 3G22G15G29G18G 6
  21962231.525   -17134453.14949 -13339304.94847  21962230.724    21962243.573
       236.000         195.000
  22974049.682   -11002979.99149  -8561286.97746  22974050.536    22974062.420
       226.000         175.000
  20904440.654   -22237542.91449 -17312127.29447  20904440.227    20904451.239
       241.000         206.000
  22770521.733   -11597968.74849  -9023853.28546  22770522.395    22770534.577
       223.000         169.000
  23901932.428    -5965542.37649  -4419566.11345  23901931.907    23901948.666
       218.000         155.000
  24110165.323    -3826483.44449  -2956984.10945  24110163.821    24110185.416
       210.000         153.000
  20795557.161    -1653938.54649  -1285772.25947  20795556.296    20795567.281
       242.000         207.000
  21206872.917   -19049664.16349 -14831417.72947  21206872.478    21206884.277
       236.000         199.000
  20476924.991   -25832367.13749 -20112535.46848  20476924.520    20476933.687
       241.000         214.000
  22007667.910   -19764206.94749 -15395221.02746  22007667.599    22007682.152
       229.000         185.000
 02  3 21  0 49  0.0000000  0 10G21G23G17G26G 3G22G15G29G18G 6
  21955252.449   -17171127.88149 -13367882.54747  21955251.825    21955264.422
       236.000         195.000
  22988579.600   -10926625.27149  -8501789.86846  22988578.568    22988592.130
       222.000         174.000
  20903929.806   -22240227.72049 -17314219.32647  20903929.231    20903940.175
       240.000         206.000
  22784260.220   -11525772.60949  -8967596.60546  22784261.134    22784274.894
       220.000         170.000
  23883984.148    -6059860.86149  -4493060.81945  23883984.022    23884000.103
       219.000         161.000
  24118061.911    -3784986.88849  -2924649.26045  24118061.254    24118081.307
       209.000         152.000
  20792092.688    -1672144.31249  -1299958.51347  20792092.134    20792102.693
       242.000         207.000
  21194595.167   -19114183.46149 -14881692.33447  21194594.657    21194606.452
       237.000         199.000
  20479038.139   -25821262.14449 -20103882.19248  20479037.847    20479046.615
       241.000         214.000
  22024347.958   -19676553.25349 -15326919.60146  22024348.381    22024362.414
       230.000         185.000
 02  3 21  0 49 30.0000000  0 10G21G23G17G26G 3G22G15G29G18G 6
  21948326.912   -17207521.36949 -13396240.98647  21948325.840    21948338.957
       238.000         195.000
  23003115.032   -10850241.04949  -8442269.75646  23003115.505    23003128.388
       229.000         176.000
  20903448.681   -22242756.06349 -17316189.42847  20903447.974    20903459.026
       243.000         206.000
  22798091.582   -11453087.57249  -8910958.98746  22798092.599    22798104.649
       223.000         169.000
  23866075.367    -6153971.47349  -4566393.54545  23866074.450    23866090.603
       212.000         157.000
  24126018.260    -3743175.92349  -2892069.42245  24126018.825    24126037.888
       214.000         152.000
  20788659.007    -1690188.27149  -1314018.68147  20788657.982    20788669.053
       244.000         207.000
  21182398.349   -19178277.32949 -14931635.43847  21182397.871    21182409.482
       239.000         200.000
  20481218.497   -25809804.20049 -20094953.88148  20481217.878    20481226.748
       243.000         214.000
  22041092.107   -19588562.79949 -15258355.76046  22041092.359    22041106.372
       232.000         185.000
 02  3 21  0 50  0.0000000  0 10G21G23G17G26G 3G22G15G29G18G 6
  21941454.624   -17243635.12749 -13424381.46647  21941454.267    21941467.004
       237.000         196.000
  23017655.883   -10773829.75249  -8382728.54846  23017654.959    23017668.107
       223.000         175.000
  20902997.399   -22245127.71749 -17318037.45447  20902996.846    20903007.827
       241.000         206.000
  22812015.799   -11379916.98749  -8853942.96846  22812016.160    22812028.968
       222.000         171.000
  23848206.233    -6247872.60649  -4639563.01645  23848205.471    23848221.014
       211.000         148.000
  24134033.866    -3701053.80749  -2859247.10945  24134033.626    24134053.396
       211.000         151.000
  20785256.062    -1708070.57849  -1327952.89547  20785255.547    20785266.099
       244.000         207.000
  21170282.852   -19241944.15049 -14981245.78347  21170282.508    21170294.169
       237.000         200.000
  20483465.616   -25797995.45049 -20085752.22848  20483465.212    20483474.230
       242.000         214.000
  22057899.813   -19500238.52749 -15189531.81346  22057900.104    22057914.752
       229.000         184.000
 02  3 21  0 50 30.0000000  0 10G21G23G17G26G 3G22G15G29G18G 6
  21934635.569   -17279469.13349 -13452303.94647  21934634.948    21934647.733
       236.000         196.000
  23032201.358   -10697392.22249  -8323166.90446  23032201.908    23032213.089
       225.000         173.000
  20902576.070   -22247341.47049 -17319762.42947  20902575.488    20902586.718
       240.000         206.000
  22826031.577   -11306262.72049  -8796550.06846  22826031.907    22826044.654
       222.000         166.000
  23830377.750    -6341560.89749  -4712566.72945  23830377.653    23830393.531
       218.000         149.000
  24142108.329    -3658622.62849  -2826183.95745  24142107.667    24142127.877
       212.000         151.000
  20781884.238    -1725789.65549  -1341759.90947  20781883.811    20781894.439
       243.000         207.000
  21158249.094   -19305181.30749 -15030521.31747  21158248.869    21158260.482
       237.000         200.000
  20485779.286   -25785836.82549 -20076277.93948  20485778.950    20485787.840
       241.000         214.000
  22074770.676   -19411581.98549 -15120448.94246  22074770.894    22074784.931
       228.000         184.000
 02  3 21  0 51  0.0000000  0 10G21G23G17G26G 3G22G15G29G18G 6
  21927869.770   -17315023.27149 -13480008.35047  21927868.992    21927881.907
       236.000         195.000
  23046751.880   -10620929.30849  -8263585.47046  23046751.076    23046763.878
       224.000         173.000
  20902185.181   -22249395.28949 -17321362.78347  20902184.649    20902195.426
       241.000         206.000
  22840139.313   -11232126.49949  -8738781.65546  22840139.271    22840153.776
       222.000         169.000
  23812590.488    -6435033.14849  -4785402.06745  23812589.737    23812606.794
       215.000         155.000
  24150241.250    -3615883.85849  -2792881.13445  24150240.916    24150261.552
       211.000         150.000
  20778543.750    -1743343.98949  -1355438.56447  20778543.014    20778553.608
       243.000         207.000
  21146297.728   -19367985.67149 -15079459.62247  21146297.163    21146308.964
       238.000         201.000
  20488159.451   -25773328.80149 -20066531.39748  20488159.093    20488168.104
       241.000         214.000
  22091704.528   -19322594.42949 -15051108.15846  22091704.941    22091719.338
       229.000         184.000
 02  3 21  0 51 30.0000000  0 10G21G23G17G26G 3G22G15G29G18G 6
  21921156.730   -17350300.18049 -13507496.72847  21921155.890    21921168.638
       237.000         196.000
  23061306.477   -10544444.41649  -8203986.93046  23061306.690    23061319.427
       225.000         173.000
  20901824.679   -22251290.04949 -17322839.20247  20901824.508    20901834.949
       242.000         206.000
  22854338.031   -11157512.71749  -8680641.06246  22854338.221    22854350.491
       222.000         169.000
  23794844.331    -6528288.70249  -4858068.47345  23794843.013    23794860.129
       210.000         155.000
  24158431.816    -3572841.91649  -2759342.08545  24158430.796    24158451.675
       211.000         150.000
  20775234.323    -1760734.61149  -1368989.64247  20775233.725    20775244.375
       242.000         207.000
  21134428.801   -19430356.81549 -15128060.35247  21134428.470    21134440.103
       238.000         201.000
  20490605.455   -25760474.94949 -20056515.37248  20490605.129    20490613.899
       241.000         215.000
  22108700.678   -19233279.67749 -14981512.40746  22108700.805    22108715.622
       229.000         183.000
 02  3 21  0 52  0.0000000  0 10G21G23G17G26G 3G22G15G29G18G 6
  21914496.664   -17385298.40049 -13534767.94547  21914496.060    21914508.571
       236.000         196.000
  23075865.464   -10467937.40649  -8144371.13546  23075864.401    23075877.728
       223.000         173.000
  20901494.922   -22253022.98349 -17324189.51547  20901494.257    20901505.205
       239.000         206.000
  22868627.195   -11082422.06149  -8622128.90846  22868627.858    22868641.585
       220.000         167.000
  23777140.079    -6621323.50649  -4930562.87345  23777139.639    23777156.206
       216.000         154.000
  24166680.063    -3529497.63249  -2725567.40545  24166679.196    24166701.004
       209.000         150.000
  20771956.629    -1777958.95849  -1382411.16747  20771955.974    20771966.661
       242.000         207.000
  21122643.064   -19492290.78849 -15176320.42547  21122642.729    21122654.157
       236.000         201.000
  20493117.254   -25747275.10249 -20046229.73948  20493117.030    20493125.956
       241.000         215.000
  22125758.933   -19143638.25649 -14911662.11246  22125758.636    22125773.624
       228.000         183.000
 02  3 21  0 52 30.0000000  0 11G21G23G17G26G 3G22G15G29G14G18G 6
  21907889.249   -17420019.98149 -13561823.59747  21907888.335    21907901.037
       236.000         196.000
  23090427.934   -10391411.00949  -8084740.25046  23090427.420    23090440.766
       224.000         174.000
  20901195.743   -22254594.54749 -17325414.08347  20901194.794    20901205.829
       241.000         206.000
  22883006.533   -11006858.34349  -8563248.13346  22883006.774    22883018.579
       218.000         167.000
  23759478.384    -6714136.01949  -5002884.16845  23759478.056    23759493.764
       219.000         155.000
  24174985.024    -3485854.70549  -2691560.06245  24174984.496    24175005.493
       213.000         150.000
  20768710.464    -1795017.35649  -1395703.36547  20768709.402    20768720.414
       242.000         207.000
  21110940.656   -19553786.54849 -15224239.03647  21110940.300    21110951.323
       238.000         201.000
                  -1454445.99249  -1109896.21244                  24617892.188
       204.000         113.000
  20495694.444   -25733731.81349 -20035676.48648  20495693.806    20495702.568
       241.000         215.000
  22142878.673   -19053673.65149 -14841559.98546  22142878.344    22142893.477
       228.000         182.000
 02  3 21  0 53  0.0000000  0 11G21G23G17G26G 3G22G15G29G14G18G 6
  21901334.198   -17454466.18549 -13588664.67147  21901333.432    21901346.263
       237.000         196.000
  23104993.919   -10314866.90849  -8025095.56646  23104993.946    23105005.807
       226.000         173.000
  20900927.447   -22256003.98549 -17326512.33047  20900927.199    20900937.832
       242.000         205.000
  22897475.269   -10930824.50949  -8504001.03346  22897476.437    22897489.365
       224.000         168.000
  23741859.450    -6806723.94949  -5075030.41745  23741859.223    23741874.282
       214.000         155.000
  24183346.314    -3441916.02749  -2657322.25945  24183345.558    24183367.142
       211.000         151.000
  20765495.956    -1811909.39449  -1408865.93947  20765495.387    20765505.694
       243.000         207.000
  21099321.967   -19614842.42049 -15271814.88447  21099321.783    21099332.827
       239.000         201.000
  24596544.114    -1566501.04949  -1197211.42345  24596544.137    24596567.707
       207.000         133.000
  20498336.540   -25719847.17449 -20024857.25348  20498336.057    20498345.240
       242.000         215.000
  22160059.600   -18963388.21949 -14771207.87146  22160059.960    22160074.535
       229.000         182.000
 02  3 21  0 53 30.0000000  0 11G21G23G17G26G 3G22G15G29G14G18G 6
  21894831.169   -17488638.97449 -13615292.69347  21894830.184    21894843.337
       236.000         197.000
  23119562.683   -10238308.24249  -7965439.51046  23119562.810    23119576.055
       225.000         173.000
  20900690.071   -22257251.69649 -17327484.55547  20900689.494    20900700.191
       241.000         205.000
  22912032.792   -10854324.59749  -8444390.77246  22912031.810    22912046.296
       220.000         167.000
  23724283.188    -6899086.67549  -5147001.10645  23724281.702    23724299.480
       214.000         156.000
  24191763.190    -3397685.72349  -2622857.21045  24191762.771    24191784.274
       210.000         151.000
  20762312.975    -1828635.78049  -1421899.42847  20762311.891    20762322.677
       241.000         207.000
  21087787.114   -19675457.72649 -15319047.43047  21087786.729    21087797.793
       238.000         202.000
  24575218.296    -1678567.21849  -1284535.21645  24575217.201    24575240.251
       207.000         133.000
  20501043.029   -25705624.23549 -20013774.40948  20501042.464    20501051.480
       242.000         215.000
  22177300.769   -18872785.76349 -14700608.72446  22177300.694    22177315.091
       228.000         182.000
 02  3 21  0 54  0.0000000  0 11G21G23G17G26G 3G22G15G29G14G18G 6
  21888380.334   -17522537.75049 -13641707.21047  21888379.880    21888392.242
       238.000         197.000
  23134134.024   -10161735.42049  -7905772.47846  23134133.533    23134146.751
       224.000         173.000
  20900483.783   -22258335.71049 -17328329.22947  20900483.416    20900494.042
       242.000         206.000
  22926678.593   -10777360.01449  -8384418.44246  22926679.610    22926691.347
       222.000         165.000
  23706750.576    -6991220.29549  -5218793.30845  23706749.839    23706766.112
       218.000         159.000
  24200235.274    -3353165.11449  -2588165.96045  24200234.996    24200256.614
       213.000         152.000
  20759161.884    -1845194.21549  -1434802.05647  20759161.042    20759172.122
       243.000         207.000
  21076336.820   -19735628.98849 -15365933.97447  21076336.456    21076347.574
       239.000         202.000
  24553891.459    -1790640.72349  -1371864.76745  24553891.675    24553914.095
       203.000         134.000
  20503813.878   -25691063.36749 -20002428.24548  20503813.625    20503822.382
       243.000         215.000
  22194602.127   -18781867.24849 -14629763.30846  22194602.616    22194616.656
       228.000         181.000
 02  3 21  0 54 30.0000000  0 11G21G23G17G26G 3G22G15G29G14G18G 6
  21881982.025   -17556160.82649 -13667906.89047  21881981.529    21881994.143
       238.000         197.000
  23148708.118   -10085148.05449  -7846094.07446  23148707.913    23148720.208
       223.000         172.000
  20900309.227   -22259253.02549 -17329043.99947  20900308.787    20900319.638
       241.000         205.000
  22941412.996   -10699931.55349  -8324084.55946  22941413.090    22941426.675
       223.000         167.000
  23689262.575    -7083120.25549  -5290403.47245  23689261.266    23689277.896
       218.000         158.000
  24208762.609    -3308354.95249  -2553249.08545  24208762.472    24208782.140
       214.000         152.000
  20756043.387    -1861581.95949  -1447571.68147  20756042.841    20756053.510
       243.000         207.000
  21064971.749   -19795352.12149 -15412471.33247  21064971.384    21064982.492
       239.000         202.000
  24532563.894    -1902717.05949  -1459196.50845  24532562.580    24532587.406
       205.000         134.000
  20506649.093   -25676164.06749 -19990818.37048  20506648.882    20506657.821
       243.000         215.000
  22211963.562   -18690632.95649 -14558671.83346  22211964.287    22211978.444
       229.000         181.000
 02  3 21  0 55  0.0000000  0 11G21G23G17G26G 3G22G15G29G14G18G 6
  21875635.996   -17589509.03449 -13693892.37947  21875635.433    21875648.364
       238.000         197.000
  23163284.820   -10008547.37749  -7786405.29946  23163285.231    23163297.426
       225.000         173.000
  20900166.634   -22260002.32649 -17329627.84847  20900165.816    20900177.140
       242.000         205.000
  22956234.818   -10622041.35549  -8263391.01946  22956234.320    22956249.362
       218.000         166.000
  23671819.346    -7174784.21149  -5361829.71145  23671818.141    23671834.583
       216.000         157.000
  24217344.593    -3263257.47649  -2518108.34245  24217344.241    24217364.501
       213.000         152.000
  20752957.560    -1877797.86449  -1460207.40347  20752956.867    20752967.293
       243.000         207.000
  21053692.330   -19854625.05049 -15458657.87147  21053691.962    21053703.273
       241.000         202.000
  24511236.456    -2014793.24949  -1546528.12245  24511237.234    24511257.350
       203.000         134.000
  20509548.430   -25660927.84849 -19978945.95548  20509548.115    20509556.849
       243.000         215.000
  22229384.684   -18599084.95549 -14487335.89346  22229384.987    22229399.987
       229.000         180.000
 02  3 21  0 55 30.0000000  0 11G21G23G17G26G 3G22G15G29G14G18G 6
  21869342.081   -17622583.14749 -13719664.29847  21869341.470    21869354.125
       237.000         197.000
  23177863.794    -9931934.40849  -7726706.97346  23177862.909    23177875.795
       222.000         171.000
  20900056.235   -22260582.22449 -17330079.70147  20900055.613    20900066.406
       241.000         206.000
  22971144.346   -10543691.85749  -8202339.53546  22971144.468    22971157.162
       219.000         166.000
  23654421.580    -7266209.03249  -5433069.57245  23654420.256    23654437.215
       217.000         159.000
  24225980.769    -3217874.87449  -2482745.43445  24225981.412    24226000.641
       212.000         152.000
  20749904.655    -1893840.72949  -1472708.29447  20749904.140    20749914.487
       242.000         207.000
  21042499.180   -19913444.97149 -15504491.42947  21042498.881    21042509.965
       240.000         202.000
  24489909.255    -2126866.36349  -1633857.34445  24489908.079    24489931.250
       205.000         134.000
  20512511.677   -25645355.57749 -19966811.69048  20512511.414    20512520.336
       242.000         215.000
  22246865.173   -18507224.93049 -14415756.83346  22246865.525    22246880.360
       227.000         180.000
 02  3 21  0 56  0.0000000  0 11G21G23G17G26G 3G22G15G29G14G18G 6
  21863100.221   -17655383.83249 -13745223.15147  21863099.671    21863111.911
       237.000         197.000
  23192444.764    -9855310.70249  -7667000.25446  23192444.964    23192457.516
       224.000         171.000
  20899978.315   -22260991.69749 -17330398.75347  20899977.816    20899988.224
       241.000         205.000
  22986140.694   -10464885.64649  -8140932.12146  22986142.185    22986153.841
       222.000         164.000
  23637069.775    -7357392.33749  -5504121.25845  23637069.497    23637084.508
       216.000         159.000
  24234670.756    -3172209.78049  -2447162.40045  24234670.896    24234691.089
       213.000         153.000
  20746884.871    -1909709.73749  -1485073.71047  20746884.151    20746895.113
       242.000         207.000
  21031392.584   -19971809.89349 -15549970.43647  21031392.230    21031403.094
       240.000         203.000
  24468583.285    -2238933.91549  -1721182.24945  24468582.013    24468604.745
       202.000         135.000
  20515538.599   -25629448.98949 -19954416.91348  20515538.238    20515547.120
       242.000         215.000
  22264404.621   -18415055.03849 -14343936.30846  22264405.243    22264420.422
       228.000         180.000
 02  3 21  0 56 30.0000000  0 11G21G23G17G26G 3G22G15G29G14G18G 6
  21856909.896   -17687913.49549 -13770570.81947  21856909.197    21856921.509
       237.000         197.000
  23207027.296    -9778679.43049  -7607287.64246  23207025.970    23207040.775
       220.000         171.000
  20899932.631   -22261231.42849 -17330585.53347  20899932.158    20899942.559
       241.000         205.000
  23001223.101   -10385626.98049  -8079172.22946  23001222.825    23001238.014
       216.000         164.000
  23619764.145    -7448333.40249  -5574984.20545  23619763.198    23619779.476
       215.000         157.000
  24243413.698    -3126266.36349  -2411362.50445  24243413.834    24243433.039
       213.000         153.000
  20743898.003    -1925405.55749  -1497304.17247  20743897.259    20743907.961
       242.000         207.000
  21020372.597   -20029719.60749 -15595094.73947  21020372.099    21020383.110
       239.000         203.000
  24447258.358    -2350995.03149  -1808502.10245  24447257.086    24447280.291
       208.000         134.000
  20518628.479   -25613211.46649 -19941764.26948  20518627.929    20518636.878
       242.000         215.000
  22282002.320   -18322579.19249 -14271877.39246  22282002.790    22282018.637
       226.000         179.000
 02  3 21  0 57  0.0000000  0 11G21G23G17G26G 3G22G15G29G14G18G 6
  21850771.389   -17720171.15849 -13795706.53947  21850771.096    21850783.318
       239.000         198.000
  23221610.989    -9702040.59649  -7547569.17346  23221611.353    23221624.439
       224.000         171.000
  20899919.781   -22261299.03049 -17330638.18947  20899919.537    20899930.022
       242.000         205.000
  23016391.345   -10305917.07049  -8017060.68346  23016391.993    23016405.779
       221.000         165.000
  23602505.393    -7539027.94449  -5645655.04845  23602504.716    23602519.850
       218.000         159.000
  24252209.307    -3080046.01549  -2375346.80145  24252208.276    24252229.608
       212.000         153.000
  20740944.541    -1940925.83749  -1509397.84947  20740943.823    20740954.625
       244.000         207.000
  21009439.925   -20087170.63849 -15639861.63247  21009439.628    21009450.512
       241.000         203.000
  24425935.503    -2463045.44049  -1895813.61445  24425932.879    24425957.132
       206.000         136.000
  20521781.310   -25596642.98749 -19928853.73748  20521780.637    20521789.749
       244.000         215.000
  22299658.062   -18229798.15449 -14199580.65646  22299658.797    22299674.138
       229.000         179.000
 02  3 21  0 57 30.0000000  0 11G21G23G17G26G 3G22G15G29G14G18G 6
  21844684.340   -17752158.69149 -13820631.77047  21844683.570    21844695.887
       237.000         198.000
  23236195.948    -9625396.91849  -7487846.89646  23236195.626    23236208.890
       222.000         172.000
  20899939.563   -22261194.79149 -17330556.94747  20899939.143    20899949.874
       240.000         205.000
  23031644.831   -10225760.14749  -7954600.81046  23031645.464    23031658.888
       219.000         165.000
  23585293.676    -7629474.85649  -5716132.89645  23585292.462    23585308.386
       216.000         160.000
  24261056.848    -3033552.50849  -2339118.27145  24261056.020    24261077.424
       212.000         152.000
  20738024.373    -1956271.24049  -1521355.26447  20738023.845    20738034.345
       242.000         207.000
  20998594.709   -20144162.08949 -15684270.41547  20998594.456    20998605.271
       239.000         203.000
  24404614.894    -2575083.97349  -1983115.85545  24404612.898    24404637.513
       207.000         136.000
  20524996.569   -25579746.51949 -19915687.63448  20524996.181    20525004.962
       242.000         215.000
  22317371.236   -18136715.54549 -14127048.94746  22317371.735    22317386.181
       227.000         179.000
 02  3 21  0 58  0.0000000  0 11G21G23G17G26G 3G22G15G29G14G18G 6
  21838648.615   -17783876.00049 -13845346.44047  21838647.819    21838660.148
       236.000         198.000
  23250781.531    -9548749.19249  -7428121.47846  23250781.159    23250793.523
       222.000         171.000
  20899992.386   -22260916.95949 -17330340.42947  20899991.907    20900002.807
       240.000         206.000
  23046982.970   -10145158.03249  -7891794.03645  23046981.677    23046995.534
       215.000         162.000
  23568129.699    -7719671.20849  -5786415.53245  23568128.474    23568144.280
       216.000         161.000
  24269955.901    -2986787.78949  -2302678.40545  24269956.019    24269976.751
       212.000         152.000
  20735137.803    -1971440.10549  -1533175.11347  20735137.173    20735147.925
       242.000         207.000
  20987837.368   -20200691.42349 -15728319.10047  20987837.093    20987848.112
       239.000         204.000
  24383297.140    -2687107.39349  -2070406.34145  24383294.626    24383317.636
       204.000         136.000
  20528274.041   -25562523.09749 -19902266.75748  20528273.692    20528282.459
       242.000         215.000
  22335141.528   -18043332.92749 -14054283.44946  22335142.143    22335156.704
       227.000         179.000
 02  3 21  0 58 30.0000000  0 11G21G23G17G26G 3G22G15G29G14G18G 6
  21832663.833   -17815325.61949 -13869852.51547  21832663.092    21832675.486
       238.000         198.000
  23265367.346    -9472100.15449  -7368395.01046  23265366.542    23265380.280
       220.000         169.000
  20900078.222   -22260465.77149 -17329988.82447  20900077.677    20900088.384
       241.000         205.000
  23062404.969   -10064114.65149  -7828643.43046  23062406.118    23062419.224
       223.000         163.000
  23551013.579    -7809615.64049  -5856501.85845  23551012.513    23551028.596
       217.000         161.000
  24278905.888    -2939755.72149  -2266030.19345  24278905.783    24278925.707
       212.000         151.000
  20732284.691    -1986432.87549  -1544857.74747  20732283.928    20732294.482
       243.000         207.000
  20977168.174   -20256757.84849 -15772007.07747  20977167.899    20977178.552
       240.000         204.000
  24361982.607    -2799114.19949  -2157683.80445  24361981.061    24362003.570
       207.000         138.000
  20531613.267   -25544975.39349 -19888593.18948  20531612.810    20531621.502
       243.000         215.000
  22352968.191   -17949653.93849 -13981287.01146  22352968.582    22352982.686
       228.000         179.000
 02  3 21  0 59  0.0000000  0 11G21G23G17G26G 3G22G15G29G14G18G 6
  21826730.218   -17846506.60649 -13894149.26947  21826729.390    21826742.220
       238.000         198.000
  23279953.519    -9395449.44349  -7308667.27046  23279953.244    23279966.990
       222.000         170.000
  20900197.559   -22259838.55749 -17329500.05847  20900197.504    20900208.038
       241.000         205.000
  23077911.064    -9982631.20649  -7765149.90746  23077910.275    23077924.979
       216.000         165.000
  23533946.315    -7899303.88049  -5926388.54545  23533945.329    23533960.999
       218.000         162.000
  24287906.560    -2892457.45449  -2229174.58145  24287906.122    24287926.517
       211.000         150.000
  20729465.651    -2001246.87049  -1556401.07947  20729464.860    20729475.462
       243.000         207.000
  20966587.757   -20312357.60249 -15815331.41247  20966587.593    20966598.257
       241.000         204.000
  24340671.919    -2911100.20349  -2244945.16145  24340668.696    24340693.914
       207.000         138.000
  20535014.187   -25527103.37649 -19874666.91748  20535013.926    20535022.641
       243.000         215.000
  22370851.195   -17855679.08449 -13908060.03346  22370851.742    22370866.708
       228.000         179.000
 02  3 21  0 59 30.0000000  0 11G21G23G17G26G 3G22G15G29G14G18G 6
  21820847.463   -17877420.17749 -13918237.65947  21820846.952    21820858.862
       239.000         198.000
  23294539.704    -9318799.14449  -7248939.84546  23294539.406    23294553.390
       221.000         171.000
  20900350.520   -22259034.67849 -17328873.63447  20900350.309    20900360.769
       242.000         205.000
  23093499.820    -9900710.84249  -7701315.95946  23093499.453    23093513.567
       220.000         164.000
  23516928.104    -7988734.15549  -5996074.24845  23516926.501    23516942.120
       218.000         162.000
  24296957.348    -2844895.93249  -2192113.82145  24296957.996    24296976.721
       212.000         150.000
  20726680.759    -2015881.72049  -1567804.81647  20726680.298    20726690.512
       243.000         208.000
  20956096.409   -20367489.41149 -15858291.12447  20956095.907    20956106.789
       241.000         204.000
  24319365.712    -3023063.46049  -2332188.72645  24319364.454    24319387.545
       208.000         140.000
  20538476.331   -25508909.64649 -19860489.96048  20538475.989    20538484.616
       243.000         215.000
  22388789.925   -17761411.28149 -13834604.78546  22388790.273    22388805.855
       228.000         178.000
 02  3 21  1  0  0.0000000  0 11G21G23G17G26G 3G22G15G29G14G18G 6
  21815015.440   -17908067.47449 -13942118.56447  21815015.059    21815026.880
       237.000         198.000
  23309125.349    -9242151.00249  -7189214.10046  23309124.729    23309138.704
       220.000         170.000
  20900537.256   -22258053.53249 -17328109.07847  20900536.989    20900547.765
       240.000         205.000
  23109171.384    -9818356.75749  -7637144.02745  23109170.924    23109184.167
       216.000         160.000
  23499959.287    -8077904.08849  -6065557.08245  23499958.457    23499973.712
       213.000         159.000
  24306057.649    -2797074.39449  -2154850.42445  24306056.997    24306076.912
       210.000         149.000
  20723930.013    -2030336.99649  -1579068.62747  20723929.402    20723939.802
       242.000         208.000
  20945694.436   -20422151.64749 -15900884.93947  20945694.248    20945705.063
       240.000         204.000
  24298064.105    -3135001.78549  -2419412.89645  24298061.382    24298084.257
       207.000         138.000
  20541999.379   -25490395.68149 -19846063.46848  20541998.970    20542007.890
       242.000         215.000
  22406783.935   -17666853.15149 -13760923.31246  22406784.956    22406799.139
       227.000         178.000
 02  3 21  1  0 30.0000000  0 11G21G23G17G26G 3G22G15G29G14G18G 6
  21809233.938   -17938449.03149 -13965792.39347  21809233.412    21809245.308
       239.000         198.000
  23323710.436    -9165505.94849  -7129490.75446  23323710.531    23323723.445
       222.000         168.000
  20900757.936   -22256893.67449 -17327205.26247  20900757.547    20900768.267
       242.000         205.000
  23124925.014    -9735571.25549  -7572635.89546  23124926.606    23124940.290
       221.000         165.000
  23483040.706    -8166810.78849  -6134834.79845  23483040.479    23483055.587
       221.000         162.000
  24315206.867    -2748994.97549  -2117386.09845  24315205.703    24315226.223
       213.000         149.000
  20721213.652    -2044611.11349  -1590191.27647  20721213.193    20721223.553
       243.000         208.000
  20935382.248   -20476342.00949 -15943111.05547  20935382.077    20935392.633
       241.000         204.000
  24276767.939    -3246912.13149  -2506615.25745  24276766.045    24276789.332
       207.000         142.000
  20545583.096   -25471562.87749 -19831388.53348  20545582.839    20545591.536
       244.000         215.000
  22424832.713   -17572006.53049 -13687017.03446  22424832.911    22424848.207
       228.000         177.000
 02  3 21  1  1  0.0000000  0 11G21G23G17G26G 3G22G15G29G14G18G 6
  21803502.896   -17968565.56249 -13989259.70347  21803502.279    21803514.474
       238.000         198.000
  23338294.691    -9088865.71149  -7069771.15846  23338295.045    23338308.147
       223.000         169.000
  20901012.745   -22255554.45849 -17326161.67847  20901012.070    20901022.811
       241.000         205.000
  23140760.139    -9652357.43149  -7507794.08146  23140759.815    23140773.691
       216.000         163.000
  23466172.749    -8255452.39449  -6203905.99046  23466172.087    23466186.453
       220.000         164.000
  24324404.572    -2700660.64149  -2079723.14245  24324405.075    24324423.790
       212.000         148.000
  20718531.901    -2058703.70649  -1601172.46747  20718531.279    20718541.422
       242.000         208.000
  20925160.095   -20530059.10649 -15984968.38947  20925159.693    20925170.395
       240.000         205.000
  24255477.497    -3358792.08749  -2593793.95645  24255475.893    24255499.058
       208.000         140.000
  20549227.196   -25452413.01949 -19816466.53848  20549226.666    20549235.272
       242.000         215.000
  22442935.903   -17476874.15449 -13612888.08746  22442935.489    22442951.222
       226.000         177.000
 02  3 21  1  1 30.0000000  0 11G21G23G17G26G 3G22G15G29G14G18G 6
  21797822.041   -17998418.14649 -14012521.34747  21797821.122    21797833.284
       239.000         199.000
  23352877.886    -9012231.65749  -7010056.37646  23352877.669    23352891.497
       224.000         171.000
  20901301.863   -22254034.81749 -17324977.50947  20901301.370    20901311.682
       242.000         205.000
  23156676.192    -9568718.02549  -7442620.56745  23156676.786    23156689.452
       218.000         162.000
  23449355.356    -8343826.39149  -6272768.61645  23449354.510    23449369.670
       215.000         159.000
  24333650.367    -2652074.22349  -2041863.71945  24333649.925    24333671.295
       212.000         149.000
  20715884.883    -2072613.65149  -1612011.33847  20715883.752    20715894.592
       243.000         208.000
  20915028.416   -20583300.86349 -16026455.34047  20915028.057    20915038.717
       241.000         205.000
  24234193.435    -3470638.97749  -2680946.90045  24234191.978    24234213.660
       206.000         142.000
  20552931.243   -25432947.86149 -19801298.86348  20552930.722    20552939.453
       243.000         215.000
  22461093.063   -17381458.28249 -13538538.23946  22461093.199    22461108.788
       227.000         177.000
 02  3 21  1  2  0.0000000  0 11G21G23G17G26G 3G22G15G29G14G18G 6
  21792191.139   -18028008.14049 -14035578.36947  21792190.361    21792202.981
       239.000         199.000
  23367459.237    -8935605.56149  -6950347.81246  23367458.225    23367471.949
       218.000         168.000
  20901625.469   -22252334.03949 -17323652.20047  20901624.906    20901635.570
       241.000         205.000
  23172672.737    -9484656.27749  -7377117.99446  23172673.832    23172686.827
       221.000         163.000
  23432589.620    -8431930.43749  -6341420.92046  23432589.486    23432604.311
       221.000         164.000
  24342943.500    -2603238.75349  -2003810.26545  24342942.681    24342964.135
       211.000         149.000
  20713272.763    -2086340.36949  -1622707.43847  20713272.230    20713282.421
       244.000         208.000
  20904987.479   -20636065.79049 -16067570.73147  20904986.929    20904997.522
       241.000         205.000
  24212916.007    -3582450.47849  -2768072.24545  24212914.748    24212936.060
       208.000         142.000
  20556694.906   -25413169.47949 -19785887.11448  20556694.527    20556703.267
       244.000         215.000
  22479303.646   -17285761.62149 -13463969.60946  22479304.152    22479319.302
       227.000         176.000
 02  3 21  1  2 30.0000000  0 11G21G23G17G26G 3G22G15G29G14G18G 6
  21786610.252   -18057335.31249 -14058430.59747  21786609.574    21786621.565
       238.000         199.000
  23382038.983    -8858988.02649  -6890645.90946  23382038.841    23382052.649
       221.000         167.000
  20901983.848   -22250450.24949 -17322184.28647  20901983.068    20901994.092
       240.000         205.000
  23188749.351    -9400174.11849  -7311287.80545  23188748.673    23188763.352
       215.000         161.000
  23415875.859    -8519761.31749  -6409860.35146  23415874.887    23415890.184
       212.000         163.000
  24352283.588    -2554156.03849  -1965564.13945  24352284.754    24352304.721
       212.000         149.000
  20710695.799    -2099882.42249  -1633259.64447  20710694.914    20710705.323
       243.000         208.000
  20895037.770   -20688351.26249 -16108312.52747  20895037.447    20895048.162
       241.000         205.000
  24191645.952    -3694223.22649  -2855167.41145  24191644.293    24191666.906
       209.000         141.000
  20560518.049   -25393078.69549 -19770231.93648  20560517.600    20560526.366
       243.000         215.000
  22497567.357   -17189785.79349 -13389183.43946  22497568.018    22497583.546
       226.000         176.000
 02  3 21  1  3  0.0000000  0 11G21G23G17G26G 3G22G15G29G14G18G 6
  21781079.256   -18086400.25849 -14081078.49747  21781078.493    21781090.771
       238.000         199.000
  23396617.154    -8782380.01349  -6830951.42746  23396616.969    23396631.138
       223.000         168.000
  20902377.347   -22248382.03349 -17320572.66147  20902377.205    20902387.728
       241.000         205.000
  23204905.241    -9315273.95749  -7245131.94546  23204906.108    23204919.437
       222.000         164.000
  23399214.351    -8607316.18149  -6478084.68545  23399214.041    23399228.651
       220.000         160.000
  24361670.545    -2504828.45849  -1927127.22545  24361670.686    24361692.086
       212.000         150.000
  20708154.155    -2113238.43449  -1643666.87047  20708153.334    20708164.157
       243.000         208.000
  20885179.677   -20740155.23449 -16148679.13047  20885179.491    20885189.753
       240.000         205.000
  24170383.890    -3805954.30349  -2942230.08045  24170383.342    24170404.603
       207.000         141.000
  20564400.407   -25372676.75049 -19754334.29648  20564399.942    20564408.661
       243.000         215.000
  22515883.812   -17093532.72449 -13314181.23846  22515883.868    22515899.837
       226.000         175.000
 02  3 21  1  3 30.0000000  0 11G21G23G17G26G 3G22G15G29G14G18G 6
  21775597.818   -18115204.99349 -14103523.63047  21775596.998    21775608.903
       239.000         199.000
  23411193.129    -8705784.04249  -6771266.30746  23411192.938    23411205.703
       225.000         168.000
  20902806.068   -22246129.44849 -17318817.37447  20902805.369    20902816.404
       241.000         205.000
  23221140.174    -9229959.91349  -7178653.53146  23221139.809    23221154.021
       216.000         163.000
  23382606.113    -8694593.56949  -6546092.89346  23382606.318    23382620.338
       223.000         166.000
  24371103.353    -2455259.90249  -1888502.51945  24371102.877    24371125.561
       212.000         151.000
  20705647.903    -2126408.51549  -1653929.21847  20705647.099    20705657.817
       244.000         208.000
  20875413.339   -20791477.06649 -16188670.03747  20875412.972    20875423.563
       241.000         205.000
  24149129.954    -3917642.21949  -3029259.14045  24149128.536    24149150.474
       208.000         142.000
  20568341.431   -25351966.54949 -19738196.45548  20568340.954    20568349.647
       243.000         215.000
  22534252.386   -16997006.08749 -13238965.87546  22534253.261    22534267.852
       226.000         175.000
 02  3 21  1  4  0.0000000  0 11G21G23G17G26G 3G22G15G29G14G18G 6
  21770165.929   -18143749.31749 -14125765.84847  21770165.448    21770177.430
       237.000         199.000
  23425766.672    -8629200.13149  -6711590.58146  23425765.610    23425780.021
       219.000         165.000
  20903270.196   -22243690.23249 -17316916.66047  20903270.047    20903280.432
       241.000         205.000
  23237453.364    -9144233.28749  -7111853.65345  23237454.185    23237466.515
       219.000         162.000
  23366051.059    -8781590.05249  -6613882.12546  23366049.411    23366065.700
       214.000         165.000
  24380581.528    -2405451.62449  -1849691.02045  24380580.875    24380603.336
       212.000         150.000
  20703177.555    -2139390.29949  -1664044.84947  20703176.779    20703187.642
       242.000         208.000
  20865739.403   -20842313.60449 -16228282.80247  20865739.329    20865749.717
       240.000         205.000
  24127885.020    -4029282.95749  -3116251.43045  24127882.335    24127904.903
       208.000         141.000
  20572341.009   -25330948.37449 -19721818.64048  20572340.815    20572349.375
       242.000         215.000
  22552672.900   -16900206.80449 -13163538.05646  22552673.649    22552688.445
       225.000         174.000
 02  3 21  1  4 30.0000000  0 11G21G23G17G26G 3G22G15G29G14G18G 6
  21764783.336   -18172034.48349 -14147806.12547  21764782.615    21764794.982
       238.000         199.000
  23440337.187    -8552630.16649  -6651925.77546  23440335.853    23440351.156
       219.000         165.000
  20903770.017   -22241063.80649 -17314870.06747  20903769.531    20903780.389
       240.000         205.000
  23253844.523    -9058097.58049  -7044734.99645  23253844.648    23253859.091
       218.000         160.000
  23349549.719    -8868303.52749  -6681450.85446  23349549.283    23349563.355
       222.000         164.000
  24390104.865    -2355407.00049  -1810695.36245  24390104.712    24390125.879
       213.000         150.000
  20700742.976    -2152183.59849  -1674013.60147  20700742.224    20700753.087
       242.000         208.000
  20856158.028   -20892663.35349 -16267516.24547  20856157.573    20856168.312
       240.000         205.000
  24106649.549    -4140874.35149  -3203205.26845  24106648.784    24106669.063
       209.000         141.000
  20576398.825   -25309624.38549 -19705202.52548  20576398.416    20576407.354
       243.000         215.000
  22571144.658   -16803137.79549 -13087900.06546  22571144.792    22571160.332
       224.000         174.000
 02  3 21  1  5  0.0000000  0 11G21G23G17G26G 3G22G15G29G14G18G 6
  21759450.080   -18200060.39349 -14169644.37947  21759449.666    21759461.435
       238.000         199.000
  23454905.187    -8476075.12449  -6592272.56346  23454905.677    23454918.739
       219.000         167.000
  20904305.776   -22238248.61249 -17312676.37847  20904305.261    20904316.068
       240.000         205.000
  23270313.010    -8971555.38449  -6977299.58846  23270313.777    23270327.854
       220.000         163.000
  23333102.998    -8954731.19549  -6748796.91746  23333102.939    23333117.337
       216.000         165.000
  24399672.707    -2305128.58649  -1771517.53845  24399671.899    24399693.386
       212.000         149.000
  20698344.507    -2164787.16649  -1683834.50647  20698343.735    20698354.416
       242.000         208.000
  20846669.622   -20942524.54949 -16306369.00147  20846669.501    20846679.856
       240.000         206.000
  24085423.950    -4252413.72549  -3290118.56245  24085422.969    24085443.775
       207.000         141.000
  20580514.511   -25287996.00649 -19688349.22148  20580514.147    20580522.988
       242.000         215.000
  22589667.358   -16705801.01549 -13012053.42446  22589667.499    22589682.911
       223.000         173.000
 02  3 21  1  5 30.0000000  0 11G21G23G17G26G 3G22G15G29G14G18G 6
  21754165.707   -18227829.63249 -14191282.62947  21754164.985    21754176.713
       239.000         199.000
  23469469.962    -8399537.46249  -6532632.88346  23469468.845    23469482.568
       221.000         166.000
  20904877.324   -22235244.85749 -17310335.75547  20904876.665    20904887.273
       241.000         205.000
  23286858.131    -8884610.58549  -6909550.49545  23286858.273    23286871.984
       216.000         162.000
  23316710.714    -9040871.70749  -6815919.12746  23316710.437    23316725.474
       220.000         166.000
  24409284.331    -2254619.90749  -1732160.26645  24409283.275    24409306.561
       211.000         150.000
  20695982.200    -2177201.05449  -1693507.60547  20695981.400    20695991.745
       244.000         208.000
  20837274.340   -20991896.61749 -16344840.61147  20837273.975    20837284.313
       241.000         206.000
  24064208.619    -4363899.41449  -3376990.03545  24064207.016    24064229.004
       209.000         142.000
  20584687.627   -25266065.83149 -19671260.74848  20584687.168    20584695.694
       243.000         215.000
  22608240.437   -16608199.91849 -12936000.82246  22608241.230    22608255.916
       224.000         173.000
 02  3 21  1  6  0.0000000  0 11G21G23G17G26G 3G22G15G29G14G18G 6
  21748930.287   -18255341.77249 -14212720.55547  21748929.949    21748941.414
       238.000         199.000
  23484031.388    -8323016.99149  -6473006.60946  23484031.323    23484044.416
       219.000         165.000
  20905485.241   -22232049.98449 -17307846.22747  20905484.554    20905495.340
       239.000         205.000
  23303479.587    -8797264.50849  -6841488.69545  23303480.386    23303492.522
       218.000         160.000
  23300374.096    -9126721.12649  -6882814.60246  23300373.817    23300388.129
       220.000         166.000
  24418939.472    -2203882.38449  -1692624.69245  24418939.830    24418960.019
       212.000         150.000
  20693656.463    -2189422.74749  -1703030.96047  20693655.880    20693665.964
       242.000         208.000
  20827972.768   -21040776.21249 -16382928.49447  20827972.435    20827982.876
       241.000         206.000
  24043004.205    -4475327.21249  -3463816.38545  24043003.025    24043024.194
       209.000         142.000
  20588918.196   -25243833.95249 -19653937.19248  20588917.899    20588926.656
       242.000         214.000
  22626863.552   -16510335.57049 -12859743.09546  22626863.648    22626879.733
       222.000         172.000
 02  3 21  1  6 30.0000000  0 11G21G23G17G26G 3G22G15G29G14G18G 6
  21743743.378   -18282598.51049 -14233959.46447  21743742.700    21743754.442
       237.000         199.000
  23498589.062    -8246516.05149  -6413395.54746  23498589.155    23498602.261
       217.000         163.000
  20906129.546   -22228663.99749 -17305207.78047  20906129.108    20906139.499
       239.000         205.000
  23320176.575    -8709521.16949  -6773117.32045  23320176.848    23320191.297
       217.000         160.000
  23284092.884    -9212278.21549  -6949482.26045  23284091.729    23284106.740
       217.000         162.000
  24428637.448    -2152919.76749  -1652913.71845  24428636.917    24428659.355
       210.000         150.000
  20691367.315    -2201452.06549  -1712404.40547  20691366.605    20691376.917
       242.000         208.000
  20818764.993   -21089162.87549 -16420632.26647  20818764.729    20818775.299
       240.000         206.000
  24021811.096    -4586695.66649  -3550596.50045  24021809.587    24021830.579
       209.000         143.000
  20593205.551   -25221303.36549 -19636380.87648  20593205.261    20593214.137
       242.000         214.000
  22645536.068   -16412211.35349 -12783282.88146  22645536.971    22645552.245
       223.000         172.000
 02  3 21  1  7  0.0000000  0 11G21G23G17G26G 3G22G15G29G14G18G 6
  21738604.978   -18309600.36049 -14254999.76647  21738604.317    21738616.151
       238.000         199.000
  23513142.811    -8170035.44249  -6353800.34845  23513143.270    23513156.220
       220.000         162.000
  20906810.480   -22225085.27049 -17302419.13547  20906809.877    20906820.557
       240.000         205.000
  23336948.800    -8621382.96649  -6704438.32546  23336950.056    23336963.886
       219.000         166.000
  23267868.055    -9297539.70549  -7015919.56646  23267867.530    23267882.153
       223.000         168.000
  24438377.951    -2101734.31449  -1613029.08845  24438378.103    24438397.244
       213.000         148.000
  20689115.034    -2213287.73349  -1721626.95647  20689114.504    20689124.854
       243.000         208.000
  20809651.420   -21137054.48549 -16457950.28047  20809651.068    20809661.529
       241.000         206.000
  24000629.976    -4698001.63749  -3637327.89945  24000627.691    24000648.257
       212.000         144.000
  20597549.542   -25198475.34749 -19618592.78848  20597549.373    20597558.163
       243.000         214.000
  22664257.663   -16313829.35949 -12706621.79746  22664258.530    22664274.182
       223.000         172.000
 02  3 21  1  7 30.0000000  0 11G21G23G17G26G 3G22G15G29G14G18G 6
  21733515.115   -18336347.29849 -14275841.43247  21733514.591    21733526.088
       238.000         199.000
  23527692.913    -8093575.52949  -6294221.24346  23527694.116    23527706.504
       222.000         166.000
  20907528.505   -22221311.93949 -17299478.85947  20907528.089    20907538.599
       240.000         205.000
  23353795.650    -8532851.88549  -6635453.18045  23353796.053    23353809.268
       213.000         158.000
  23251700.075    -9382502.28349  -7082123.96046  23251699.124    23251713.379
       218.000         165.000
  24448160.203    -2050328.24549  -1572972.58445  24448159.072    24448180.957
       211.000         148.000
  20686899.951    -2224928.17949  -1730697.38747  20686899.428    20686909.397
       242.000         208.000
  20800632.564   -21184448.35749 -16494880.45447  20800632.502    20800642.927
       241.000         206.000
  23979461.333    -4809241.35849  -3724007.68745  23979459.166    23979480.905
       211.000         144.000
  20601950.058   -25175350.52649 -19600573.42648  20601949.817    20601958.543
       242.000         214.000
  22683028.034   -16215191.13049 -12629761.07246  22683028.446    22683044.443
       222.000         171.000
 02  3 21  1  8  0.0000000  0 11G21G23G17G26G 3G22G15G29G14G18G 6
  21728473.402   -18362841.05049 -14296485.81147  21728472.621    21728484.231
       239.000         199.000
  23542238.516    -8017138.56049  -6234660.04446  23542237.078    23542251.748
       218.000         165.000
  20908283.537   -22217343.89749 -17296386.85147  20908283.117    20908293.526
       242.000         204.000
  23370716.764    -8443931.96249  -6566164.93145  23370718.588    23370731.538
       225.000         161.000
  23235589.249    -9467164.63649  -7148094.46346  23235588.607    23235602.723
       225.000         166.000
  24457983.771    -1998705.00249  -1532746.83645  24457982.821    24458004.664
       212.000         147.000
  20684721.874    -2236373.54949  -1739615.80047  20684721.016    20684731.615
       244.000         208.000
  20791708.509   -21231344.30549 -16531422.62447  20791708.250    20791718.208
       242.000         206.000
  23958305.528    -4920413.55049  -3810634.82945  23958303.172    23958324.519
       214.000         145.000
  20606406.487   -25151931.84049 -19582325.07448  20606406.112    20606414.672
       244.000         214.000
  22701846.556   -16116300.21649 -12552703.43046  22701847.048    22701862.871
       222.000         171.000
 02  3 21  1  8 30.0000000  0 11G21G23G17G26G 3G22G15G29G14G18G 6
  21723479.693   -18389082.77449 -14316933.81247  21723479.218    21723491.005
       238.000         199.000
  23556779.272    -7940725.93849  -6175117.82246  23556779.231    23556791.493
       220.000         164.000
  20909075.859   -22213180.17149 -17293142.37047  20909075.438    20909086.235
       240.000         205.000
  23387711.329    -8354625.98249  -6496575.97346  23387710.585    23387725.818
       214.000         163.000
  23219536.122    -9551524.03349  -7213828.85046  23219535.020    23219550.450
       217.000         169.000
  24467848.239    -1946867.48849  -1492354.14445  24467848.031    24467870.033
       212.000         149.000
  20682581.223    -2247622.65249  -1748381.28947  20682580.707    20682591.061
       243.000         209.000
  20782879.513   -21277740.44049 -16567575.34047  20782879.272    20782889.549
       241.000         207.000
  23937163.187    -5031515.43849  -3897207.21245  23937161.268    23937182.002
       213.000         146.000
  20610918.530   -25128220.96649 -19563849.05148  20610918.318    20610927.006
       243.000         214.000
  22720712.674   -16017158.86449 -12475450.65846  22720713.168    22720727.905
       223.000         171.000
 02  3 21  1  9  0.0000000  0 11G21G23G17G26G 3G22G15G29G14G18G 6
  21718533.833   -18415072.83449 -14337185.70647  21718533.182    21718544.835
       238.000         199.000
  23571315.475    -7864338.46549  -6115595.15946  23571315.088    23571328.587
       219.000         164.000
  20909905.727   -22208819.00349 -17289744.03847  20909905.114    20909915.684
       240.000         205.000
  23404778.469    -8264936.44749  -6426688.13645  23404779.448    23404792.457
       219.000         159.000
  23203540.849    -9635577.96449  -7279325.18146  23203540.733    23203554.939
       222.000         167.000
  24477753.211    -1894817.79549  -1451796.10445  24477753.324    24477774.070
       214.000         148.000
  20680478.204    -2258673.86549  -1756992.56747  20680477.453    20680488.005
       243.000         208.000
  20774146.052   -21323634.76449 -16603337.03147  20774145.658    20774156.091
       242.000         207.000
  23916034.759    -5142543.93949  -3983722.40145  23916033.245    23916053.400
       214.000         147.000
  20615485.913   -25104218.90749 -19545146.12648  20615485.596    20615494.327
       244.000         214.000
  22739625.980   -15917769.07449 -12398004.29646  22739626.354    22739641.930
       223.000         170.000
 02  3 21  1  9 30.0000000  0 11G21G23G17G26G 3G22G15G29G14G18G 6
  21713635.773   -18440811.69349 -14357241.85847  21713634.843    21713646.782
       239.000         199.000
  23585846.482    -7787976.83449  -6056092.69346  23585846.178    23585859.718
       218.000         164.000
  20910773.389   -22204258.94449 -17286190.71647  20910772.473    20910783.556
       240.000         205.000
  23421918.425    -8174865.87749  -6356503.33045  23421918.553    23421932.065
       217.000         158.000
  23187604.613    -9719323.44949  -7344581.26846  23187604.186    23187617.814
       220.000         167.000
  24487698.000    -1842558.37049  -1411074.65045  24487697.410    24487719.553
       212.000         149.000
  20678413.000    -2269525.99549  -1765448.72147  20678411.973    20678422.301
       243.000         208.000
  20765508.434   -21369025.17849 -16638706.06247  20765507.858    20765518.114
       242.000         207.000
  23894920.906    -5253495.93749  -4070177.97945  23894919.701    23894940.651
       213.000         147.000
  20620108.532   -25079926.91049 -19526217.27048  20620107.796    20620116.554
       243.000         214.000
  22758586.278   -15818133.01749 -12320366.03146  22758586.339    22758603.214
       222.000         170.000
 02  3 21  1 10  0.0000000  0 11G21G23G17G26G 3G22G15G29G14G18G 6
  21708785.154   -18466301.36049 -14377103.84747  21708784.141    21708796.070
       238.000         199.000
  23600372.391    -7711643.15449  -5996611.96346  23600372.502    23600385.104
       220.000         163.000
  20911678.925   -22199499.97249 -17282482.40547  20911678.416    20911688.951
       241.000         204.000
  23439130.163    -8084418.07949  -6286024.60745  23439131.527    23439144.339
       218.000         159.000
  23171727.052    -9802759.19849  -7409595.90546  23171726.637    23171741.118
       222.000         166.000
  24497681.963    -1790093.03749  -1370192.74145  24497681.248    24497702.786
       210.000         149.000
  20676385.876    -2280178.66649  -1773749.46147  20676385.226    20676395.282
       243.000         208.000
  20756966.810   -21413911.24949 -16673682.10747  20756966.291    20756976.735
       242.000         207.000
  23873821.977    -5364369.52749  -4156572.47345  23873820.488    23873840.727
       214.000         148.000
  20624785.801   -25055347.55749 -19507064.50348  20624785.278    20624794.192
       244.000         214.000
  22777592.760   -15718253.94349 -12242538.40646  22777592.521    22777609.232
       222.000         169.000
 02  3 21  1 10 30.0000000  0 11G21G23G17G26G 3G22G15G29G14G18G 6
  21703982.133   -18491540.89949 -14396770.93847  21703981.856    21703993.203
       238.000         200.000
  23614892.998    -7635336.85649  -5937152.54545  23614892.680    23614906.495
       218.000         161.000
  20912623.010   -22194538.96949 -17278616.67847  20912622.972    20912633.366
       240.000         204.000
  23456413.497    -7993594.11049  -6215252.77345  23456413.573    23456427.743
       214.000         157.000
  23155909.516    -9885880.78849  -7474365.84646  23155909.557    23155923.268
       224.000         170.000
  24507704.642    -1737422.58949  -1329151.03745  24507704.839    24507726.865
       209.000         146.000
  20674397.136    -2290629.33649  -1781892.80747  20674396.343    20674406.998
       242.000         208.000
  20748521.777   -21458289.62049 -16708262.54847  20748521.647    20748531.927
       241.000         207.000
  23852738.728    -5475160.54449  -4242902.60945  23852736.594    23852757.871
       212.000         148.000
  20629517.719   -25030480.92449 -19487687.89248  20629517.592    20629526.250
       242.000         214.000
  22796645.342   -15618132.50849 -12164521.95446  22796645.860    22796661.283
       221.000         169.000
 02  3 21  1 11  0.0000000  0 11G21G23G17G26G 3G22G15G29G14G18G 6
  21699226.060   -18516533.95349 -14416245.95447  21699225.409    21699237.163
       238.000         200.000
  23629407.604    -7559061.72849  -5877717.45046  23629407.222    23629422.108
       217.000         163.000
  20913605.192   -22189377.66949 -17274594.86247  20913604.943    20913615.511
       240.000         204.000
  23473767.104    -7902399.58149  -6144192.19745  23473767.749    23473781.265
       214.000         156.000
  23140151.690    -9968688.17149  -7538890.88646  23140150.547    23140164.944
       219.000         168.000
  24517765.479    -1684552.45249  -1287953.70845  24517764.735    24517784.552
       206.000         144.000
  20672446.481    -2300879.50849  -1789879.90447  20672445.744    20672455.920
       243.000         208.000
  20740173.124   -21502161.44149 -16742448.26847  20740172.907    20740182.946
       241.000         208.000
  23831671.209    -5585868.73349  -4329168.20345  23831669.818    23831689.681
       214.000         149.000
  20634303.570   -25005331.12749 -19468090.61748  20634303.179    20634311.669
       243.000         214.000
  22815743.196   -15517773.78949 -12086320.60046  22815744.109    22815759.431
       220.000         169.000
 02  3 21  1 11 30.0000000  0 11G21G23G17G26G 3G22G15G29G14G18G 6
  21694517.104   -18541279.37449 -14435528.01247  21694516.449    21694528.199
       239.000         200.000
  23643916.602    -7482816.85149  -5818305.95046  23643916.127    23643930.863
       219.000         165.000
  20914626.134   -22184012.71549 -17270414.35347  20914625.526    20914636.488
       241.000         205.000
  23491191.337    -7810835.43149  -6072843.58745  23491192.706    23491205.847
       216.000         159.000
  23124454.372   -10051177.17349  -7603167.86846  23124454.014    23124467.198
       225.000         169.000
  24527864.300    -1631483.38249  -1246601.37045  24527863.843    24527886.413
       210.000         146.000
  20670534.684    -2310926.00049  -1797708.29847  20670533.937    20670544.402
       243.000         208.000
  20731921.580   -21545523.08149 -16776236.44247  20731921.300    20731931.382
       241.000         208.000
  23810620.480    -5696489.37649  -4415365.58445  23810618.932    23810639.153
       214.000         150.000
  20639143.350   -24979897.78049 -19448272.40448  20639143.059    20639151.497
       243.000         214.000
  22834886.080   -15417178.05049 -12007934.55146  22834887.386    22834902.828
       221.000         168.000
 02  3 21  1 12  0.0000000  0 11G21G23G17G26G 3G22G15G29G14G18G 6
  21689854.744   -18565779.82449 -14454619.18347  21689854.256    21689865.801
       240.000         200.000
  23658419.343    -7406604.95049  -5758920.14446  23658418.797    23658433.060
       216.000         164.000
  20915685.666   -22178444.64349 -17266075.56447  20915685.083    20915695.938
       241.000         205.000
  23508685.088    -7718905.98749  -6001210.31845  23508685.805    23508698.684
       216.000         158.000
  23108817.961   -10133346.68049  -7667195.90146  23108816.149    23108831.255
       219.000         169.000
  24538000.357    -1578219.62949  -1205097.32045  24538000.546    24538020.348
       210.000         146.000
  20668661.427    -2320769.70949  -1805378.67647  20668660.534    20668671.225
       243.000         208.000
  20723767.099   -21588374.64749 -16809627.15647  20723766.765    20723776.802
       242.000         208.000
  23789586.555    -5807021.30549  -4501493.84045  23789585.433    23789605.265
       214.000         149.000
  20644036.450   -24954184.20949 -19428235.82648  20644035.911    20644044.569
       243.000         213.000
  22854073.393   -15316349.24549 -11929366.90246  22854074.194    22854090.338
       220.000         168.000
 02  3 21  1 12 30.0000000  0 11G21G23G17G26G 3G22G15G29G14G18G 6
  21685239.196   -18590034.34949 -14473518.73447  21685238.892    21685250.101
       238.000         200.000
  23672915.599    -7330425.83549  -5699559.86945  23672915.592    23672927.485
       216.000         159.000
  20916784.395   -22172670.63149 -17261576.30847  20916783.672    20916794.534
       240.000         204.000
  23526247.700    -7626612.83249  -5929293.62745  23526246.958    23526261.211
       208.000         152.000
  23093242.859   -10215192.94249  -7730972.00146  23093242.531    23093256.654
       222.000         170.000
  24548173.102    -1524762.68849  -1163442.73245  24548174.363    24548196.178
       212.000         147.000
  20666827.273    -2330408.07949  -1812889.05947  20666826.524    20666836.938
       242.000         208.000
  20715710.256   -21630713.26149 -16842618.17647  20715710.082    20715720.086
       242.000         208.000
  23768570.284    -5917460.62349  -4587549.92745  23768568.512    23768588.679
       211.000         149.000
  20648982.800   -24928190.68949 -19407981.11448  20648982.547    20648990.990
       243.000         213.000
  22873304.800   -15215288.53649 -11850618.54846  22873305.580    22873322.335
       220.000         168.000
 02  3 21  1 13  0.0000000  0 11G21G23G17G26G 3G22G15G29G14G18G 6
  21680670.223   -18614044.22849 -14492227.64347  21680669.785    21680681.274
       238.000         200.000
  23687405.648    -7254280.75649  -5640226.06045  23687405.670    23687419.524
       217.000         160.000
  20917922.548   -22166689.84349 -17256915.93447  20917922.344    20917932.561
       240.000         204.000
  23543879.174    -7533959.04349  -5857095.96645  23543881.260    23543894.448
       221.000         158.000
  23077729.911   -10296713.44349  -7794494.32046  23077729.141    23077743.013
       222.000         169.000
  24558381.967    -1471115.31849  -1121639.78845  24558381.097    24558403.887
       206.000         147.000
  20665032.420    -2339839.88349  -1820238.47947  20665031.816    20665042.048
       243.000         208.000
  20707751.248   -21672537.64649 -16875208.49547  20707751.012    20707761.056
       241.000         208.000
  23747572.038    -6027804.53249  -4673531.67145  23747570.269    23747590.095
       214.000         150.000
  20653982.185   -24901918.76049 -19387509.45748  20653981.796    20653990.457
       242.000         213.000
  22892579.925   -15113998.43049 -11771691.45546  22892580.346    22892596.744
       219.000         167.000
 02  3 21  1 13 30.0000000  0 11G21G23G17G26G 3G22G15G29G14G18G 6
  21676147.237   -18637812.32749 -14510748.15447  21676146.666    21676158.310
       239.000         200.000
  23701888.735    -7178172.49449  -5580920.98846  23701887.894    23701903.048
       218.000         163.000
  20919099.868   -22160503.00349 -17252094.99347  20919099.509    20919109.484
       240.000         204.000
  23561578.751    -7440949.23649  -5784620.85145  23561578.788    23561593.198
       213.000         160.000
  23062279.038   -10377907.49749  -7857762.23746  23062277.627    23062292.559
       221.000         170.000
  24568626.185    -1417282.00149  -1079691.91145  24568626.414    24568647.539
       210.000         146.000
  20663276.775    -2349065.90049  -1827427.53847  20663275.872    20663286.402
       243.000         208.000
  20699890.054   -21713848.07249 -16907398.32547  20699889.854    20699899.657
       242.000         208.000
  23726592.266    -6138051.99049  -4759438.27345  23726591.063    23726610.829
       214.000         149.000
  20659033.789   -24875372.16449 -19366823.77248  20659033.119    20659042.042
       243.000         213.000
  22911897.784   -15012483.08849 -11692588.84546  22911898.583    22911914.196
       221.000         167.000
 02  3 21  1 14  0.0000000  0 11G21G23G17G26G 3G22G15G29G14G18G 6
  21671670.482   -18661337.69849 -14529079.53147  21671670.105    21671681.330
       239.000         201.000
  23716364.932    -7102100.13949  -5521643.92746  23716365.322    23716378.866
       217.000         163.000
  20920317.056   -22154106.65249 -17247110.80247  20920316.426    20920327.027
       240.000         204.000
  23579345.271    -7347584.16149  -5711868.94445  23579346.258    23579360.028
       215.000         152.000
  23046891.014   -10458770.78449  -7920772.36746  23046890.150    23046904.810
       224.000         172.000
  24578905.670    -1363263.40449  -1037599.69445  24578905.218    24578927.310
       210.000         146.000
  20661560.864    -2358083.01249  -1834453.82347  20661560.040    20661570.553
       242.000         208.000
  20692127.291   -21754641.18049 -16939185.05447  20692127.118    20692136.999
       240.000         208.000
  23705631.801    -6248198.30249  -4845266.04845  23705629.754    23705650.183
       214.000         150.000
  20664137.802   -24848550.47949 -19345923.74348  20664137.505    20664146.032
       242.000         213.000
  22931258.440   -14910742.99949 -11613311.12046  22931259.150    22931275.138
       220.000         167.000
 02  3 21  1 14 30.0000000  0 11G21G23G17G26G 3G22G15G29G14G18G 6
  21667239.706   -18684621.46149 -14547222.63747  21667239.053    21667250.130
       239.000         201.000
  23730833.837    -7026065.49649  -5462396.24245  23730833.756    23730847.100
       217.000         160.000
  20921574.119   -22147500.43949 -17241963.07347  20921573.426    20921584.088
       240.000         204.000
  23597179.017    -7253867.63449  -5638843.10845  23597179.622    23597193.208
       216.000         153.000
  23031566.659   -10539301.19149  -7983523.23146  23031565.599    23031578.442
       224.000         171.000
  24589219.887    -1309063.04149   -995365.80345  24589218.139    24589242.086
       208.000         145.000
  20659884.745    -2366890.75649  -1841316.94847  20659883.930    20659894.193
       242.000         208.000
  20684463.149   -21794916.06649 -16970567.96847  20684462.595    20684472.639
       240.000         208.000
  23684690.873    -6358241.60349  -4931013.58345  23684689.641    23684707.690
       213.000         150.000
  20669293.697   -24821455.90749 -19324811.06148  20669293.066    20669301.841
       242.000         213.000
  22950661.241   -14808781.35649 -11533860.75346  22950661.658    22950678.147
       221.000         167.000
 02  3 21  1 15  0.0000000  0 11G21G23G17G26G 3G22G15G29G14G18G 6
  21662854.636   -18707664.82849 -14565178.41947  21662854.108    21662865.658
       239.000         201.000
  23745295.500    -6950070.13449  -5403179.12546  23745296.313    23745308.802
       223.000         163.000
  20922871.237   -22140683.64949 -17236651.26547  20922870.538    20922881.135
       241.000         204.000
  23615079.091    -7159802.99649  -5565546.04845  23615079.031    23615093.483
       214.000         155.000
  23016305.565   -10619497.19249  -8046013.37746  23016304.004    23016320.016
       222.000         170.000
  24599567.904    -1254684.09049   -952992.82445  24599568.773    24599589.725
       211.000         146.000
  20658248.579    -2375488.67449  -1848016.57347  20658247.513    20658257.759
       243.000         208.000
  20676897.695   -21834672.17749 -17001546.64247  20676897.332    20676907.487
       241.000         209.000
  23663769.937    -6468179.52449  -5016678.98645  23663768.714    23663787.742
       212.000         151.000
  20674501.124   -24794090.52749 -19303487.36448  20674500.521    20674509.306
       243.000         213.000
  22970105.655   -14706601.08149 -11454240.02246  22970107.036    22970123.227
       220.000         166.000
 02  3 21  1 15 30.0000000  0 11G21G23G17G26G 3G22G15G29G14G18G 6
  21658515.176   -18730468.59349 -14582947.49847  21658514.702    21658525.935
       239.000         201.000
  23759749.601    -6874114.41149  -5343992.86845  23759749.338    23759763.182
       219.000         161.000
  20924208.840   -22133654.66849 -17231174.11547  20924208.212    20924218.874
       239.000         204.000
  23633044.789    -7065392.52249  -5491979.51245  23633045.323    23633060.107
       211.000         154.000
  23001109.081   -10699355.45649  -8108240.43846  23001109.443    23001120.571
       227.000         174.000
  24609949.823    -1200128.69449   -910482.28045  24609948.277    24609971.543
       208.000         145.000
  20656652.697    -2383874.88949  -1854551.23647  20656651.927    20656662.158
       242.000         208.000
  20669431.420   -21873907.34549 -17032119.39147  20669431.241    20669441.126
       241.000         209.000
  23642869.662    -6578008.73649  -5102259.70045  23642868.503    23642888.375
       212.000         151.000
  20679759.935   -24766455.32449 -19281953.41648  20679759.480    20679768.038
       243.000         213.000
  22989591.291   -14604203.99249 -11374450.33946  22989592.676    22989608.541
       221.000         165.000
 02  3 21  1 16  0.0000000  0 11G21G23G17G26G 3G22G15G29G14G18G 6
  21654221.262   -18753033.03149 -14600530.10347  21654220.745    21654232.084
       238.000         201.000
  23774195.599    -6798199.20149  -5284838.24045  23774195.467    23774209.432
       214.000         158.000
  20925586.963   -22126411.88449 -17225530.37747  20925586.508    20925597.091
       239.000         204.000
  23651075.864    -6970638.99949  -5418145.67445  23651076.940    23651090.708
       213.000         154.000
  22985977.086   -10778873.56749  -8170202.45846  22985975.350    22985989.605
       219.000         167.000
  24620364.508    -1145399.58049   -867836.41645  24620364.356    24620386.088
       209.000         146.000
  20655097.256    -2392048.25149  -1860920.04647  20655096.784    20655106.956
       243.000         208.000
  20662064.578   -21912620.05449 -17062285.04147  20662064.350    20662074.306
       241.000         209.000
  23621990.694    -6687726.62549  -5187753.67245  23621988.648    23622008.315
       213.000         151.000
  20685069.740   -24738552.00449 -19260210.56448  20685069.494    20685078.158
       243.000         214.000
  23009117.900   -14501592.24349 -11294493.41546  23009119.568    23009134.222
       220.000         165.000
 02  3 21  1 16 30.0000000  0 11G21G23G17G26G 3G22G15G29G14G18G 6
  21649972.447   -18775360.09249 -14617927.72047  21649971.966    21649983.447
       240.000         201.000
  23788633.721    -6722326.14349  -5225716.45845  23788633.652    23788647.317
       218.000         160.000
  20927005.931   -22118954.94049 -17219719.74447  20927005.665    20927016.514
       241.000         204.000
  23669171.407    -6875545.92749  -5344047.26845  23669171.364    23669186.542
       214.000         151.000
  22970910.191   -10858049.34549  -8231897.64946  22970910.629    22970924.547
       229.000         177.000
  24630811.628    -1090499.88249   -825057.60845  24630812.423    24630832.813
       213.000         146.000
  20653582.477    -2400008.24349  -1867122.58147  20653582.023    20653592.250
       244.000         208.000
  20654797.237   -21950809.69249 -17092043.08747  20654797.082    20654807.024
       243.000         209.000
  23601133.438    -6797330.59749  -5273158.88045  23601132.806    23601150.015
       213.000         151.000
  20690430.127   -24710382.86549 -19238260.55948  20690429.963    20690438.612
       245.000         213.000
  23028684.694   -14398768.84449 -11214371.54446  23028685.253    23028702.844
       220.000         164.000
 02  3 21  1 17  0.0000000  0 11G21G23G17G26G 3G22G15G29G14G18G 6
  21645768.681   -18797450.59449 -14635141.00747  21645768.037    21645779.216
       237.000         201.000
  23803063.858    -6646495.99649  -5166628.08045  23803064.581    23803077.451
       220.000         161.000
  20928466.014   -22111282.20949 -17213740.97047  20928465.325    20928476.219
       240.000         204.000
  23687331.281    -6780116.05149  -5269686.33445  23687332.101    23687345.192
       218.000         153.000
  22955909.158   -10936880.25349  -8293324.15946  22955907.636    22955919.985
       220.000         172.000
  24641291.000    -1035432.22349   -782147.91745  24641290.320    24641313.333
       212.000         148.000
  20652108.630    -2407753.41149  -1873157.72747  20652107.613    20652117.903
       242.000         208.000
  20647629.760   -21988474.53549 -17121392.20447  20647629.374    20647639.118
       240.000         209.000
  23580298.326    -6906817.64349  -5358472.98545  23580296.900    23580315.427
       212.000         152.000
  20695840.913   -24681948.85249 -19216104.16048  20695840.318    20695848.663
       243.000         213.000
  23048291.297   -14295736.05549 -11134086.51646  23048291.830    23048307.758
       219.000         164.000
 02  3 21  1 17 30.0000000  0 11G21G23G17G26G 3G22G15G29G14G18G 6
  21641609.452   -18819306.85649 -14652171.78447  21641609.046    21641620.185
       240.000         201.000
  23817485.411    -6570711.31049  -5107575.10746  23817485.798    23817499.376
       220.000         163.000
  20929967.130   -22103394.04149 -17207594.33547  20929966.865    20929977.273
       242.000         204.000
  23705554.405    -6684353.71949  -5195066.40345  23705553.277    23705568.583
       210.000         151.000
  22940973.708   -11015365.49249  -8354481.35746  22940974.254    22940988.180
       230.000         175.000
  24651801.359     -980200.73449   -739110.55645  24651800.953    24651821.899
       212.000         146.000
  20650675.460    -2415284.39649  -1879025.97747  20650674.545    20650685.333
       244.000         208.000
  20640562.147   -22025614.88949 -17150332.64347  20640561.706    20640571.750
       242.000         209.000
  23559485.651    -7016186.71249  -5443695.15545  23559484.468    23559502.564
       214.000         152.000
  20701301.432   -24653253.42149 -19193744.07248  20701300.828    20701309.598
       245.000         213.000
  23067937.085   -14192497.92249 -11053641.48446  23067938.608    23067954.922
       221.000         163.000
 02  3 21  1 18  0.0000000  0 11G21G23G17G26G 3G22G15G29G14G18G 6
  21637495.234   -18840926.95049 -14669018.52747  21637494.664    21637506.022
       239.000         201.000
  23831898.379    -6494970.25649  -5048556.17545  23831898.200    23831912.282
       215.000         161.000
  20931509.914   -22095286.65749 -17201276.87347  20931509.178    20931519.719
       240.000         203.000
  23723840.439    -6588259.28049  -5120187.71345  23723840.827    23723855.720
       215.000         153.000
  22926105.220   -11093499.90449  -8415365.06246  22926103.169    22926118.516
       220.000         177.000
  24662342.656     -924805.43549   -695945.57145  24662340.847    24662364.269
       204.000         142.000
  20649283.890    -2422597.21049  -1884724.22947  20649283.269    20649293.269
       242.000         209.000
  20633595.000   -22062226.94349 -17178861.41347  20633594.680    20633604.629
       241.000         209.000
  23538696.526    -7125432.44249  -5528821.21945  23538695.990    23538713.522
       214.000         153.000
  20706811.971   -24624295.30649 -19171179.29248  20706811.493    20706820.304
       244.000         213.000
  23087622.063   -14089054.17649 -10973036.23846  23087622.861    23087640.650
       218.000         163.000
 02  3 21  1 18 30.0000000  0 11G21G23G17G26G 3G22G15G29G14G18G 6
  21633425.240   -18862314.36849 -14685683.96647  21633424.712    21633435.816
       239.000         201.000
  23846302.429    -6419275.66749  -4989573.46445  23846302.748    23846316.046
       218.000         160.000
  20933094.248   -22086960.50049 -17194788.93747  20933093.401    20933103.804
       240.000         203.000
  23742189.144    -6491837.28349  -5045053.74845  23742190.224    23742204.359
       217.000         155.000
  22911303.339   -11171282.89349  -8475975.09446  22911303.405    22911313.924
       229.000         172.000
  24672914.162     -869251.04249   -652656.63045  24672913.268    24672935.471
       206.000         140.000
  20647933.670    -2429692.55549  -1890253.02247  20647932.973    20647943.059
       243.000         209.000
  20626728.367   -22098310.99249 -17206978.75247  20626728.053    20626737.587
       242.000         209.000
  23517930.995    -7234553.86849  -5613850.42545  23517929.396    23517947.724
       214.000         153.000
  20712371.721   -24595078.12749 -19148412.64548  20712371.204    20712379.694
       244.000         213.000
  23107345.362   -13985409.05649 -10892274.06746  23107346.117    23107363.414
       219.000         163.000
 02  3 21  1 19  0.0000000  0 11G21G23G17G26G 3G22G15G29G14G18G 6
  21629399.804   -18883468.21449 -14702167.40447  21629398.979    21629410.755
       239.000         201.000
  23860697.837    -6343627.36949  -4930626.77645  23860698.032    23860711.017
       217.000         158.000
  20934720.620   -22078413.39049 -17188128.83747  20934720.495    20934730.351
       240.000         203.000
  23760599.623    -6395089.54749  -4969665.93045  23760599.549    23760613.330
       213.000         149.000
  22896569.269   -11248710.71849  -8536308.26246  22896567.256    22896583.396
       219.000         173.000
  24683515.967     -813538.93249   -609244.80845  24683516.657    24683539.193
       211.000         142.000
  20646625.237    -2436568.10949  -1895610.54847  20646624.469    20646634.578
       242.000         208.000
  20619962.606   -22133864.87949 -17234682.98347  20619962.307    20619972.123
       241.000         209.000
  23497189.944    -7343546.73549  -5698779.46745  23497188.255    23497206.194
       215.000         154.000
  20717980.781   -24565602.28649 -19125444.44348  20717980.680    20717989.197
       245.000         213.000
  23127106.649   -13881563.72149 -10811355.90845  23127107.387    23127125.118
       217.000         162.000
 02  3 21  1 19 30.0000000  0 11G21G23G17G26G 3G22G15G29G14G18G 6
  21625418.359   -18904390.41949 -14718470.34647  21625417.735    21625429.216
       239.000         202.000
  23875084.041    -6268027.75849  -4871718.00145  23875083.454    23875097.711
       215.000         158.000
  20936389.193   -22069645.17449 -17181296.44747  20936388.870    20936399.311
       240.000         203.000
  23779071.188    -6298020.50549  -4894027.73345  23779071.291    23779085.607
       209.000         148.000
  22881902.762   -11325782.38449  -8596363.92346  22881903.598    22881914.812
       230.000         177.000
  24694147.172     -757673.41849   -565713.41345  24694147.268    24694169.829
       209.000         144.000
  20645358.649    -2443223.95349  -1900796.88247  20645357.966    20645368.003
       242.000         208.000
  20613297.713   -22168888.62549 -17261974.12147  20613297.561    20613307.313
       241.000         210.000
  23476473.587    -7452409.82849  -5783607.37045  23476471.847    23476490.530
       216.000         155.000
  20723638.586   -24535870.73249 -19102276.98748  20723638.274    20723646.951
       244.000         213.000
  23146905.293   -13777522.16049 -10730284.83645  23146906.520    23146922.936
       218.000         162.000
 02  3 21  1 20  0.0000000  0 12G21G23G17G26G 3G22G15G 9G29G14G18G 6
  21621480.657   -18925082.87349 -14734594.24847  21621479.931    21621491.186
       240.000         202.000
  23889460.694    -6192478.15449  -4812848.24345  23889461.140    23889475.651
       219.000         161.000
  20938099.886   -22060655.32349 -17174291.33747  20938099.605    20938110.200
       241.000         203.000
  23797603.438    -6200633.28749  -4818141.69945  23797605.121    23797618.824
       217.000         154.000
  22867304.710   -11402495.94249  -8656140.59046  22867302.926    22867317.310
       220.000         173.000
  24704807.007     -701657.44649   -522064.79045  24704807.408    24704828.959
       211.000         145.000
  20644133.979    -2449659.37749  -1905811.43847  20644133.074    20644143.243
       243.000         208.000
  24471858.117    -4046162.10549  -3140097.23845  24471857.486    24471876.175
       205.000         136.000
  20606733.810   -22203381.64849 -17288851.69947  20606733.335    20606743.171
       242.000         210.000
  23455782.451    -7561140.83649  -5868332.35145  23455780.471    23455799.150
       216.000         155.000
  20729344.536   -24505885.39849 -19078911.76448  20729343.984    20729352.649
       245.000         213.000
  23166740.731   -13673287.05149 -10649062.95345  23166741.718    23166758.915
       218.000         161.000
 02  3 21  1 20 30.0000000  0 12G21G23G17G26G 3G22G15G 9G29G14G18G 6
  21617586.537   -18945546.32449 -14750539.71247  21617586.137    21617597.576
       240.000         202.000
  23903827.954    -6116978.97849  -4754017.77446  23903828.274    23903841.940
       221.000         164.000
  20939853.107   -22051441.85049 -17167111.98947  20939852.702    20939863.001
       241.000         203.000
  23816195.847    -6102930.40049  -4742009.64245  23816196.540    23816211.284
       214.000         156.000
  22852775.066   -11478848.02149  -8715635.52746  22852775.253    22852788.542
       230.000         178.000
  24715494.650     -645493.25949   -478300.70145  24715494.829    24715515.896
       209.000         141.000
  20642951.574    -2455872.73749  -1910652.97247  20642950.872    20642961.055
       244.000         208.000
  24460822.349    -4104155.20549  -3185286.36645  24460822.485    24460839.723
       209.000         142.000
  20600271.258   -22237342.05749 -17315314.26047  20600270.829    20600280.659
       242.000         210.000
  23435117.113    -7669736.36949  -5952951.77045  23435115.327    23435132.691
       217.000         156.000
  20735098.669   -24475647.24449 -19055349.55048  20735098.290    20735107.129
       245.000         213.000
  23186612.781   -13568860.31249 -10567691.73345  23186613.911    23186631.370
       218.000         160.000
 02  3 21  1 21  0.0000000  0 12G21G23G17G26G 3G22G15G 9G29G14G18G 6
  21613735.946   -18965780.98449 -14766306.90047  21613735.362    21613746.569
       240.000         202.000
  23918185.330    -6041530.64449  -4695226.93845  23918184.975    23918199.133
       213.000         160.000
  20941649.145   -22042003.39149 -17159757.32647  20941648.578    20941659.337
       241.000         203.000
  23834847.645    -6004914.45649  -4665633.61045  23834848.158    23834860.625
       215.000         150.000
  22838315.077   -11554836.03849  -8774846.83846  22838313.205    22838327.534
       224.000         175.000
  24726210.344     -589183.17249   -434422.85245  24726208.632    24726232.303
       208.000         141.000
  20641811.665    -2461862.85649  -1915320.56347  20641811.032    20641821.134
       243.000         209.000
  24449821.223    -4161966.54849  -3230333.90345  24449819.802    24449838.261
       205.000         140.000
  20593910.351   -22270768.43449 -17341360.69047  20593909.983    20593919.791
       242.000         210.000
  23414478.037    -7778193.54349  -6037463.38245  23414476.086    23414494.568
       217.000         157.000
  20740900.581   -24445157.87749 -19031591.57548  20740900.054    20740908.584
       245.000         213.000
  23206520.892   -13464244.08149 -10486172.86445  23206520.910    23206539.665
       216.000         160.000
 02  3 21  1 21 30.0000000  0 12G21G23G17G26G 3G22G15G 9G29G14G18G 6
  21609928.864   -18985786.88549 -14781895.84247  21609927.938    21609939.637
       239.000         202.000
  23932532.940    -5966132.98949  -4636475.58745  23932533.072    23932545.786
       220.000         157.000
  20943488.412   -22032337.73049 -17152225.62447  20943488.045    20943498.426
       240.000         203.000
  23853558.691    -5906587.16149  -4589014.95445  23853558.295    23853573.448
       210.000         148.000
  22823924.757   -11630456.61949  -8833771.82146  22823925.025    22823938.447
       227.000         178.000
  24736953.338     -532729.10949   -390432.89845  24736954.543    24736974.102
       211.000         141.000
  20640714.639    -2467627.34349  -1919812.33547  20640713.791    20640724.141
       242.000         208.000
  24438855.068    -4219591.81249  -3275236.40345  24438854.443    24438869.368
       205.000         135.000
  20587651.447   -22303658.68449 -17366989.37047  20587651.066    20587660.813
       241.000         210.000
  23393866.073    -7886508.36249  -6121864.07345  23393865.354    23393882.221
       217.000         157.000
  20746750.214   -24414417.68749 -19007638.16748  20746750.024    20746758.382
       244.000         213.000
  23226464.651   -13359439.86849 -10404507.55945  23226464.483    23226482.509
       216.000         160.000
 02  3 21  1 22  0.0000000  0 12G21G23G17G26G 3G22G15G 9G29G14G18G 6
  21606164.595   -19005567.48849 -14797309.21647  21606163.864    21606174.937
       239.000         202.000
  23946870.515    -5890789.14249  -4577766.08745  23946871.486    23946883.999
       217.000         157.000
  20945370.784   -22022445.60049 -17144517.44647  20945370.322    20945380.666
       240.000         203.000
  23872327.906    -5807953.90849  -4512157.98845  23872328.451    23872343.347
       214.000         152.000
  22809604.380   -11705709.89949  -8892410.57146  22809603.040    22809616.178
       223.000         176.000
  24747722.983     -476135.75749   -346334.30745  24747719.730    24747745.375
       205.000         140.000
  20639660.348    -2473167.24849  -1924129.10647  20639659.781    20639669.715
       242.000         208.000
  24427924.907    -4277029.88849  -3319993.09445  24427924.370    24427941.673
       204.000         137.000
  20581494.392   -22336013.80849 -17392201.06047  20581494.018    20581503.605
       241.000         210.000
  23373281.278    -7994680.20449  -6206153.34645  23373279.895    23373297.355
       218.000         158.000
  20752646.894   -24383430.29749 -18983492.12747  20752646.492    20752655.045
       244.000         212.000
  23246443.391   -13254452.27649 -10322699.32545  23246444.481    23246462.576
       217.000         160.000
 02  3 21  1 22 30.0000000  0 12G21G23G17G26G 3G22G15G 9G29G14G18G 6
  21602443.462   -19025121.77649 -14812546.23447  21602442.870    21602453.767
       239.000         202.000
  23961197.923    -5815498.65749  -4519098.23545  23961198.178    23961212.061
       217.000         158.000
  20947296.777   -22012324.64749 -17136630.96247  20947296.309    20947307.173
       240.000         203.000
  23891155.235    -5709016.27849  -4435063.76645  23891156.736    23891170.572
       216.000         154.000
  22795354.711   -11780591.79649  -8950759.98846  22795353.905    22795368.310
       225.000         176.000
  24758518.409     -419404.64649   -302128.49245  24758519.843    24758539.017
       212.000         141.000
  20638649.375    -2478480.02249  -1928268.89247  20638648.881    20638658.787
       242.000         208.000
  24417030.988    -4334276.34749  -3364600.43145  24417030.512    24417047.301
       204.000         139.000
  20575439.613   -22367831.48749 -17416993.96147  20575439.230    20575448.887
       240.000         210.000
  23352724.604    -8102704.99749  -6290328.02345  23352723.126    23352740.690
       218.000         158.000
  20758590.533   -24352196.22849 -18959153.86747  20758590.207    20758598.748
       244.000         212.000
  23266456.782   -13149282.41249 -10240749.05145  23266457.846    23266475.579
       218.000         160.000
 02  3 21  1 23  0.0000000  0 12G21G23G17G26G 3G22G15G 9G29G14G18G 6
  21598765.019   -19044451.79749 -14827608.50547  21598764.566    21598775.727
       240.000         202.000
  23975514.704    -5740263.47649  -4460473.46845  23975512.968    23975528.787
       212.000         158.000
  20949266.357   -22001974.57049 -17128565.95247  20949266.065    20949276.398
       241.000         203.000
  23910039.765    -5609777.84649  -4357735.15845  23910039.074    23910055.255
       210.000         151.000
  22781175.860   -11855100.90449  -9008818.84646  22781175.700    22781188.583
       226.000         176.000
  24769339.739     -362539.45349   -257818.09245  24769339.413    24769362.893
       207.000         140.000
  20637681.637    -2483565.33649  -1932231.44647  20637681.031    20637691.429
       243.000         209.000
  24406173.809    -4391329.30249  -3409056.99945  24406171.789    24406190.896
       202.000         137.000
  20569487.121   -22399111.57749 -17441367.97347  20569486.970    20569496.642
       241.000         210.000
  23332196.135    -8210580.84849  -6374386.67045  23332195.107    23332211.400
       217.000         158.000
  20764580.620   -24320717.99549 -18934625.35747  20764580.360    20764588.918
       245.000         212.000
  23286504.204   -13043933.83349 -10158659.55345  23286505.148    23286521.570
       217.000         159.000
 02  3 21  1 23 30.0000000  0 12G21G23G17G26G 3G22G15G 9G29G14G18G 6
  21595129.275   -19063557.48749 -14842495.96047  21595128.833    21595139.660
       240.000         203.000
  23989820.928    -5665082.91949  -4401891.27645  23989820.353    23989835.004
       211.000         157.000
  20951279.935   -21991392.81649 -17120320.38947  20951279.231    20951289.970
       241.000         203.000
  23928980.932    -5510240.47349  -4280173.67345  23928981.701    23928995.209
       212.000         148.000
  22767068.883   -11929233.57549  -9066584.47246  22767068.636    22767080.907
       226.000         176.000
  24780186.462     -305541.50049   -213404.32745  24780187.463    24780208.569
       211.000         144.000
  20636757.665    -2488420.84749  -1936014.91847  20636756.741    20636767.120
       243.000         209.000
  24395354.278    -4448184.28849  -3453359.26445  24395354.138    24395373.036
       205.000         141.000
  20563637.348   -22429851.85449 -17465321.33347  20563637.120    20563646.709
       242.000         210.000
  23311696.708    -8318303.79649  -6458326.15445  23311695.239    23311712.202
       218.000         158.000
  20770617.133   -24288995.66449 -18909906.62647  20770616.741    20770625.236
       245.000         212.000
  23306585.328   -12938407.78049 -10076431.76045  23306586.626    23306602.463
       218.000         159.000
 02  3 21  1 24  0.0000000  0 12G21G23G17G26G 3G22G15G 9G29G14G18G 6
  21591535.905   -19082440.28749 -14857209.74547  21591535.341    21591546.373
       240.000         203.000
  24004116.544    -5589958.83949  -4343353.08045  24004115.657    24004131.083
       214.000         157.000
  20953337.669   -21980578.94949 -17111893.97547  20953337.636    20953347.733
       241.000         203.000
  23947978.591    -5410407.91149  -4202382.10345  23947980.088    23947993.410
       218.000         153.000
  22753033.554   -12002988.46149  -9124055.64546  22753033.313    22753046.297
       227.000         177.000
  24791057.361     -248414.40849   -168889.85945  24791056.769    24791078.062
       208.000         140.000
  20635877.437    -2493046.19149  -1939619.04947  20635876.550    20635886.585
       243.000         208.000
  24384573.439    -4504838.81149  -3497505.32645  24384574.021    24384591.912
       212.000         146.000
  20557890.385   -22460052.09149 -17488853.89547  20557890.069    20557899.642
       241.000         210.000
  23291226.904    -8425871.79249  -6542144.90645  23291225.830    23291242.044
       219.000         159.000
  20776699.655   -24257031.79149 -18884999.68847  20776699.021    20776707.856
       245.000         212.000
  23326699.567   -12832707.37349  -9994068.08145  23326700.781    23326718.387
       218.000         159.000
 02  3 21  1 24 30.0000000  0 12G21G23G17G26G 3G22G15G 9G29G14G18G 6
  21587984.486   -19101102.78949 -14871751.87347  21587983.970    21587994.965
       241.000         203.000
  24018401.104    -5514893.32649  -4284860.54745  24018401.097    24018415.779
       215.000         156.000
  20955439.672   -21969533.15249 -17103286.84147  20955439.511    20955449.705
       242.000         203.000
  23967031.623    -5310284.39049  -4124363.80345  23967031.719    23967046.060
       212.000         153.000
  22739070.627   -12076364.24449  -9181231.48746  22739069.790    22739083.236
       225.000         177.000
  24801952.198     -191162.28549   -124278.00445  24801952.006    24801975.703
       208.000         142.000
  20635040.993    -2497441.46849  -1943043.91247  20635040.579    20635050.312
       243.000         208.000
  24373831.061    -4561291.08249  -3541494.00345  24373830.149    24373843.368
       199.000         135.000
  20552246.121   -22489712.58349 -17511965.87447  20552245.846    20552255.489
       242.000         210.000
  23270786.836    -8533283.58149  -6625841.93345  23270785.440    23270802.301
       220.000         160.000
  20782827.522   -24224829.33049 -18859906.84247  20782827.108    20782835.832
       246.000         212.000
  23346846.379   -12726836.43249  -9911571.54745  23346847.134    23346865.355
       218.000         158.000
 02  3 21  1 25  0.0000000  0 12G21G23G17G26G 3G22G15G 9G29G14G18G 6
  21584475.184   -19119543.85649 -14886121.44847  21584474.479    21584486.037
       239.000         202.000
  24032674.820    -5439885.05149  -4226412.57545  24032675.415    24032688.285
       219.000         156.000
  20957586.443   -21958251.99349 -17094496.30147  20957585.665    20957596.277
       240.000         203.000
  23986139.590    -5209870.68849  -4046119.43545  23986139.201    23986153.680
       205.000         147.000
  22725180.399   -12149356.50449  -9238108.41346  22725180.885    22725193.578
       229.000         178.000
  24812870.443     -133785.64949    -79569.15545  24812870.177    24812892.401
       207.000         140.000
  20634248.989    -2501603.35149  -1946286.90147  20634248.047    20634258.586
       242.000         208.000
  24363126.707    -4617536.21549  -3585321.01845  24363126.389    24363146.821
       206.000         133.000
  20546705.131   -22518830.22649 -17534654.85747  20546704.902    20546714.383
       241.000         210.000
  23250377.390    -8640534.27649  -6709413.44145  23250375.840    23250392.278
       219.000         160.000
  20789000.974   -24192387.82849 -18834627.72547  20789000.404    20789009.313
       245.000         212.000
  23367025.490   -12620795.31949  -9828942.41145  23367025.895    23367043.232
       215.000         158.000
 02  3 21  1 25 30.0000000  0 12G21G23G17G26G 3G22G15G 9G29G14G18G 6
  21581007.742   -19137765.17249 -14900319.78847  21581006.930    21581018.314
       241.000         202.000
  24046937.406    -5364936.07049  -4168010.76645  24046937.951    24046951.034
       214.000         157.000
  20959777.927   -21946735.25649 -17085522.19647  20959777.448    20959787.965
       240.000         203.000
  24005302.184    -5109170.78549  -3967652.03745  24005303.254    24005318.496
       214.000         151.000
  22711363.737   -12221963.73949  -9294685.35646  22711362.851    22711374.928
       224.000         178.000
  24823812.316      -76288.36249    -34766.21645  24823812.692    24823834.423
       209.000         141.000
  20633501.432    -2505531.55349  -1949347.80647  20633500.575    20633510.846
       243.000         208.000
  24352463.899    -4673571.59449  -3628984.63845  24352464.809    24352482.047
       214.000         148.000
  20541267.453   -22547405.21749 -17556920.98947  20541267.147    20541276.622
       242.000         210.000
  23229998.891    -8747621.92749  -6792857.89545  23229997.357    23230013.477
       221.000         160.000
  20795219.367   -24159709.73449 -18809164.25347  20795218.910    20795227.376
       246.000         212.000
  23387236.284   -12514587.58349  -9746183.44345  23387237.452    23387254.951
       216.000         157.000
 02  3 21  1 26  0.0000000  0 12G21G23G17G26G 3G22G15G 9G29G14G18G 6
  21577581.756   -19155768.35249 -14914348.16147  21577581.351    21577592.322
       239.000         203.000
  24061188.242    -5290047.42749  -4109656.03645  24061187.417    24061202.551
       210.000         155.000
  20962014.426   -21934982.16449 -17076363.92747  20962014.020    20962024.765
       238.000         203.000
  24024518.720    -5008188.06749  -3888964.26845  24024519.231    24024533.207
       211.000         154.000
  22697620.409   -12294184.08949  -9350960.83546  22697620.514    22697634.234
       227.000         177.000
  24834776.234      -18673.44049     10128.33645  24834775.772    24834798.374
       211.000         141.000
  20632798.466    -2509225.40849  -1952226.10747  20632797.831    20632808.081
       242.000         208.000
  24341841.251    -4729394.97749  -3672483.16545  24341840.794    24341857.094
       205.000         145.000
  20535933.070   -22575437.08449 -17578763.92447  20535933.239    20535942.498
       241.000         210.000
  23209651.906    -8854544.20049  -6876173.48845  23209650.054    23209666.644
       218.000         160.000
  20801482.463   -24126797.08849 -18783518.02347  20801482.174    20801490.777
       244.000         212.000
  23407478.318   -12408216.04049  -9663296.83745  23407479.439    23407497.060
       216.000         157.000
 02  3 21  1 26 30.0000000  0 12G21G23G17G26G 3G22G15G 9G29G14G18G 6
  21574197.052   -19173554.76349 -14928207.60447  21574196.574    21574207.796
       240.000         203.000
  24075427.203    -5215220.54549  -4051349.46745  24075426.569    24075441.363
       213.000         155.000
  20964295.970   -21922992.27449 -17067021.13247  20964295.410    20964305.827
       237.000         203.000
  24043788.242    -4906926.13449  -3810058.96845  24043789.051    24043803.222
       210.000         150.000
  22683951.282   -12366015.97949  -9406933.55746  22683950.608    22683964.272
       225.000         179.000
  24845762.060       39055.65249     55111.88445  24845762.417    24845782.874
       208.000         141.000
  20632140.232    -2512684.31449  -1954921.31747  20632139.637    20632149.577
       242.000         208.000
  24331258.906    -4785003.74949  -3715814.36545  24331257.131    24331273.642
       207.000         140.000
  20530702.157   -22602925.52149 -17600183.38847  20530701.891    20530711.362
       241.000         211.000
  23189336.697    -8961299.14749  -6959358.69945  23189335.397    23189350.827
       219.000         161.000
  20807789.653   -24093652.27249 -18757690.86547  20807789.147    20807798.014
       244.000         212.000
  23427750.923   -12301683.81849  -9580285.02145  23427752.365    23427769.950
       215.000         157.000
 02  3 21  1 27  0.0000000  0 12G21G23G17G26G 3G22G15G 9G29G14G18G 6
  21570853.896   -19191123.10749 -14941897.14747  21570853.409    21570864.243
       239.000         203.000
  24089655.080    -5140453.58949  -3993089.56845  24089655.978    24089669.126
       217.000         159.000
  20966623.372   -21910761.67449 -17057490.78347  20966622.759    20966633.432
       238.000         202.000
  24063110.877    -4805385.18849  -3730936.14245  24063112.054    24063125.031
       210.000         143.000
  22670356.830   -12437454.45649  -9462599.81046  22670356.549    22670369.475
       226.000         177.000
  24856769.177       96898.98049    100184.41345  24856768.787    24856792.622
       203.000         141.000
  20631527.421    -2515904.66949  -1957430.65547  20631526.921    20631536.878
       241.000         208.000
  24320718.334    -4840391.93049  -3758973.68645  24320716.788    24320734.897
       206.000         138.000
  20525575.367   -22629866.89749 -17621176.58847  20525575.170    20525584.480
       241.000         211.000
  23169054.431    -9067881.26349  -7042409.24545  23169054.048    23169069.237
       218.000         162.000
  20814141.323   -24060274.01849 -18731681.83047  20814141.090    20814149.612
       243.000         211.000
  23448054.271   -12194990.60549  -9497147.74745  23448053.830    23448072.846
       213.000         157.000
 02  3 21  1 27 30.0000000  0 12G21G23G17G26G 3G22G15G 9G29G14G18G 6
  21567551.338   -19208477.83349 -14955420.22247  21567550.535    21567562.044
       239.000         203.000
  24103870.802    -5065750.76049  -3934879.61545  24103871.777    24103884.344
       217.000         158.000
  20968996.131   -21898292.36549 -17047774.41647  20968995.646    20969005.981
       237.000         202.000
  24082485.429    -4703571.57549  -3651600.89945  24082485.392    24082500.679
       208.000         146.000
  22656837.062   -12508500.77749  -9517960.40846  22656836.568    22656849.853
       226.000         180.000
  24867797.075      154850.21949    145341.02145  24867798.301    24867820.765
       208.000         142.000
  20630959.589    -2518888.67249  -1959755.80847  20630958.874    20630968.986
       241.000         208.000
  24310220.022    -4895559.87349  -3801961.34245  24310219.405    24310237.499
       207.000         147.000
  20520552.105   -22656263.91849 -17641745.60147  20520551.848    20520561.322
       240.000         211.000
  23148804.923    -9174291.13349  -7125325.57145  23148803.247    23148819.566
       220.000         162.000
  20820536.479   -24026667.31049 -18705494.75447  20820536.083    20820544.496
       244.000         211.000
  23468387.016   -12088142.48049  -9413889.76845  23468387.613    23468405.853
       212.000         157.000
 02  3 21  1 28  0.0000000  0 12G21G23G17G26G 3G22G15G 9G29G14G18G 6
  21564289.674   -19225617.63849 -14968775.83947  21564289.063    21564300.322
       239.000         203.000
  24118074.481    -4991110.51049  -3876718.39945  24118073.545    24118086.758
       215.000         154.000
  20971415.045   -21885580.98749 -17037869.44047  20971414.642    20971424.989
       238.000         203.000
  24101911.736    -4601486.05249  -3572053.84645  24101912.183    24101926.957
       210.000         153.000
  22643392.878   -12579150.14049  -9573011.73946  22643392.016    22643404.907
       224.000         179.000
  24878845.324      212908.97949    190581.41145  24878843.165    24878867.724
       202.000         139.000
  20630437.331    -2521632.70449  -1961893.98147  20630436.666    20630446.656
       242.000         208.000
  24299764.682    -4950502.78549  -3844773.65645  24299764.833    24299780.785
       212.000         145.000
  20515632.992   -22682113.63349 -17661888.15847  20515632.823    20515642.074
       242.000         211.000
  23128589.199    -9280523.87649  -7208103.88746  23128587.762    23128603.389
       219.000         163.000
  20826975.164   -23992831.43149 -18679129.12047  20826974.755    20826983.470
       244.000         211.000
  23488749.049   -11981139.69549  -9330511.28645  23488749.877    23488769.133
       213.000         156.000
 02  3 21  1 28 30.0000000  0 12G21G23G17G26G 3G22G15G 9G29G14G18G 6
  21561068.451   -19242544.91149 -14981965.83847  21561067.883    21561078.963
       239.000         203.000
  24132265.619    -4916534.97749  -3818607.61945  24132263.951    24132277.673
       209.000         150.000
  20973879.867   -21872627.75849 -17027775.99247  20973879.296    20973889.924
       238.000         203.000
  24121388.833    -4499132.91149  -3492298.26845  24121387.751    24121404.121
       205.000         149.000
  22630024.233   -12649401.59249  -9627752.96046  22630025.080    22630037.103
       229.000         179.000
  24889913.223      271071.05949    235902.32645  24889913.032    24889936.569
       207.000         142.000
  20629960.746    -2524136.98549  -1963845.32347  20629960.266    20629969.984
       243.000         208.000
  24289352.532    -5005218.64449  -3887409.19545  24289350.792    24289368.577
       200.000         141.000
  20510817.948   -22707416.44349 -17681604.54847  20510817.616    20510826.971
       241.000         211.000
  23108407.483    -9386577.93449  -7290742.95946  23108406.543    23108421.724
       221.000         163.000
  20833456.912   -23958769.48349 -18652587.32147  20833456.688    20833464.941
       244.000         211.000
  23509139.899   -11873985.91749  -9247015.18645  23509141.130    23509158.263
       215.000         155.000
 02  3 21  1 29  0.0000000  0 12G21G23G17G26G 3G22G15G 9G29G14G18G 6
  21557887.926   -19259258.05449 -14994988.98347  21557887.385    21557898.646
       240.000         203.000
  24146444.460    -4842022.95349  -3760546.36645  24146444.165    24146458.362
       212.000         149.000
  20976391.431   -21859429.29349 -17017491.45047  20976391.286    20976401.625
       239.000         203.000
  24140916.771    -4396513.14849  -3412334.84045  24140916.681    24140929.969
       212.000         141.000
  22616732.492   -12719250.80049  -9682180.79946  22616731.113    22616744.273
       225.000         179.000
  24901000.850      329335.84349    281303.26045  24901000.826    24901024.300
       208.000         143.000
  20629530.437    -2526398.47649  -1965607.48347  20629529.854    20629539.601
       243.000         209.000
  24278983.812    -5059702.20549  -3929863.42745  24278984.629    24279000.292
       210.000         139.000
  20506107.499   -22732169.71449 -17700892.72247  20506107.217    20506116.748
       242.000         211.000
  23088260.684    -9492448.64449  -7373239.18346  23088258.601    23088275.615
       221.000         164.000
  20839981.841   -23924480.87549 -18625868.90347  20839981.731    20839989.866
       245.000         211.000
  23529559.542   -11766681.65749  -9163401.80145  23529560.264    23529579.049
       213.000         156.000
 02  3 21  1 29 30.0000000  0 12G21G23G17G26G 3G22G15G 9G29G14G18G 6
  21554747.191   -19275762.39049 -15007849.42547  21554746.789    21554757.657
       239.000         203.000
  24160610.892    -4767578.65449  -3702537.86945  24160610.348    24160624.709
       215.000         153.000
  20978949.275   -21845987.64549 -17007017.42847  20978949.176    20978959.390
       239.000         203.000
  24160494.422    -4293632.90649  -3332168.33645  24160493.968    24160509.892
       209.000         143.000
  22603516.674   -12788698.84649  -9736295.99046  22603516.921    22603529.840
       229.000         180.000
  24912106.965      387697.39649    326779.61445  24912107.327    24912130.910
       209.000         145.000
  20629145.956    -2528419.00349  -1967181.87847  20629145.280    20629155.165
       243.000         209.000
  24268660.400    -5113953.70749  -3972137.16345  24268660.136    24268673.267
       207.000         136.000
  20501501.122   -22756375.99249 -17719754.67247  20501500.636    20501509.998
       241.000         211.000
  23068148.555    -9598136.45349  -7455592.86546  23068146.904    23068162.575
       220.000         164.000
  20846548.944   -23889970.60049 -18598977.76547  20846548.445    20846556.786
       245.000         211.000
  23550006.609   -11659232.82749  -9079675.73845  23550007.429    23550026.727
       214.000         155.000
 02  3 21  1 30  0.0000000  0 12G21G23G17G26G 3G22G15G 9G29G14G18G 6
  21551646.675   -19292055.67249 -15020545.41747  21551645.976    21551657.196
       240.000         203.000
  24174764.812    -4693199.79049  -3644580.36245  24174765.138    24174778.071
       214.000         154.000
  20981554.226   -21832298.91049 -16996350.86447  20981553.922    20981564.336
       239.000         203.000
  24180121.271    -4190492.15749  -3251799.08445  24180120.571    24180137.842
       201.000         145.000
  22590378.419   -12857740.67949  -9790094.66646  22590376.957    22590390.595
       226.000         181.000
  24923231.156      446155.73249    372331.32845  24923229.507    24923255.231
       203.000         142.000
  20628808.071    -2530194.55949  -1968565.39747  20628807.234    20628817.504
       243.000         209.000
  24258381.454    -5167967.23849  -4014225.24445  24258379.923    24258400.600
       208.000         143.000
  20496999.532   -22780031.64449 -17738187.57547  20496999.313    20497008.691
       242.000         211.000
  23048072.342    -9703635.71649  -7537799.64746  23048070.643    23048086.131
       220.000         163.000
  20853158.411   -23855237.35249 -18571912.88847  20853157.669    20853166.515
       245.000         211.000
  23570481.302   -11551638.94149  -8995836.68945  23570480.826    23570500.183
       214.000         155.000
 02  3 21  1 30 30.0000000  0 12G21G23G17G26G 3G22G15G 9G29G14G18G 6
  21548585.942   -19308139.71949 -15033078.36647  21548585.605    21548596.653
       239.000         203.000
  24188905.821    -4618888.23949  -3586675.30645  24188905.149    24188920.927
       212.000         152.000
  20984206.139   -21818363.07349 -16985491.75347  20984205.797    20984216.468
       238.000         203.000
  24199797.059    -4087095.18649  -3171230.15245  24199797.509    24199812.833
       214.000         150.000
  22577317.552   -12926375.07449  -9843575.89046  22577317.398    22577330.539
       229.000         181.000
  24934373.457      504706.99049    417955.45445  24934374.861    24934393.265
       211.000         141.000
  20628516.688    -2531725.28449  -1969758.12447  20628516.075    20628526.129
       242.000         208.000
  24248148.650    -5221740.80049  -4056126.29245  24248148.096    24248167.304
       205.000         152.000
  20492602.651   -22803137.13549 -17756191.77747  20492602.706    20492611.854
       241.000         211.000
  23028032.283    -9808944.99649  -7619858.40446  23028030.806    23028047.718
       220.000         164.000
  20859809.868   -23820283.71749 -18544676.27847  20859809.674    20859818.141
       244.000         211.000
  23590982.909   -11443903.85149  -8911887.59145  23590982.882    23591004.644
       212.000         155.000
 02  3 21  1 31  0.0000000  0 12G21G23G17G26G 3G22G15G 9G29G14G18G 6
  21545564.437   -19324017.39949 -15045450.50647  21545563.637    21545574.863
       240.000         203.000
  24203033.617    -4544646.39549  -3528824.56445  24203032.419    24203047.343
       210.000         152.000
  20986904.996   -21804180.54749 -16974440.41447  20986904.858    20986914.924
       239.000         202.000
  24219520.985    -3983446.73049  -3090465.13745  24219522.234    24219535.184
       211.000         149.000
  22564334.456   -12994601.46149  -9896739.14246  22564333.657    22564346.654
       229.000         182.000
  24945532.712      563346.74349    463648.65745  24945531.848    24945555.353
       205.000         140.000
  20628271.869    -2533011.80749  -1970760.56647  20628271.055    20628280.971
       244.000         209.000
  24237961.290    -5275273.30849  -4097839.55845  24237958.840    24237974.881
       206.000         142.000
  20488310.197   -22825693.65049 -17773768.19647  20488309.888    20488319.170
       242.000         212.000
  23008028.589    -9914063.19549  -7701768.26446  23008027.874    23008042.254
       220.000         164.000
  20866502.554   -23785113.18049 -18517270.64847  20866502.031    20866510.707
       245.000         211.000
  23611510.554   -11336031.78849  -8827831.75545  23611511.201    23611531.333
       215.000         154.000
 02  3 21  1 31 30.0000000  0 12G21G23G17G26G 3G22G15G 9G29G14G18G 6
  21542582.807   -19339685.91549 -15057659.67247  21542582.201    21542592.953
       240.000         203.000
  24217148.534    -4470471.34749  -3471025.86945  24217145.839    24217161.757
       205.000         148.000
  20989651.721   -21789746.57449 -16963193.14947  20989651.197    20989661.567
       237.000         202.000
  24239292.714    -3879545.74849  -3009503.30545  24239292.797    24239307.880
       199.000         137.000
  22551430.000   -13062414.11549  -9949580.07246  22551429.570    22551442.321
       227.000         179.000
  24956708.492      622075.84749    509411.36345  24956708.170    24956730.843
       210.000         138.000
  20628074.465    -2534049.01649  -1971568.74947  20628073.792    20628084.008
       242.000         209.000
  24227821.454    -5328557.76649  -4139359.76645  24227822.827    24227836.056
       215.000         140.000
  20484123.065   -22847696.77049 -17790913.41147  20484122.927    20484132.177
       241.000         212.000
  22988062.471   -10018983.99949  -7783524.31646  22988060.917    22988076.222
       219.000         165.000
  20873236.944   -23749723.68749 -18489694.41347  20873236.539    20873245.126
       244.000         211.000
  23632064.444   -11228021.48549  -8743668.21045  23632064.462    23632083.662
       212.000         154.000
 02  3 21  1 32  0.0000000  0 12G21G23G17G26G 3G22G15G 9G29G14G18G 6
  21539639.853   -19355151.06049 -15069710.35447  21539639.318    21539650.186
       241.000         203.000
  24231249.831    -4396368.12049  -3413283.13745  24231250.624    24231262.969
       212.000         146.000
  20992445.624   -21775064.12249 -16951752.25547  20992445.263    20992455.660
       240.000         202.000
  24259110.810    -3775399.67849  -2928350.62645  24259111.177    24259126.729
       203.000         136.000
  22538603.849   -13129815.14049 -10002100.19746  22538603.759    22538616.355
       229.000         181.000
  24967899.933      680887.30949    555238.31245  24967897.714    24967924.211
       200.000         137.000
  20627923.858    -2534840.30349  -1972185.29447  20627922.966    20627933.105
       243.000         209.000
  24217729.081    -5381595.62349  -4180687.63945  24217728.396    24217745.515
       205.000         149.000
  20480040.551   -22869150.38149 -17807630.42547  20480040.293    20480049.665
       242.000         212.000
  22968133.617   -10123708.89649  -7865127.70546  22968132.453    22968147.332
       221.000         165.000
  20880011.852   -23714120.91749 -18461951.97947  20880011.609    20880020.037
       245.000         211.000
  23652643.490   -11119879.82849  -8659402.31745  23652644.705    23652664.753
       218.000         155.000
 02  3 21  1 32 30.0000000  0 12G21G23G17G26G 3G22G15G 9G29G14G18G 6
  21536736.206   -19370409.49549 -15081599.96247  21536735.768    21536746.374
       241.000         203.000
  24245338.318    -4322333.47149  -3355593.78445  24245338.471    24245351.961
       213.000         151.000
  20995287.852   -21760128.24749 -16940113.89447  20995287.085    20995297.604
       238.000         202.000
  24278976.063    -3671007.79249  -2847006.36645  24278977.044    24278991.111
       215.000         148.000
  22525857.248   -13196798.40649 -10054294.81846  22525856.314    22525869.801
       226.000         179.000
  24979107.303      739782.30549    601130.24045  24979108.813    24979131.229
       212.000         141.000
  20627821.020    -2535380.47949  -1972606.17047  20627820.197    20627830.132
       243.000         209.000
  24207683.578    -5434380.00949  -4221817.91145  24207681.481    24207697.196
       210.000         140.000
  20476063.463   -22890049.82249 -17823915.61947  20476063.096    20476072.509
       242.000         212.000
  22948243.410   -10228231.25449  -7946573.29146  22948241.523    22948257.318
       221.000         166.000
  20886827.918   -23678302.57049 -18434041.56547  20886827.540    20886835.863
       245.000         211.000
  23673247.736   -11011605.46449  -8575033.00545  23673248.661    23673267.302
       216.000         153.000
 02  3 21  1 33  0.0000000  0 12G21G23G17G26G 3G22G15G 9G29G14G18G 6
  21533871.287   -19385464.48449 -15093331.04747  21533870.622    21533881.450
       241.000         203.000
  24259413.108    -4248370.27349  -3297960.19245  24259412.228    24259429.998
       215.000         152.000
  20998178.106   -21744939.74849 -16928278.68147  20998177.504    20998187.929
       238.000         202.000
  24298887.363    -3566374.87949  -2765474.27745  24298887.730    24298902.232
       209.000         149.000
  22513190.187   -13263363.83849 -10106163.86346  22513190.293    22513201.942
       231.000         182.000
  24990330.080      798755.86949    647083.50445  24990326.387    24990352.652
       199.000         137.000
  20627765.796    -2535670.47249  -1972832.10947  20627765.185    20627774.973
       244.000         209.000
  24197687.410    -5486909.96149  -4262750.13945  24197687.869    24197701.458
       209.000         141.000
  20472191.483   -22910396.73449 -17839770.28047  20472191.067    20472200.395
       243.000         212.000
  22928391.765   -10332550.68249  -8027860.74846  22928390.316    22928405.257
       222.000         166.000
  20893684.204   -23642272.44849 -18405966.14147  20893683.614    20893692.321
       245.000         211.000
  23693876.193   -10903203.01849  -8490563.93545  23693876.631    23693893.163
       214.000         152.000
 02  3 21  1 33 30.0000000  0 12G21G23G17G26G 3G22G15G 9G29G14G18G 6
  21531044.774   -19400317.46349 -15104904.71247  21531043.998    21531054.974
       239.000         203.000
  24273473.890    -4174479.22049  -3240382.84845  24273472.315    24273488.847
       208.000         149.000
  21001116.570   -21729497.88149 -16916246.04047  21001115.830    21001126.541
       237.000         202.000
  24318843.611    -3461504.15549  -2683756.86345  24318845.334    24318856.284
       201.000         138.000
  22500602.975   -13329509.70149 -10157705.96646  22500602.097    22500615.073
       228.000         181.000
  25001566.428      857805.17249    693095.73545  25001567.375    25001589.507
       209.000         136.000
  20627758.394    -2535709.40549  -1972862.41247  20627757.451    20627767.525
       242.000         208.000
  24187739.934    -5539182.66549  -4303481.78845  24187737.398    24187756.808
       205.000         146.000
  20468424.723   -22930190.98449 -17855194.29247  20468424.385    20468433.578
       241.000         212.000
  22908579.225   -10436664.62649  -8108988.09446  22908578.141    22908592.295
       222.000         167.000
  20900580.453   -23606032.29849 -18377727.05347  20900580.129    20900588.546
       244.000         211.000
  23714528.524   -10794675.11049  -8405997.09545  23714529.183    23714548.503
       213.000         152.000
 02  3 21  1 34  0.0000000  0 12G21G23G17G26G 3G22G15G 9G29G14G18G 6
  21528256.807   -19414967.83049 -15116320.50447  21528256.348    21528266.961
       241.000         203.000
  24287521.471    -4100659.43249  -3182860.99445  24287521.819    24287535.414
       219.000         151.000
  21004103.803   -21713799.36349 -16904013.41447  21004103.262    21004113.529
       238.000         201.000
  24338844.687    -3356396.71449  -2601855.02745  24338846.107    24338859.713
       207.000         134.000
  22488096.369   -13395231.87149 -10208917.92346  22488096.225    22488108.354
       230.000         182.000
  25012817.896      916929.18249    739166.21845  25012819.006    25012842.345
       208.000         142.000
  20627799.249    -2535494.16249  -1972694.66247  20627798.642    20627808.259
       243.000         208.000
  24177842.417    -5591193.09449  -4344009.03645  24177842.598    24177860.022
       212.000         150.000
  20464763.545   -22949430.04449 -17870185.69047  20464763.259    20464772.229
       242.000         212.000
  22888806.676   -10540568.40749  -8189951.68846  22888805.540    22888820.725
       223.000         167.000
  20907516.732   -23569581.80349 -18349324.06147  20907516.218    20907525.005
       245.000         211.000
  23735204.720   -10686022.39749  -8321332.94045  23735205.299    23735227.067
       213.000         150.000
 02  3 21  1 34 30.0000000  0 11G21G23G17G26G 3G15G 9G29G14G18G 6
  21525507.020   -19429417.98049 -15127580.26947  21525506.592    21525517.042
       240.000         203.000
  24301555.196    -4026913.32549  -3125396.45145  24301556.123    24301568.849
       214.000         151.000
  21007139.796   -21697844.99649 -16891581.42947  21007139.620    21007149.985
       238.000         201.000
  24358890.249    -3251057.41149  -2519772.51745  24358891.550    24358905.274
       213.000         143.000
  22475670.499   -13460529.83149 -10259799.31946  22475670.007    22475682.389
       229.000         182.000
  20627888.427    -2535025.38849  -1972329.34647  20627887.800    20627898.005
       242.000         208.000
  24167995.478    -5642940.10649  -4384331.15445  24167994.835    24168009.248
       205.000         146.000
  20461207.832   -22968115.11249 -17884745.40447  20461207.721    20461216.876
       242.000         212.000
  22869074.342   -10644261.02349  -8270750.75046  22869072.930    22869087.354
       222.000         167.000
  20914492.382   -23532924.35349 -18320759.80547  20914492.238    20914500.600
       244.000         210.000
  23755903.831   -10577249.17749  -8236574.94545  23755903.960    23755924.084
       211.000         150.000
 02  3 21  1 35  0.0000000  0 11G21G23G17G26G 3G15G 9G29G14G18G 6
  21522796.450   -19443661.88849 -15138679.33447  21522795.868    21522806.699
       240.000         203.000
  24315576.044    -3953233.74549  -3067983.79045  24315575.078    24315588.966
       209.000         148.000
  21010226.215   -21681625.84849 -16878943.11747  21010226.073    21010236.377
       239.000         201.000
  24378980.800    -3145481.50349  -2437505.61445  24378980.823    24378996.378
       207.000         145.000
  22463327.155   -13525393.90349 -10310342.60746  22463326.623    22463339.679
       230.000         184.000
  20628027.464    -2534294.28049  -1971759.62047  20628027.024    20628036.715
       243.000         208.000
  24158199.506    -5694413.23949  -4424439.83445  24158195.519    24158212.293
       201.000         136.000
  20457759.065   -22986238.23849 -17898867.24347  20457759.058    20457768.017
       242.000         212.000
  22849384.074   -10747732.20749  -8351377.26846  22849383.371    22849398.011
       223.000         168.000
  20921508.644   -23496053.70349 -18292029.41847  20921508.371    20921516.880
       245.000         210.000
  23776626.891   -10468350.41049  -8151719.14145  23776627.233    23776647.823
       212.000         150.000
 02  3 21  1 35 30.0000000  0 11G21G23G17G26G 3G15G 9G29G14G18G 6
  21520123.013   -19457710.48449 -15149626.19847  21520122.319    21520132.914
       240.000         203.000
  24329581.729    -3879631.34549  -3010631.38445  24329583.150    24329595.349
       213.000         147.000
  21013361.322   -21665150.71249 -16866105.33347  21013360.853    21013371.382
       237.000         201.000
  24399113.820    -3039681.67249  -2355064.23945  24399111.736    24399126.523
       203.000         134.000
  22451065.008   -13589831.82249 -10360553.85546  22451064.511    22451076.691
       229.000         183.000
  20628214.829    -2533309.54249  -1970992.25747  20628214.035    20628224.085
       243.000         208.000
  24148455.073    -5745619.05149  -4464340.17145  24148457.001    24148472.744
       214.000         145.000
  20454415.370   -23003808.98149 -17912558.65147  20454415.023    20454424.066
       241.000         212.000
  22829734.674   -10850989.15549  -8431836.84446  22829733.115    22829748.210
       224.000         168.000
  20928563.235   -23458981.38949 -18263141.88747  20928562.877    20928571.138
       242.000         210.000
  23797371.473   -10359338.66349  -8066775.28345  23797371.732    23797390.614
       211.000         149.000
 02  3 21  1 36  0.0000000  0 11G21G23G17G26G 3G15G 9G29G14G18G 6
  21517486.738   -19471563.82549 -15160420.92647  21517486.484    21517496.777
       241.000         204.000
  24343573.163    -3806105.76349  -2953338.76245  24343574.284    24343588.059
       220.000         153.000
  21016545.519   -21648417.60849 -16853066.54147  21016545.308    21016555.707
       238.000         201.000
  24419288.970    -2933660.17849  -2272450.12845  24419289.508    24419302.728
       209.000         133.000
  22438884.331   -13653840.49649 -10410430.59946  22438883.824    22438897.133
       231.000         182.000
  20628450.848    -2532069.09449  -1970025.65247  20628450.601    20628460.231
       244.000         208.000
  24138762.805    -5796553.95249  -4504029.46345  24138762.822    24138778.449
       209.000         147.000
  20451177.089   -23020826.11449 -17925818.68147  20451177.145    20451186.103
       242.000         212.000
  22810126.700   -10954028.35949  -8512126.77146  22810125.369    22810140.230
       222.000         169.000
  20935656.129   -23421708.06549 -18234097.73747  20935655.937    20935664.515
       244.000         210.000
  23818137.079   -10250215.42349  -7981744.58945  23818136.707    23818155.870
       210.000         148.000
 02  3 21  1 36 30.0000000  0 11G21G23G17G26G 3G15G 9G29G14G18G 6
  21514887.520   -19485222.53449 -15171063.98847  21514886.894    21514897.600
       239.000         204.000
  24357550.235    -3732657.46449  -2896106.33145  24357550.339    24357564.688
       213.000         157.000
  21019778.987   -21631425.06949 -16839825.58447  21019778.270    21019789.169
       236.000         201.000
  24439505.908    -2827419.77549  -2189665.44945  24439505.862    24439521.118
       209.000         143.000
  22426785.971   -13717417.79149 -10459971.23046  22426784.620    22426797.665
       227.000         182.000
  20628735.754    -2530571.74849  -1968858.85547  20628735.104    20628744.899
       244.000         208.000
  24129121.827    -5847214.85649  -4543505.25345  24129120.148    24129136.367
       208.000         141.000
  20448044.272   -23037288.92449 -17938646.76947  20448044.164    20448053.141
       241.000         212.000
  22790560.670   -11056846.84049  -8592244.69746  22790559.084    22790573.276
       223.000         169.000
  20942786.973   -23384235.24749 -18204898.12747  20942786.621    20942795.072
       243.000         210.000
  23838923.656   -10140983.00749  -7896628.79545  23838924.886    23838946.145
       212.000         148.000
 02  3 21  1 37  0.0000000  0 11G21G23G17G26G 3G15G 9G29G14G18G 6
  21512325.373   -19498686.32149 -15181555.16747  21512324.628    21512335.263
       241.000         204.000
  24371512.500    -3659285.76849  -2838933.60745  24371510.924    24371525.746
       206.000         152.000
  21023062.340   -21614170.57049 -16826380.50347  21023061.987    21023072.139
       239.000         201.000
  24459764.234    -2720961.97849  -2106711.40945  24459764.308    24459779.218
       204.000         142.000
  22414770.172   -13780560.15749 -10509172.93746  22414770.497    22414782.356
       233.000         184.000
  20629070.057    -2528814.96149  -1967489.89347  20629069.133    20629079.014
       245.000         208.000
  24119534.440    -5897597.22549  -4582763.98845  24119535.393    24119550.458
       213.000         149.000
  20445017.210   -23053195.85849 -17951041.69847  20445016.739    20445025.793
       243.000         212.000
  22771037.406   -11159440.63749  -8672187.55946  22771036.120    22771050.580
       225.000         170.000
  20949955.796   -23346562.95549 -18175543.08047  20949955.138    20949963.932
       244.000         210.000
  23859730.658   -10031642.58349  -7811428.82845  23859729.673    23859752.155
       210.000         146.000
 02  3 21  1 37 30.0000000  0 11G21G23G17G26G 3G15G 9G29G14G18G 6
  21509799.947   -19511957.07349 -15191895.94047  21509799.536    21509809.998
       241.000         204.000
  24385459.504    -3585992.06449  -2781821.64545  24385457.869    24385472.857
       204.000         143.000
  21026395.665   -21596653.88049 -16812731.12547  21026395.229    21026405.710
       238.000         201.000
  24480063.170    -2614290.23149  -2023590.67445  24480063.525    24480077.872
       204.000         136.000
  22402837.558   -13843266.39249 -10558034.80746  22402836.149    22402849.503
       230.000         184.000
  20629453.767    -2526798.34949  -1965918.48647  20629453.017    20629462.928
       245.000         208.000
  24110000.107    -5947699.00749  -4621804.08645  24109997.136    24110013.917
       204.000         144.000
  20442095.878   -23068547.26349 -17963003.76547  20442095.712    20442104.866
       242.000         212.000
  22751557.348   -11261807.69849  -8751953.75946  22751555.876    22751570.918
       224.000         171.000
  20957162.060   -23308693.62249 -18146034.51047  20957161.699    20957170.280
       244.000         210.000
  23880557.700    -9922197.58349  -7726147.40645  23880557.004    23880578.023
       209.000         147.000
 02  3 21  1 38  0.0000000  0 11G21G23G17G26G 3G15G 9G29G14G18G 6
  21507311.426   -19525033.99949 -15202085.66747  21507310.839    21507321.488
       241.000         204.000
  24399391.942    -3512775.11349  -2724769.51045  24399391.473    24399407.606
       209.000         143.000
  21029779.516   -21578871.76249 -16798874.91047  21029779.257    21029789.677
       238.000         201.000
  24500402.672    -2507406.12149  -1940304.28445  24500403.064    24500416.307
       213.000         136.000
  22390988.566   -13905532.46949 -10606553.68846  22390988.291    22391000.422
       232.000         185.000
  20629887.581    -2524518.75749  -1964142.14647  20629886.996    20629896.739
       244.000         208.000
  24100520.237    -5997515.04449  -4660621.54545  24100522.256    24100536.459
       217.000         148.000
  20439280.692   -23083340.94349 -17974531.23147  20439280.481    20439289.524
       241.000         212.000
  22732121.230   -11363943.55849  -8831539.79046  22732119.461    22732134.301
       225.000         171.000
  20964405.972   -23270626.63649 -18116371.90847  20964405.704    20964414.002
       243.000         210.000
  23901404.284    -9812648.49249  -7640784.85945  23901405.771    23901426.027
       212.000         147.000
 02  3 21  1 38 30.0000000  0 11G21G23G17G26G 3G15G 9G29G14G18G 6
  21504859.314   -19537919.68749 -15212126.39047  21504859.016    21504869.072
       241.000         204.000
  24413309.941    -3439636.97749  -2667778.77645  24413310.537    24413324.546
       216.000         151.000
  21033213.828   -21560824.82249 -16784812.34147  21033213.379    21033223.648
       237.000         201.000
  24520781.791    -2400313.82649  -1856855.72445  24520782.026    24520797.586
       207.000         141.000
  22379223.537   -13967357.94749 -10654729.27046  22379223.266    22379234.973
       230.000         184.000
  20630371.329    -2521976.68649  -1962161.27947  20630370.532    20630380.412
       244.000         208.000
  24091095.401    -6047044.30249  -4699215.53245  24091094.053    24091110.017
       208.000         149.000
  20436571.327   -23097578.24749 -17985625.16147  20436571.136    20436580.064
       242.000         212.000
  22712729.367   -11465847.19049  -8910944.87846  22712729.634    22712741.969
       225.000         171.000
  20971686.839   -23232365.42249 -18086557.96347  20971686.464    20971694.993
       243.000         209.000
  23922270.054    -9702999.62949  -7555344.61145  23922272.196    23922290.202
       212.000         146.000
 02  3 21  1 39  0.0000000  0 11G21G23G17G26G 3G15G 9G29G14G18G 6
  21502443.187   -19550616.26349 -15222019.75147  21502442.749    21502453.274
       240.000         204.000
  24427212.769    -3366578.89649  -2610850.43045  24427212.902    24427229.128
       215.000         157.000
  21036698.597   -21542512.39549 -16770542.89847  21036698.137    21036708.534
       237.000         201.000
  24541199.715    -2293016.79949  -1773247.75245  24541200.351    24541216.439
       201.000         139.000
  22367542.478   -14028741.18049 -10702560.23246  22367542.273    22367554.554
       231.000         185.000
  20630905.114    -2519171.45349  -1959975.35747  20630904.462    20630914.271
       244.000         208.000
  24081724.822    -6096284.27849  -4737584.10545  24081723.859    24081735.587
       212.000         141.000
  20433967.799   -23111259.48149 -17996285.78747  20433967.679    20433976.547
       241.000         212.000
  22693382.086   -11567516.36849  -8990167.27046  22693381.209    22693395.572
       224.000         171.000
  20979004.261   -23193911.85249 -18056594.13647  20979004.158    20979012.289
       243.000         209.000
  23943154.368    -9593253.97749  -7469828.91845  23943156.757    23943175.649
       213.000         147.000
 02  3 21  1 39 30.0000000  0 11G21G23G17G26G 3G15G 9G29G14G18G 6
  21500063.144   -19563123.18649 -15231765.33047  21500062.516    21500073.096
       239.000         204.000
  24441100.180    -3293600.53249  -2553984.18345  24441100.098    24441114.874
       214.000         154.000
  21040234.254   -21523932.30949 -16756064.88147  21040233.619    21040244.138
       237.000         200.000
  24561656.252    -2185517.09149  -1689481.85245  24561656.629    24561670.934
       210.000         142.000
  22355946.165   -14089679.56149 -10750044.58046  22355945.461    22355957.030
       230.000         184.000
  20631489.345    -2516101.05149  -1957582.80147  20631488.817    20631498.801
       243.000         208.000
  24072410.627    -6145230.93149  -4775724.25845  24072408.738    24072426.570
       205.000         143.000
  20431470.350   -23124383.49649 -18006512.21747  20431470.168    20431479.218
       241.000         212.000
  22674080.185   -11668947.46349  -9069204.14346  22674079.222    22674092.402
       224.000         172.000
  20986358.209   -23155266.66049 -18026480.99147  20986357.887    20986366.358
       242.000         209.000
  23964056.709    -9483413.13749  -7384239.05445  23964058.527    23964079.000
       211.000         146.000
 02  3 21  1 40  0.0000000  0 11G21G23G17G26G 3G15G 9G29G14G18G 6
  21497719.119   -19575440.65849 -15241363.28847  21497718.409    21497729.420
       240.000         204.000
  24454972.125    -3220701.65549  -2497179.91145  24454970.836    24454985.365
       204.000         145.000
  21043821.140   -21505082.66849 -16741376.82847  21043820.876    21043830.950
       237.000         200.000
  24582150.980    -2077816.88749  -1605559.57445  24582151.760    24582164.807
       213.000         144.000
  22344435.049   -14150170.23949 -10797180.04146  22344434.360    22344447.849
       230.000         185.000
  20632124.454    -2512763.45649  -1954982.04447  20632123.928    20632133.642
       244.000         208.000
  24063152.322    -6193880.76649  -4813632.90845  24063152.436    24063168.891
       211.000         147.000
  20429079.094   -23136949.32449 -18016303.70247  20429078.993    20429087.846
       241.000         212.000
  22654824.154   -11770137.20749  -9148052.94746  22654822.803    22654836.537
       225.000         172.000
  20993748.504   -23116430.46049 -17996219.01047  20993748.280    20993756.646
       242.000         209.000
  23984976.744    -9373478.74349  -7298576.30745  23984978.135    23984997.560
       210.000         146.000
 02  3 21  1 40 30.0000000  0 11G21G23G17G26G 3G15G 9G29G14G18G 6
  21495410.991   -19587569.56949 -15250814.32447  21495410.667    21495421.101
       241.000         204.000
  24468828.985    -3147882.73249  -2440437.88745  24468829.012    24468843.273
       210.000         143.000
  21047459.578   -21485962.39049 -16726477.89647  21047459.187    21047469.866
       237.000         200.000
  24602683.316    -1969919.05449  -1521483.27945  24602683.736    24602696.990
       207.000         143.000
  22333009.663   -14210211.15649 -10843965.08546  22333009.239    22333021.531
       231.000         186.000
  20632810.587    -2509157.46649  -1952172.14947  20632809.973    20632819.600
       244.000         208.000
  24053951.690    -6242230.62249  -4851307.92245  24053950.157    24053967.153
       202.000         149.000
  20426794.089   -23148956.79249 -18025660.10247  20426794.035    20426802.999
       242.000         212.000
  22635614.562   -11871082.78449  -9226711.49746  22635613.151    22635627.237
       224.000         173.000
  21001174.773   -23077404.72349 -17965809.33147  21001174.110    21001182.785
       242.000         209.000
  24005914.114    -9263453.32049  -7212842.61145  24005915.191    24005935.858
       211.000         147.000
 02  3 21  1 41  0.0000000  0 10G21G23G17G 3G15G 9G29G14G18G 6
  21493138.576   -19599511.00949 -15260119.27547  21493137.700    21493148.662
       241.000         204.000
  24482670.988    -3075143.72649  -2383758.13445  24482671.269    24482686.089
       216.000         146.000
  21051149.793   -21466569.67249 -16711366.66447  21051149.363    21051159.633
       236.000         200.000
  22321670.202   -14269799.47749 -10890397.42546  22321670.189    22321682.346
       232.000         186.000
  20633548.087    -2505281.50549  -1949151.88047  20633547.372    20633557.321
       244.000         208.000
  24044808.101    -6290277.14249  -4888746.49945  24044807.986    24044823.023
       211.000         145.000
  20424615.497   -23160405.09349 -18034580.78348  20424615.293    20424624.167
       242.000         213.000
  22616452.136   -11971780.76849  -9305177.10646  22616451.077    22616464.483
       225.000         173.000
  21008636.943   -23038190.34049 -17935252.65247  21008636.693    21008645.129
       242.000         209.000
  24026868.544    -9153338.79649  -7127039.49545  24026870.174    24026889.526
       210.000         146.000
 02  3 21  1 41 30.0000000  0 10G21G23G17G 3G15G 9G29G14G18G 6
  21490901.351   -19611267.11649 -15269279.82747  21490901.069    21490911.446
       241.000         204.000
  24496497.458    -3002486.46249  -2327142.05845  24496496.918    24496513.373
       213.000         151.000
  21054891.916   -21446904.79649 -16696043.36647  21054891.642    21054902.067
       237.000         199.000
  22310417.179   -14328934.63349 -10936476.68746  22310416.970    22310429.060
       231.000         187.000
  20634337.026    -2501135.62149  -1945921.29447  20634336.726    20634346.520
       244.000         208.000
  24035723.137    -6338018.65549  -4925947.48945  24035722.386    24035739.742
       209.000         149.000
  20422543.068   -23171295.54449 -18043066.78948  20422543.098    20422551.858
       242.000         213.000
  22597336.967   -12072230.17649  -9383449.04946  22597336.310    22597349.201
       225.000         174.000
  21016134.552   -22998790.30049 -17904551.31347  21016134.413    21016142.547
       242.000         209.000
  24047839.165    -9043139.14749  -7041170.06345  24047839.187    24047860.498
       208.000         146.000
 02  3 21  1 42  0.0000000  0 10G21G23G17G 3G15G 9G29G14G18G 6
  21488698.928   -19622840.76449 -15278298.18747  21488698.643    21488709.127
       240.000         204.000
  24510307.767    -2929913.15049  -2270591.46245  24510307.487    24510322.875
       212.000         153.000
  21058685.701   -21426968.17849 -16680508.31947  21058685.665    21058695.537
       236.000         199.000
  22299250.184   -14387616.48249 -10982202.68546  22299250.120    22299262.657
       231.000         187.000
  20635177.224    -2496720.27049  -1942480.72347  20635176.834    20635186.532
       243.000         208.000
  24026696.440    -6385453.97649  -4962909.77445  24026697.493    24026714.389
       211.000         154.000
  20420576.555   -23181629.61949 -18051119.24648  20420576.639    20420585.448
       241.000         213.000
  22578269.292   -12172429.91449  -9461526.42046  22578267.890    22578281.594
       226.000         175.000
  21023666.855   -22959207.69249 -17873707.71047  21023666.968    21023675.629
       242.000         209.000
  24068825.184    -8932858.39649  -6955237.41545  24068825.439    24068848.172
       208.000         145.000
 02  3 21  1 42 30.0000000  0 10G21G23G17G 3G15G 9G29G14G18G 6
  21486531.208   -19634232.00649 -15287174.40847  21486530.395    21486540.867
       241.000         205.000
  24524102.137    -2857423.00849  -2214105.64145  24524100.039    24524117.091
       209.000         150.000
  21062531.666   -21406757.76249 -16664759.90647  21062530.893    21062541.360
       238.000         199.000
  22288170.276   -14445841.81949 -11027572.97446  22288169.821    22288181.650
       231.000         187.000
  20636069.123    -2492033.06449  -1938828.30047  20636068.267    20636078.343
       244.000         208.000
  24017728.719    -6432578.84949  -4999630.28545  24017726.504    24017741.321
       207.000         144.000
  20418716.102   -23191406.05949 -18058737.16848  20418715.797    20418724.421
       242.000         213.000
  22559249.920   -12272376.01749  -9539406.15546  22559248.697    22559262.207
       226.000         175.000
  21031233.875   -22919442.64949 -17842721.94147  21031233.400    21031242.128
       242.000         209.000
  24089826.528    -8822497.86449  -6869242.63145  24089826.320    24089847.110
       207.000         144.000
 02  3 21  1 43  0.0000000  0 10G21G23G17G 3G15G 9G29G14G18G 6
  21484398.292   -19645440.02149 -15295907.87147  21484397.821    21484408.322
       240.000         204.000
  24537880.592    -2785015.13749  -2157683.98145  24537880.749    24537893.723
       213.000         145.000
  21066430.208   -21386270.65049 -16648795.91047  21066429.574    21066439.977
       237.000         199.000
  22277177.711   -14503607.46849 -11072585.08046  22277177.631    22277189.729
       232.000         187.000
  20637013.284    -2487071.33149  -1934961.98647  20637012.763    20637022.210
       244.000         208.000
  24008820.940    -6479389.03049  -5036105.58445  24008822.098    24008835.978
       213.000         146.000
  20416962.045   -23200623.39949 -18065919.44748  20416961.861    20416970.837
       242.000         213.000
  22540279.590   -12372064.54849  -9617085.20846  22540278.400    22540291.564
       226.000         175.000
  21038835.619   -22879495.28249 -17811594.11447  21038835.267    21038843.737
       242.000         208.000
  24110842.757    -8712058.62649  -6783186.51045  24110843.870    24110866.746
       208.000         146.000
 02  3 21  1 43 30.0000000  0 10G21G23G17G 3G15G 9G29G14G18G 6
  21482299.872   -19656466.99849 -15304500.26147  21482299.274    21482309.885
       239.000         205.000
  24551643.473    -2712691.23449  -2101327.68545  24551645.390    24551657.784
       217.000         146.000
  21070381.372   -21365506.98949 -16632616.41047  21070381.049    21070391.197
       237.000         199.000
  22266272.890   -14560912.49249 -11117238.24146  22266272.111    22266284.777
       231.000         187.000
  20638009.678    -2481835.28049  -1930881.91147  20638009.004    20638018.733
       244.000         208.000
  23999973.599    -6525882.71649  -5072334.16445  23999972.645    23999989.731
       208.000         151.000
  20415314.140   -23209282.82349 -18072666.98448  20415314.112    20415322.713
       241.000         213.000
  22521358.557   -12471493.77649  -9694562.19446  22521357.778    22521370.359
       226.000         175.000
  21046471.494   -22839368.44849 -17780326.44147  21046471.311    21046479.827
       242.000         208.000
  24131873.198    -8601544.47249  -6697071.98145  24131874.251    24131897.778
       209.000         145.000
 02  3 21  1 44  0.0000000  0 10G21G23G17G 3G15G 9G29G14G18G 6
  21480235.412   -19667315.50649 -15312953.57747  21480234.633    21480245.240
       241.000         205.000
  24565390.239    -2640452.90349  -2045037.96445  24565389.675    24565404.030
       218.000         146.000
  21074385.157   -21344466.79549 -16616221.43047  21074384.777    21074394.774
       238.000         199.000
  22255455.833   -14617755.92049 -11161531.73246  22255454.969    22255467.325
       233.000         186.000
  20639058.236    -2476324.84149  -1926588.01847  20639057.468    20639067.294
       245.000         208.000
  23991186.164    -6572058.18949  -5108314.76345  23991185.938    23991198.857
       214.000         147.000
  20413772.222   -23217385.24849 -18078980.49148  20413771.950    20413780.615
       243.000         213.000
  22502487.078   -12570662.37749  -9771836.09846  22502486.533    22502499.118
       227.000         175.000
  21054141.126   -22799064.38749 -17748920.66647  21054140.932    21054149.106
       243.000         208.000
  24152917.249    -8490958.92049  -6610901.89245  24152919.202    24152937.804
       213.000         144.000
 02  3 21  1 44 30.0000000  0 10G21G23G17G 3G15G 9G29G14G18G 6
  21478205.115   -19677984.19449 -15321266.78247  21478204.948    21478215.157
       240.000         205.000
  24579120.866    -2568298.79449  -1988813.96045  24579121.428    24579135.002
       216.000         146.000
  21078442.101   -21323147.24549 -16599608.77947  21078441.569    21078452.148
       236.000         199.000
  22244727.229   -14674134.60049 -11205463.07647  22244727.466    22244739.205
       233.000         188.000
  20640159.631    -2470536.76849  -1922077.79547  20640159.175    20640168.852
       244.000         208.000
  23982461.041    -6617910.60649  -5144043.83045  23982461.407    23982472.484
       213.000         146.000
  20412336.621   -23224928.99949 -18084858.67248  20412336.693    20412345.375
       242.000         213.000
  22483666.114   -12669565.81149  -9848903.38946  22483665.262    22483678.836
       226.000         176.000
  21061844.467   -22758582.95049 -17717376.68047  21061844.069    21061852.814
       242.000         208.000
  24173974.810    -8380302.69649  -6524676.69945  24173977.284    24173997.558
       212.000         146.000
 02  3 21  1 45  0.0000000  0 10G21G23G17G 3G15G 9G29G14G18G 6
  21476208.509   -19688476.47449 -15329442.52047  21476208.360    21476218.811
       241.000         205.000
  24592834.700    -2496230.95649  -1932657.26645  24592833.186    24592850.667
       204.000         144.000
  21082552.197   -21301548.66749 -16582778.70247  21082551.993    21082562.154
       237.000         199.000
  22234087.158   -14730047.82049 -11249031.70046  22234086.812    22234099.126
       231.000         187.000
  20641313.814    -2464471.81349  -1917351.81747  20641313.286    20641322.754
       244.000         208.000
  23973796.976    -6663439.02049  -5179520.24745  23973794.467    23973812.908
       204.000         145.000
  20411007.044   -23231915.76749 -18090302.83848  20411006.964    20411015.756
       241.000         213.000
  22464895.794   -12768203.25349  -9925763.41246  22464894.297    22464908.113
       226.000         176.000
  21069580.985   -22717927.08849 -17685696.77247  21069580.753    21069588.985
       242.000         208.000
  24195044.995    -8269579.93749  -6438399.62845  24195047.747    24195067.799
       207.000         145.000
 02  3 21  1 45 30.0000000  0 10G21G23G17G 3G15G 9G29G14G18G 6
  21474245.760   -19698790.55849 -15337479.40047  21474245.229    21474255.897
       240.000         205.000
  24606532.473    -2424247.62849  -1876566.39345  24606532.352    24606546.857
       206.000         146.000
  21086716.001   -21279667.73749 -16565728.59947  21086715.061    21086726.099
       236.000         199.000
  22223536.565   -14785491.29249 -11292234.30946  22223535.467    22223547.870
       231.000         187.000
  20642521.214    -2458126.53149  -1912407.39647  20642520.460    20642530.175
       244.000         208.000
  23965195.232    -6708638.30449  -5214740.22145  23965194.801    23965208.555
       210.000         144.000
  20409783.848   -23238343.29649 -18095311.22948  20409783.481    20409792.427
       241.000         213.000
  22446177.104   -12866569.62249 -10002412.20546  22446175.526    22446188.706
       227.000         177.000
  21077350.858   -22677096.03449 -17653880.34747  21077350.444    21077358.874
       242.000         208.000
  24216127.674    -8158790.82249  -6352070.88445  24216128.553    24216150.312
       210.000         141.000
 02  3 21  1 46  0.0000000  0 10G21G23G17G 3G15G 9G29G14G18G 6
  21472316.387   -19708929.02949 -15345379.44047  21472315.855    21472326.300
       241.000         205.000
  24620214.239    -2352350.43449  -1820542.58245  24620213.651    24620225.330
       213.000         147.000
  21090933.402   -21257504.64749 -16548458.64647  21090932.811    21090943.589
       236.000         199.000
  22213075.372   -14840464.72049 -11335070.62846  22213075.228    22213087.114
       233.000         187.000
  20643781.950    -2451500.95149  -1907244.56747  20643781.178    20643791.085
       244.000         208.000
  23956657.040    -6753506.73649  -5249702.51645  23956656.532    23956670.156
       209.000         143.000
  20408666.853   -23244212.89049 -18099884.87148  20408666.724    20408675.255
       241.000         213.000
  22427510.094   -12964663.69549 -10078848.83546  22427508.649    22427521.768
       227.000         177.000
  21085153.547   -22636092.59249 -17621929.60647  21085153.382    21085161.686
       242.000         208.000
  24237222.318    -8047939.16249  -6265693.46245  24237221.381    24237241.518
       204.000         140.000
 02  3 21  1 46 30.0000000  0 10G21G23G17G 3G15G 9G29G14G18G 6
  21470420.279   -19718893.00549 -15353143.51047  21470419.788    21470430.080
       240.000         205.000
  24633879.426    -2280540.10949  -1764586.42645  24633879.780    24633889.826
       211.000         145.000
  21095204.708   -21235058.62049 -16530968.22747  21095204.524    21095214.814
       236.000         199.000
  22202704.047   -14894966.52949 -11377539.47947  22202703.578    22202715.430
       231.000         188.000
  20645096.202    -2444594.49049  -1901862.87647  20645095.708    20645105.501
       243.000         208.000
  23948182.012    -6798041.96449  -5284405.01645  23948181.069    23948198.306
       210.000         149.000
  20407655.901   -23249525.14149 -18104024.22048  20407655.884    20407664.589
       241.000         213.000
  22408895.491   -13062483.17849 -10155071.49946  22408894.925    22408908.174
       228.000         178.000
  21092988.750   -22594918.37749 -17589845.78947  21092988.278    21092996.952
       241.000         208.000
  24258328.284    -7937027.74549  -6179269.38645  24258328.718    24258355.126
       206.000         142.000
 02  3 21  1 47  0.0000000  0 10G21G23G17G 3G15G 9G29G14G18G 6
  21468557.101   -19728684.03849 -15360772.81547  21468556.787    21468566.783
       242.000         205.000
  24647527.620    -2208817.21049  -1708698.40645  24647527.292    24647540.948
       209.000         140.000
  21099530.088   -21212328.86549 -16513256.71647  21099529.510    21099540.127
       237.000         199.000
  22192422.602   -14948995.25549 -11419639.67647  22192422.226    22192434.570
       234.000         188.000
  20646464.017    -2437406.14749  -1896261.53047  20646463.301    20646473.202
       245.000         208.000
  23939771.080    -6842241.38249  -5318845.87745  23939770.422    23939786.385
       211.000         151.000
  20406750.954   -23254280.46049 -18107729.59648  20406750.930    20406759.478
       243.000         213.000
  22390333.500   -13160025.70049 -10231078.36546  22390332.345    22390344.748
       230.000         178.000
  21100856.035   -22553575.24849 -17557630.34547  21100855.821    21100864.265
       243.000         208.000
  24279445.154    -7826059.32949  -6092800.91545  24279446.309    24279466.807
       206.000         138.000
 02  3 21  1 47 30.0000000  0 10G21G23G17G 3G15G 9G29G14G18G 6
  21466726.819   -19738301.98749 -15368267.24947  21466726.225    21466736.703
       241.000         205.000
  24661159.399    -2137181.30049  -1652878.22045  24661159.754    24661173.011
       210.000         141.000
  21103909.766   -21189313.25349 -16495322.45547  21103909.088    21103919.555
       235.000         198.000
  22182231.744   -15002547.80549 -11461368.81247  22182231.291    22182243.435
       234.000         188.000
  20647885.999    -2429933.59649  -1890438.72347  20647885.306    20647894.989
       244.000         208.000
  23931424.806    -6886101.00049  -5353022.01445  23931424.859    23931439.683
       212.000         151.000
  20405952.214   -23258477.61749 -18111000.04048  20405952.193    20405960.673
       242.000         213.000
  22371824.977   -13257287.53949 -10306866.50546  22371824.328    22371836.742
       230.000         179.000
  21108755.430   -22512063.42349 -17525283.45047  21108754.933    21108763.521
       241.000         207.000
  24300572.697    -7715035.27449  -6006289.17445  24300571.215    24300594.818
       201.000         141.000
 02  3 21  1 48  0.0000000  0 10G21G23G17G 3G15G 9G29G14G18G 6
  21464929.006   -19747749.21149 -15375628.65547  21464928.669    21464939.168
       240.000         205.000
  24674774.382    -2065633.99649  -1597127.06845  24674775.548    24674790.089
       210.000         147.000
  21108343.857   -21166011.77049 -16477165.44847  21108343.648    21108354.022
       235.000         198.000
  22172131.718   -15055623.85849 -11502726.68747  22172131.283    22172143.072
       232.000         189.000
  20649361.979    -2422176.87349  -1884394.49047  20649361.604    20649371.036
       243.000         208.000
  23923142.895    -6929619.27549  -5386932.13545  23923138.776    23923156.371
       205.000         146.000
  20405259.359   -23262118.24349 -18113836.83248  20405259.343    20405268.068
       241.000         213.000
  22353370.135   -13354267.40149 -10382434.93646  22353369.314    22353381.503
       229.000         179.000
  21116686.435   -22470385.52849 -17492807.15347  21116686.332    21116694.732
       240.000         207.000
  24321710.087    -7603959.31549  -5919736.85845  24321711.020    24321736.579
       200.000         142.000
 02  3 21  1 48 30.0000000  0 10G21G23G17G 3G15G 9G29G14G18G 6
  21463163.476   -19757026.76849 -15382857.84347  21463162.862    21463173.240
       242.000         205.000
  24688372.589    -1994176.00649  -1541445.50445  24688371.706    24688387.375
       213.000         148.000
  21112832.534   -21142423.82649 -16458785.22347  21112832.590    21112842.334
       237.000         198.000
  22162122.567   -15108221.84349 -11543712.02047  22162122.592    22162134.327
       234.000         189.000
  20650892.246    -2414135.21249  -1878128.21347  20650891.505    20650901.355
       245.000         208.000
  23914926.933    -6972793.75249  -5420574.38245  23914927.850    23914942.482
       213.000         148.000
  20404672.301   -23265202.99549 -18116240.46348  20404672.289    20404680.839
       242.000         213.000
  22334969.364   -13450962.97049 -10457781.83646  22334968.053    22334981.088
       230.000         180.000
  21124648.773   -22428543.36549 -17460202.84347  21124648.580    21124657.110
       242.000         207.000
  24342856.715    -7492834.40749  -5833146.49545  24342858.530    24342877.814
       205.000         137.000
 02  3 21  1 49  0.0000000  0 10G21G23G17G 3G15G 9G29G14G18G 6
  21461430.114   -19766135.15249 -15389955.21447  21461429.821    21461440.161
       240.000         205.000
  24701953.624    -1922806.88749  -1485833.13845  24701954.373    24701968.772
       211.000         143.000
  21117376.060   -21118547.50649 -16440180.28147  21117375.735    21117386.228
       236.000         198.000
  22152204.807   -15160339.20649 -11584322.83447  22152204.048    22152216.398
       233.000         189.000
  20652477.010    -2405806.71849  -1871638.44647  20652476.418    20652486.206
       244.000         208.000
  23906777.142    -7015620.88449  -5453945.98045  23906774.904    23906789.751
       207.000         146.000
  20404191.142   -23267731.08049 -18118210.33848  20404190.853    20404199.686
       241.000         213.000
  22316623.337   -13547370.99349 -10532904.68146  22316621.654    22316634.473
       230.000         180.000
  21132642.162   -22386537.56349 -17427471.03247  21132641.527    21132650.588
       240.000         207.000
  24364012.519    -7381662.03549  -5746519.19145  24364012.815    24364038.625
       206.000         139.000
 02  3 21  1 49 30.0000000  0 10G21G23G17G 3G15G 9G29G14G18G 6
  21459728.664   -19775075.91149 -15396921.96647  21459728.349    21459738.601
       240.000         205.000
  24715517.662    -1851526.99349  -1430290.32345  24715516.894    24715532.572
       203.000         142.000
  21121974.572   -21094381.77749 -16421349.82847  21121974.192    21121984.842
       236.000         198.000
  22142378.901   -15211974.52749 -11624558.05747  22142378.261    22142389.965
       232.000         189.000
  20654116.579    -2397190.49049  -1864924.46447  20654116.103    20654125.730
       244.000         208.000
  23898693.944    -7058097.90549  -5487044.76445  23898695.587    23898706.869
       215.000         147.000
  20403815.826   -23269703.03949 -18119746.86548  20403815.632    20403824.441
       241.000         213.000
  22298332.460   -13643488.97349 -10607801.52246  22298331.436    22298344.255
       230.000         181.000
  21140666.409   -22344369.41349 -17394612.72147  21140666.131    21140674.575
       241.000         207.000
  24385176.719    -7270444.95449  -5659856.93545  24385177.203    24385202.107
       204.000         136.000
 02  3 21  1 50  0.0000000  0 10G21G23G17G 3G15G 9G29G14G18G 6
  21458058.900   -19783849.82249 -15403758.71247  21458058.595    21458068.851
       241.000         205.000
  24729064.725    -1780336.60849  -1374817.25445  24729063.076    24729079.275
       207.000         143.000
  21126628.428   -21069925.54349 -16402293.00947  21126628.080    21126638.567
       237.000         198.000
  22132645.009   -15263125.60449 -11664415.93347  22132644.929    22132656.530
       234.000         189.000
  20655811.186    -2388285.06549  -1857985.13147  20655810.470    20655820.151
       244.000         208.000
  23890678.344    -7100221.98549  -5519868.56145  23890678.208    23890692.910
       210.000         150.000
  20403546.328   -23271118.99049 -18120850.13948  20403546.179    20403554.875
       242.000         213.000
  22280097.332   -13739314.11649 -10682470.17346  22280096.410    22280108.459
       231.000         181.000
  21148721.399   -22302040.41849 -17361629.05847  21148721.045    21148729.089
       242.000         206.000
  24406349.066    -7159185.68949  -5573161.89145  24406350.915    24406372.466
       204.000         136.000
 02  3 21  1 50 30.0000000  0 10G21G23G17G 3G15G 9G29G14G18G 6
  21456420.811   -19792457.83849 -15410466.18847  21456420.919    21456430.892
       242.000         205.000
  24742594.457    -1709236.54449  -1319414.59645  24742595.408    24742608.307
       210.000         142.000
  21131337.762   -21045178.02849 -16383009.22447  21131337.579    21131348.155
       237.000         198.000
  22123003.627   -15313791.49049 -11703895.75447  22123003.184    22123015.277
       233.000         189.000
  20657560.988    -2379089.70949  -1850819.88347  20657560.718    20657570.009
       245.000         208.000
  23882729.521    -7141990.92349  -5552415.51645  23882727.832    23882744.907
       212.000         150.000
  20403382.478   -23271979.72549 -18121520.77748  20403382.522    20403391.112
       242.000         213.000
  22261918.332   -13834844.21049 -10756908.91446  22261917.115    22261929.781
       232.000         182.000
  21156806.545   -22259552.37449 -17328521.46747  21156806.478    21156814.993
       243.000         206.000
  24427528.822    -7047886.79449  -5486435.94845  24427530.712    24427552.527
       207.000         137.000
 02  3 21  1 51  0.0000000  0 10G21G23G17G 3G15G 9G29G14G18G 6
  21454814.280   -19800900.17549 -15417044.57347  21454813.881    21454824.100
       240.000         205.000
  24756107.165    -1638226.07149  -1264081.73745  24756105.974    24756121.271
       203.000         140.000
  21136102.851   -21020137.19149 -16363496.87447  21136102.391    21136112.841
       235.000         198.000
  22113455.019   -15363969.18349 -11742995.15747  22113454.914    22113466.534
       234.000         190.000
  20659366.401    -2369602.41549  -1843427.15447  20659365.919    20659375.590
       243.000         208.000
  23874849.530    -7183400.69749  -5584682.68945  23874850.425    23874863.466
       214.000         152.000
  20403324.411   -23272284.43949 -18121758.16348  20403324.482    20403333.146
       241.000         213.000
  22243796.097   -13930075.97149 -10831115.20246  22243794.691    22243807.676
       231.000         182.000
  21164922.000   -22216905.54049 -17295290.14647  21164921.919    21164930.336
       242.000         207.000
  24448716.032    -6936549.80249  -5399680.31645  24448716.506    24448738.881
       201.000         137.000
 02  3 21  1 51 30.0000000  0 10G21G23G17G 3G15G 9G29G14G18G 6
  21453238.730   -19809179.55249 -15423495.97247  21453238.472    21453248.622
       240.000         206.000
  24769602.569    -1567307.27149  -1208820.27045  24769603.290    24769616.143
       209.000         143.000
  21140923.522   -20994803.80449 -16343756.55847  21140923.024    21140933.872
       234.000         197.000
  22103999.264   -15413659.05049 -11781714.45047  22103999.460    22104010.706
       235.000         190.000
  20661227.134    -2359823.84849  -1835807.45147  20661226.371    20661236.120
       243.000         207.000
  23867037.957    -7224450.42149  -5616669.25345  23867035.045    23867051.059
       205.000         150.000
  20403371.823   -23272035.12649 -18121563.82948  20403371.670    20403380.299
       241.000         213.000
  22225730.873   -14025008.34949 -10905088.19446  22225729.707    22225741.524
       230.000         182.000
  21173067.038   -22174102.85349 -17261937.38647  21173066.681    21173075.119
       241.000         206.000
  24469909.681    -6825179.03549  -5312898.36945  24469914.141    24469929.636
       206.000         136.000
 02  3 21  1 52  0.0000000  0 10G21G23G17G 3G15G 9G29G14G18G 6
  21451694.330   -19817295.23549 -15429819.82447  21451694.001    21451704.254
       241.000         206.000
  24783080.953    -1496478.50149  -1153628.97045  24783080.610    24783097.306
       214.000         145.000
  21145800.479   -20969174.79149 -16323785.89747  21145800.317    21145810.563
       235.000         197.000
  22094637.107   -15462857.23949 -11820050.60347  22094636.372    22094648.443
       233.000         190.000
  20663143.940    -2349750.87449  -1827958.34747  20663143.423    20663152.861
       243.000         207.000
  23859295.380    -7265135.21649  -5648371.44445  23859295.573    23859309.592
       214.000         149.000
  20403524.899   -23271230.31249 -18120936.65048  20403525.044    20403533.558
       241.000         213.000
  22207723.438   -14119636.86749 -10978824.41646  22207722.344    22207735.233
       231.000         182.000
  21181241.761   -22131144.09249 -17228463.00847  21181241.662    21181249.960
       242.000         206.000
  24491109.411    -6713774.85949  -5226090.46245  24491113.215    24491135.386
       212.000         139.000
 02  3 21  1 52 30.0000000  0 10G21G23G17G 3G15G 9G29G14G18G 6
  21450180.459   -19825250.59949 -15436018.74147  21450180.019    21450190.263
       240.000         205.000
  24796541.706    -1425742.35449  -1098509.79145  24796540.602    24796557.924
       209.000         144.000
  21150733.536   -20943251.37949 -16303585.81847  21150733.162    21150743.482
       236.000         197.000
  22085368.376   -15511564.46149 -11858004.20047  22085367.898    22085379.200
       234.000         190.000
  20665116.499    -2339384.76449  -1819880.81947  20665115.908    20665125.166
       244.000         207.000
  23851623.178    -7305454.74749  -5679789.12845  23851622.775    23851635.194
       209.000         148.000
  20403783.216   -23269872.78049 -18119878.76948  20403782.925    20403791.800
       241.000         213.000
  22189773.856   -14213961.28749 -11052323.67846  22189773.080    22189784.714
       231.000         183.000
  21189445.614   -22088032.76949 -17194869.73847  21189445.212    21189453.705
       241.000         206.000
  24512314.784    -6602342.13249  -5139260.17845  24512314.718    24512340.698
       204.000         135.000
 02  3 21  1 53  0.0000000  0  9G21G23G17G 3G15G 9G29G14G18
  21448697.475   -19833043.26749 -15442090.89047  21448697.096    21448707.405
       241.000         205.000
  24809985.074    -1355096.14349  -1043460.74745  24809984.735    24809998.838
       209.000         143.000
  21155723.469   -20917029.44349 -16283153.13547  21155723.298    21155733.552
       236.000         197.000
  22076193.921   -15559775.88849 -11895571.46147  22076193.559    22076205.730
       235.000         190.000
  20667145.741    -2328721.06749  -1811571.41347  20667145.293    20667154.592
       244.000         207.000
  23844020.104    -7345403.30549  -5710917.54545  23844017.460    23844034.323
       210.000         144.000
  20404147.193   -23267959.60449 -18118387.93048  20404147.143    20404155.734
       241.000         213.000
  22171883.224   -14307976.01149 -11125581.62246  22171882.125    22171893.411
       231.000         183.000
  21197678.767   -22044767.03349 -17161156.16847  21197678.922    21197686.878
       242.000         206.000
 02  3 21  1 53 30.0000000  0  9G21G23G17G 3G15G 9G29G14G18
  21447246.317   -19840668.87349 -15448032.85947  21447245.861    21447256.039
       241.000         205.000
  24823412.274    -1284534.68749   -988477.78945  24823413.938    24823425.392
       207.000         142.000
  21160771.383   -20890502.63549 -16262482.88247  21160771.413    21160781.447
       236.000         197.000
  22067115.333   -15607484.38349 -11932746.82747  22067115.304    22067126.962
       234.000         191.000
  20669232.813    -2317753.24349  -1803025.01647  20669232.418    20669241.761
       244.000         207.000
  23836490.468    -7384972.72849  -5741750.68545  23836492.250    23836502.145
       216.000         147.000
  20404617.867   -23265485.85749 -18116460.27348  20404617.847    20404626.558
       241.000         213.000
  22154052.990   -14401673.15449 -11198592.10246  22154052.209    22154063.856
       232.000         183.000
  21205942.212   -22001342.70449 -17127319.00347  21205941.802    21205950.205
       241.000         206.000
 02  3 21  1 54  0.0000000  0  9G21G23G17G 3G15G 9G29G14G18
  21445824.295   -19848141.32949 -15453855.49247  21445823.825    21445833.996
       242.000         205.000
  24836820.787    -1214070.69349   -933570.80245  24836819.098    24836835.497
       200.000         135.000
  21165875.124   -20863682.40149 -16241583.98647  21165874.510    21165885.004
       236.000         197.000
  22058130.190   -15654701.22649 -11969539.07647  22058129.595    22058141.167
       233.000         190.000
  20671375.532    -2306492.94849  -1794250.71547  20671374.705    20671384.262
       244.000         208.000
  23829031.069    -7424172.97749  -5772296.18545  23829028.917    23829044.183
       209.000         145.000
  20405192.733   -23262464.78649 -18114106.13248  20405192.669    20405201.130
       242.000         213.000
  22136281.274   -14495062.74749 -11271362.92846  22136280.422    22136291.869
       232.000         184.000
  21214233.008   -21957773.86349 -17093369.23447  21214232.472    21214240.848
       242.000         205.000
 02  3 21  1 54 30.0000000  0  9G21G23G17G 3G15G 9G29G14G18
  21444432.162   -19855457.03449 -15459555.97447  21444431.709    21444441.863
       241.000         206.000
  24850212.083    -1143700.24349   -878736.62445  24850211.427    24850219.643
       209.000         135.000
  21171035.685   -20836563.32549 -16220452.22547  21171035.257    21171045.638
       235.000         197.000
  22049239.770   -15701420.26549 -12005943.43947  22049239.369    22049251.135
       234.000         191.000
  20673574.972    -2294934.58249  -1785244.15547  20673574.252    20673583.995
       244.000         208.000
  23821642.505    -7462996.66849  -5802548.11545  23821642.480    23821656.415
       216.000         147.000
  20405872.551   -23258892.22749 -18111322.25748  20405872.508    20405880.915
       242.000         213.000
  22118569.477   -14588137.81949 -11343888.67646  22118568.384    22118579.913
       232.000         184.000
  21222551.961   -21914057.30149 -17059304.36147  21222551.473    21222559.875
       242.000         205.000
 02  3 21  1 55  0.0000000  0  9G21G23G17G 3G15G 9G29G14G18
  21443069.329   -19862618.63349 -15465136.38047  21443068.762    21443078.780
       240.000         206.000
  24863585.273    -1073424.97749   -823976.52445  24863584.479    24863592.088
       210.000         135.000
  21176253.068   -20809145.78249 -16199087.89147  21176252.755    21176262.842
       235.000         196.000
  22040444.026   -15747641.51649 -12041959.89747  22040443.638    22040455.047
       234.000         190.000
  20675831.097    -2283078.58849  -1776005.68447  20675830.520    20675840.093
       243.000         208.000
  23814326.876    -7501442.70449  -5832505.91545  23814327.364    23814340.292
       214.000         152.000
  20406656.862   -23254770.32049 -18108110.32648  20406656.915    20406665.331
       241.000         213.000
  22100917.667   -14680897.41849 -11416168.60546  22100916.784    22100928.798
       232.000         184.000
  21230898.544   -21870195.85849 -17025126.59547  21230898.175    21230906.837
       241.000         205.000
 02  3 21  1 55 30.0000000  0  9G21G23G17G 3G15G 9G29G14G18
  21441735.887   -19869625.49749 -15470596.20847  21441735.465    21441745.645
       241.000         205.000
  24876940.404    -1003243.27749   -769289.32145  24876937.984    24876953.818
       196.000         134.000
  21181527.740   -20781427.21949 -16177488.99747  21181527.064    21181537.405
       235.000         196.000
  22031743.765   -15793361.68149 -12077585.91147  22031742.462    22031755.672
       232.000         191.000
  20678144.441    -2270921.93649  -1766532.92647  20678143.809    20678153.237
       244.000         208.000
  23807083.243    -7539507.02049  -5862166.21245  23807081.560    23807096.622
       206.000         149.000
  20407545.961   -23250097.87449 -18104469.39848  20407546.040    20407554.397
       241.000         213.000
  22083326.684   -14773337.33849 -11488199.43646  22083325.772    22083337.090
       232.000         185.000
  21239272.689   -21826189.22449 -16990835.69247  21239272.368    21239280.322
       241.000         205.000
 02  3 21  1 56  0.0000000  0  9G21G23G17G 3G15G 9G29G14G18
  21440431.902   -19876477.79449 -15475935.59847  21440431.218    21440441.586
       241.000         206.000
  24890277.489     -933154.98649   -714675.13845  24890276.890    24890290.363
       197.000         136.000
  21186860.038   -20753405.95649 -16155654.23047  21186859.952    21186869.681
       236.000         196.000
  22023139.080   -15838578.68549 -12112819.85147  22023139.618    22023149.906
       235.000         191.000
  20680515.205    -2258463.23549  -1756824.81447  20680514.628    20680524.223
       244.000         208.000
  23799912.358    -7577186.57949  -5891526.66645  23799911.364    23799927.743
       212.000         149.000
  20408539.835   -23244874.90149 -18100399.49248  20408539.732    20408548.124
       242.000         213.000
  22065797.118   -14865454.63749 -11559978.88246  22065796.187    22065807.793
       233.000         185.000
  21247674.331   -21782038.16849 -16956432.24847  21247673.782    21247682.751
       241.000         205.000
 02  3 21  1 56 30.0000000  0  9G21G23G17G 3G15G 9G29G14G18
  21439156.963   -19883177.22349 -15481155.86347  21439156.441    21439166.484
       241.000         206.000
  24903596.818     -863160.82249   -660134.20845  24903597.898    24903610.412
       206.000         142.000
  21192250.075   -20725081.51449 -16133583.21047  21192249.741    21192259.756
       234.000         196.000
  22014630.389   -15883291.52049 -12147660.91047  22014629.799    22014642.169
       233.000         191.000
  20682943.606    -2245701.73749  -1746880.75147  20682943.066    20682952.496
       244.000         208.000
  23792815.746    -7614479.04249  -5920585.50845  23792814.677    23792831.358
       210.000         153.000
  20409638.248   -23239102.37849 -18095901.36648  20409638.261    20409646.445
       241.000         213.000
  22048329.410   -14957247.09449 -11631505.20846  22048328.600    22048340.049
       231.000         185.000
  21256103.078   -21737744.41549 -16921917.61947  21256102.746    21256111.155
       241.000         205.000
 02  3 21  1 57  0.0000000  0  9G21G23G17G 3G15G 9G29G14G18
  21437911.036   -19889724.45249 -15486257.52747  21437910.324    21437920.464
       240.000         205.000
  24916898.399     -793261.03849   -605666.77745  24916898.520    24916913.259
       207.000         146.000
  21197697.824   -20696452.84449 -16111275.13347  21197697.000    21197707.399
       234.000         196.000
  22006218.069   -15927498.76749 -12182108.02647  22006217.443    22006228.312
       233.000         192.000
  20685429.819    -2232636.41349  -1736699.93947  20685429.005    20685438.594
       243.000         208.000
  23785792.951    -7651381.71849  -5949340.61245  23785792.938    23785806.200
       214.000         151.000
  20410841.160   -23232780.88449 -18090975.46448  20410840.999    20410849.362
       241.000         213.000
  22030923.957   -15048712.36049 -11702776.57946  22030922.560    22030933.901
       232.000         186.000
  21264558.842   -21693309.30349 -16887292.83847  21264558.602    21264566.735
       241.000         205.000
 02  3 21  1 57 30.0000000  0  9G21G23G17G 3G15G 9G29G14G18
  21436693.728   -19896121.18549 -15491241.92547  21436693.316    21436703.105
       241.000         205.000
  24930181.749     -723456.70049   -551273.68545  24930182.174    24930197.015
       213.000         146.000
  21203203.511   -20667519.76949 -16088729.86047  21203203.018    21203213.614
       235.000         196.000
  21997901.859   -15971199.80849 -12216160.69247  21997901.230    21997913.875
       234.000         191.000
  20687973.857    -2219266.97749  -1726282.16747  20687973.194    20687982.799
       244.000         208.000
  23778845.412    -7687892.76549  -5977790.61945  23778846.027    23778859.516
       215.000         153.000
  20412148.245   -23225911.77949 -18085622.86148  20412148.004    20412156.657
       242.000         213.000
  22013581.068   -15139848.78449 -11773791.72846  22013580.106    22013591.870
       232.000         187.000
  21273041.095   -21648734.63349 -16852559.31047  21273040.451    21273049.343
       241.000         205.000
 02  3 21  1 58  0.0000000  0  9G21G23G17G 3G15G 9G29G14G18
  21435504.956   -19902368.02449 -15496109.51947  21435504.489    21435514.509
       242.000         205.000
  24943446.965     -653747.07849   -496954.39745  24943445.982    24943460.034
       208.000         138.000
  21208767.554   -20638280.48649 -16065945.96847  21208767.106    21208777.403
       235.000         196.000
  21989682.708   -16014391.92749 -12249816.77947  21989682.000    21989693.248
       234.000         193.000
  20690576.222    -2205591.40149  -1715625.83747  20690575.513    20690585.366
       244.000         208.000
  23771972.548    -7724009.06349  -6005933.01045  23771971.666    23771985.884
       214.000         151.000
  20413559.584   -23218494.95549 -18079843.45648  20413559.307    20413567.841
       242.000         213.000
  21996301.375   -15230653.09249 -11844548.08346  21996300.728    21996311.922
       233.000         187.000
  21281549.705   -21604021.05849 -16817717.53647  21281548.950    21281557.517
       241.000         204.000
 02  3 21  1 58 30.0000000  0  9G21G23G17G 3G15G 9G29G14G18
  21434344.716   -19908464.96249 -15500860.30747  21434344.232    21434354.159
       241.000         205.000
  24956694.370     -584131.39749   -442708.33345  24956692.042    24956708.088
       200.000         135.000
  21214390.208   -20608733.38749 -16042922.22947  21214389.864    21214399.935
       234.000         195.000
  21981560.592   -16057073.11449 -12283074.77647  21981560.772    21981571.982
       236.000         192.000
  20693237.171    -2191607.91349  -1704729.57847  20693236.620    20693246.068
       244.000         208.000
  23765175.450    -7759726.88049  -6033764.84645  23765174.082    23765189.336
       212.000         151.000
  20415075.179   -23210530.34349 -18073637.20748  20415075.028    20415083.329
       242.000         213.000
  21979085.630   -15321121.79249 -11915042.93546  21979084.846    21979096.537
       233.000         187.000
  21290084.802   -21559168.82149 -16782767.72647  21290084.551    21290093.024
       242.000         204.000
 02  3 21  1 59  0.0000000  0  9G21G23G17G 3G15G 9G29G14G18
  21433212.505   -19914414.49949 -15505496.24647  21433212.186    21433221.978
       240.000         205.000
  24969923.333     -514611.36749   -388536.81645  24969922.602    24969936.575
       207.000         134.000
  21220071.303   -20578878.68849 -16019658.80347  21220071.140    21220081.311
       234.000         195.000
  21973535.843   -16099243.46749 -12315934.68247  21973535.178    21973547.190
       233.000         193.000
  20695956.626    -2177316.87449  -1693593.67747  20695956.008    20695965.571
       242.000         207.000
  23758454.331    -7795045.07149  -6061285.39545  23758453.395    23758463.966
       210.000         146.000
  20416694.630   -23202019.84849 -18067005.59948  20416694.566    20416702.927
       241.000         213.000
  21961933.781   -15411254.13949 -11985275.70847  21961933.390    21961944.004
       232.000         188.000
  21298645.774   -21514180.84649 -16747712.14747  21298645.634    21298653.986
       241.000         204.000
 02  3 21  1 59 30.0000000  0  8G21G17G 3G15G 9G29G14G18
  21432108.354   -19920216.33749 -15510017.08447  21432107.960    21432118.149
       240.000         206.000
  21225811.493   -20548713.65649 -15996153.55347  21225810.997    21225821.757
       234.000         195.000
  21965608.845   -16140899.89749 -12348394.16547  21965608.606    21965620.199
       234.000         193.000
  20698735.165    -2162715.18149  -1682215.69147  20698734.634    20698744.230
       243.000         207.000
  23751810.200    -7829959.37849  -6088491.16845  23751811.313    23751825.282
       215.000         150.000
  20418418.108   -23192962.52449 -18059947.88048  20418417.953    20418426.421
       241.000         213.000
  21944846.781   -15501045.94549 -12055243.11347  21944845.939    21944857.190
       232.000         188.000
  21307232.649   -21469056.47749 -16712550.27547  21307232.410    21307241.010
       241.000         204.000
 02  3 21  2  0  0.0000000  0  8G21G17G 3G15G 9G29G14G18
  21431032.009   -19925872.20249 -15514424.17947  21431031.316    21431041.332
       240.000         206.000
  21231610.531   -20518238.97449 -15972407.02247  21231609.972    21231620.115
       234.000         195.000
  21957779.493   -16182042.41449 -12380453.15647  21957779.316    21957790.245
       234.000         193.000
  20701572.727    -2147803.41949  -1670596.10147  20701572.140    20701581.578
       243.000         207.000
  23745243.209    -7864469.03049  -6115381.57945  23745241.511    23745256.827
       212.000         152.000
  20420245.223   -23183360.65349 -18052465.84348  20420245.158    20420253.603
       241.000         213.000
  21927824.760   -15590496.18949 -12124944.37447  21927823.604    21927835.174
       233.000         188.000
  21315844.976   -21423798.41149 -16677284.22847  21315844.668    21315853.019
       240.000         204.000
 02  3 21  2  0 30.0000000  0  8G21G17G 3G15G 9G29G14G18
  21429983.275   -19931383.07349 -15518718.29047  21429982.762    21429992.681
       241.000         206.000
  21237468.757   -20487453.83349 -15948418.57847  21237468.666    21237478.706
       234.000         195.000
  21950048.401   -16222669.76349 -12412110.75947  21950047.698    21950059.205
       234.000         192.000
  20704469.462    -2132580.82949  -1658734.30547  20704468.944    20704478.662
       243.000         207.000
  23738753.682    -7898571.44649  -6141954.73545  23738753.343    23738765.619
       213.000         151.000
  20422175.823   -23173215.07849 -18044560.14148  20422175.942    20422184.169
       242.000         213.000
  21910868.156   -15679602.62849 -12194377.73047  21910867.222    21910878.643
       233.000         189.000
  21324482.382   -21378408.27349 -16641915.26847  21324482.078    21324490.531
       241.000         204.000
 02  3 21  2  1  0.0000000  0  8G21G17G 3G15G 9G29G14G18
  21428961.677   -19936751.31749 -15522901.26547  21428961.189    21428971.122
       241.000         206.000
  21243386.111   -20456357.88749 -15924187.94347  21243385.640    21243395.907
       234.000         195.000
  21942415.269   -16262781.38349 -12443366.46747  21942414.443    21942426.678
       234.000         193.000
  20707425.376    -2117047.05049  -1646630.02547  20707424.898    20707434.414
       243.000         207.000
  23732341.868    -7932265.10049  -6168209.38645  23732341.142    23732353.637
       216.000         149.000
  20424209.599   -23162527.25049 -18036231.91048  20424209.494    20424217.818
       242.000         213.000
  21893977.361   -15768363.45849 -12263541.79847  21893976.495    21893987.672
       234.000         189.000
  21333144.604   -21332887.67549 -16606444.65847  21333144.192    21333152.978
       240.000         204.000
 02  3 21  2  1 30.0000000  0  9G21G17G 3G31G15G 9G29G14G18
  21427965.682   -19941984.81349 -15526979.23447  21427964.859    21427975.037
       241.000         206.000
  21249361.365   -20424957.58549 -15899720.14747  21249360.624    21249371.290
       234.000         195.000
  21934879.236   -16302383.00749 -12474224.79147  21934879.009    21934889.644
       235.000         192.000
  24449655.426    -2146930.08649  -1655056.16545  24449654.347    24449669.924
       209.000         145.000
  20710439.403    -2101208.27749  -1634288.08247  20710438.772    20710448.178
       244.000         207.000
  23726007.328    -7965554.48749  -6194149.03345  23726006.857    23726022.097
       214.000         153.000
  20426345.062   -23151305.07149 -18027487.29048  20426344.766    20426353.116
       242.000         213.000
  21877151.403   -15856783.68049 -12332440.45447  21877150.134    21877161.056
       234.000         189.000
  21341830.083   -21287245.19449 -16570879.06647  21341829.599    21341838.314
       241.000         204.000
 02  3 21  2  2  0.0000000  0  9G21G17G 3G31G15G 9G29G14G18
  21426996.160   -19947079.46449 -15530949.02347  21426995.899    21427005.799
       242.000         206.000
  21255395.734   -20393246.71949 -15875010.36547  21255395.776    21255405.886
       235.000         195.000
  21927441.507   -16341468.27049 -12504680.75747  21927441.098    21927452.364
       235.000         192.000
  24433063.446    -2234120.59049  -1722996.56845  24433062.843    24433079.091
       208.000         146.000
  20713512.645    -2085058.30549  -1621703.65347  20713512.334    20713521.567
       245.000         207.000
  23719750.495    -7998432.07149  -6219767.71145  23719749.709    23719764.769
       215.000         154.000
  20428582.983   -23139544.42149 -18018323.09348  20428583.166    20428591.201
       243.000         213.000
  21860391.650   -15944855.76749 -12401067.84047  21860391.346    21860401.765
       234.000         190.000
  21350539.564   -21241477.04549 -16535215.55447  21350539.229    21350547.972
       242.000         204.000
 02  3 21  2  2 30.0000000  0  9G21G17G 3G31G15G 9G29G14G18
  21426054.205   -19952029.07549 -15534805.78547  21426053.652    21426064.009
       240.000         206.000
  21261490.710   -20361217.30049 -15850052.34847  21261490.287    21261500.727
       234.000         195.000
  21920103.582   -16380029.01249 -12534728.00447  21920103.348    21920114.936
       234.000         193.000
  24416530.976    -2320998.68749  -1790693.53145  24416529.738    24416547.065
       206.000         146.000
  20716646.656    -2068588.88949  -1608870.30347  20716646.154    20716655.626
       244.000         207.000
  23713574.201    -8030888.30549  -6245058.14145  23713573.745    23713586.954
       215.000         153.000
  20430924.557   -23127239.04249 -18008734.42648  20430924.365    20430932.588
       241.000         213.000
  21843699.954   -16032570.24449 -12469416.56247  21843698.842    21843709.917
       233.000         190.000
  21359273.980   -21195577.13149 -16499449.36947  21359273.802    21359282.143
       240.000         203.000
 02  3 21  2  3  0.0000000  0  9G21G17G 3G31G15G 9G29G14G18
  21425139.515   -19956835.37849 -15538550.89447  21425139.165    21425149.037
       240.000         206.000
  21267646.254   -20328869.71149 -15824846.41847  21267645.685    21267656.060
       234.000         195.000
  21912865.462   -16418064.95349 -12564366.31947  21912865.639    21912875.848
       235.000         193.000
  24400058.143    -2407563.04049  -1858146.02245  24400057.252    24400073.051
       203.000         144.000
  20719841.455    -2051800.14849  -1595788.13247  20719840.803    20719850.415
       243.000         207.000
  23707478.552    -8062921.63749  -6270019.02845  23707479.653    23707491.770
       216.000         154.000
  20433369.415   -23114390.97449 -17998722.89548  20433369.323    20433377.610
       241.000         213.000
  21827076.511   -16119925.92749 -12537485.71447  21827075.620    21827086.542
       234.000         190.000
  21368033.023   -21149547.73849 -16463582.30447  21368032.719    21368041.380
       240.000         203.000
 02  3 21  2  3 30.0000000  0  9G21G17G 3G31G15G 9G29G14G18
  21424251.408   -19961502.38049 -15542187.45247  21424251.090    21424260.829
       241.000         206.000
  21273862.004   -20296205.54649 -15799393.81547  21273861.702    21273871.819
       235.000         195.000
  21905727.099   -16455577.47849 -12593596.78847  21905726.471    21905738.324
       234.000         193.000
  24383644.874    -2493813.69149  -1925354.06145  24383643.375    24383660.085
       201.000         142.000
  20723096.666    -2034693.71849  -1582458.41447  20723095.979    20723105.422
       243.000         207.000
  23701463.011    -8094532.63949  -6294650.84145  23701460.241    23701474.506
       211.000         150.000
  20435916.894   -23101003.71249 -17988291.21248  20435916.989    20435925.114
       242.000         213.000
  21810521.416   -16206923.01749 -12605275.44747  21810520.931    21810531.824
       234.000         191.000
  21376816.000   -21103392.95149 -16427617.52047  21376815.618    21376823.967
       240.000         203.000
 02  3 21  2  4  0.0000000  0  9G21G17G 3G31G15G 9G29G14G18
  21423389.836   -19966029.79349 -15545715.23947  21423389.426    21423399.403
       241.000         206.000
  21280138.398   -20263222.73049 -15773692.90747  21280137.917    21280147.716
       234.000         194.000
  21898688.669   -16492564.39149 -12622417.67647  21898688.813    21898699.385
       236.000         194.000
  24367292.022    -2579747.04049  -1992314.86145  24367291.705    24367307.675
       203.000         140.000
  20726412.735    -2017267.34049  -1568879.37947  20726411.984    20726421.454
       243.000         207.000
  23695528.280    -8125717.53949  -6318950.59145  23695528.097    23695541.929
       215.000         151.000
  20438567.037   -23087077.00449 -17977439.17748  20438566.885    20438575.159
       241.000         213.000
  21794035.143   -16293557.99549 -12672783.01247  21794034.204    21794044.927
       234.000         191.000
  21385622.860   -21057112.53549 -16391554.83947  21385622.382    21385630.775
       240.000         203.000
 02  3 21  2  4 30.0000000  0  9G21G17G 3G31G15G 9G29G14G18
  21422554.327   -19970420.24349 -15549136.30247  21422554.114    21422563.892
       240.000         206.000
  21286475.354   -20229921.85249 -15747744.16347  21286475.230    21286485.167
       233.000         194.000
  21891750.214   -16529025.81349 -12650829.08847  21891749.337    21891761.045
       233.000         193.000
  24350999.824    -2665361.88749  -2059027.49245  24350998.944    24351015.485
       207.000         138.000
  20729789.608    -1999521.37549  -1555051.32147  20729789.295    20729798.614
       243.000         206.000
  23689675.236    -8156475.65149  -6342917.78445  23689675.489    23689688.551
       214.000         153.000
  20441319.387   -23072613.05049 -17966168.51348  20441319.609    20441327.734
       240.000         213.000
  21777617.991   -16379830.02149 -12740007.76247  21777617.299    21777628.036
       234.000         192.000
  21394453.060   -21010709.07349 -16355396.28547  21394452.858    21394460.885
       240.000         202.000
 02  3 21  2  5  0.0000000  0  9G21G17G 3G31G15G 9G29G14G18
  21421744.515   -19974675.59449 -15552452.09647  21421743.775    21421753.831
       240.000         206.000
  21292872.718   -20196303.08649 -15721547.71247  21292872.501    21292882.570
       233.000         194.000
  21884911.763   -16564961.30049 -12678830.68547  21884912.001    21884922.276
       235.000         193.000
  24334768.594    -2750656.78049  -2125490.84945  24334767.251    24334782.580
       208.000         137.000
  20733227.251    -1981456.12449  -1540974.46447  20733226.596    20733236.185
       242.000         206.000
  23683903.710    -8186805.44949  -6366551.23345  23683902.206    23683915.925
       211.000         153.000
  20444173.591   -23057613.87149 -17954480.78948  20444173.573    20444181.825
       240.000         213.000
  21761270.081   -16465737.79649 -12806948.67747  21761269.257    21761280.100
       235.000         192.000
  21403306.316   -20964184.87749 -16319143.64947  21403306.119    21403314.517
       240.000         202.000
 02  3 21  2  5 30.0000000  0  9G21G17G 3G31G15G 9G29G14G18
  21420960.405   -19978795.64149 -15555662.45647  21420959.848    21420969.681
       241.000         206.000
  21299330.985   -20162364.62249 -15695102.14547  21299330.540    21299341.249
       234.000         194.000
  21878173.968   -16600368.94849 -12706420.98147  21878173.176    21878184.668
       234.000         194.000
  24318598.876    -2835628.40949  -2191702.35045  24318599.174    24318613.691
       210.000         137.000
  20736726.055    -1963069.41349  -1526647.11747  20736725.444    20736734.973
       243.000         206.000
  23678213.873    -8216703.67049  -6389848.37245  23678212.984    23678227.139
       213.000         149.000
  20447129.638   -23042079.42249 -17942375.97848  20447129.527    20447137.869
       241.000         213.000
  21744992.221   -16551278.19949 -12873603.33147  21744991.905    21745001.713
       235.000         193.000
  21412182.522   -20917539.92149 -16282796.91447  21412181.985    21412190.685
       239.000         202.000
